[[{"header":{"parameterUnit":"m.s-1","parameterCategory":1,"la1":30.6,"la2":29.2853,"lo1":-89.7004,"lo2":-87.6739,"dy":0.0162,"dx":0.0183,"nx":112,"ny":82,"refTime":"2023-04-01T06:00:00:Z","depth":0,"parameterNumber":2,"parameterNumberName":"U-component_of_WINDS"},"data":[0.0,0.0,0.0,0.0,0.0,0.0,0.0,0.0,0.0,0.0,0.0,0.0,0.0,0.0,0.0,0.0,0.0,0.0,0.0,0.0,0.0,0.0,0.0,0.0,0.0,0.0,0.0,0.0,0.0,0.0,0.0,0.0,0.0,0.0,0.0,0.0,0.0,0.0,0.0,0.0,0.0,0.0,0.0,0.0,0.0,0.0,0.0,0.0,0.0,0.0,0.0,0.0,0.0,0.0,0.0,0.0,0.0,0.0,0.0,0.0,0.0,0.0,0.0,0.0,0.0,0.0,0.0,0.0,0.0,0.0,0.0,0.0,0.0,0.0,0.0,0.0,0.0,0.0,0.0,0.0,0.0,0.0,0.0,0.0,0.0,0.0,0.0,0.0,0.0,0.0,-6.1235,-6.1592,-6.2087,-6.2381,-6.2381,-6.2381,-6.1738,-6.0216,0.0,0.0,0.0,0.0,0.0,0.0,0.0,0.0,0.0,0.0,0.0,0.0,0.0,0.0,0.0,0.0,0.0,0.0,0.0,0.0,0.0,0.0,0.0,0.0,0.0,0.0,0.0,0.0,0.0,0.0,0.0,0.0,0.0,0.0,0.0,0.0,0.0,0.0,0.0,0.0,0.0,0.0,0.0,0.0,0.0,0.0,0.0,0.0,0.0,0.0,0.0,0.0,0.0,0.0,0.0,0.0,0.0,0.0,0.0,0.0,0.0,0.0,0.0,0.0,0.0,0.0,0.0,0.0,0.0,0.0,0.0,0.0,0.0,0.0,0.0,0.0,0.0,0.0,0.0,0.0,0.0,0.0,0.0,0.0,0.0,0.0,0.0,0.0,0.0,0.0,0.0,0.0,0.0,0.0,0.0,0.0,0.0,0.0,0.0,0.0,0.0,0.0,0.0,0.0,-6.0791,-6.2115,-6.2352,-6.2381,-6.2381,-6.2381,-6.1738,-6.0216,0.0,0.0,0.0,0.0,0.0,0.0,0.0,0.0,0.0,0.0,0.0,0.0,0.0,0.0,0.0,0.0,0.0,0.0,0.0,0.0,0.0,0.0,0.0,0.0,0.0,0.0,0.0,0.0,0.0,0.0,0.0,0.0,0.0,0.0,0.0,0.0,0.0,0.0,0.0,0.0,0.0,0.0,0.0,0.0,0.0,0.0,0.0,0.0,0.0,0.0,0.0,0.0,0.0,0.0,0.0,0.0,0.0,0.0,0.0,0.0,0.0,0.0,0.0,0.0,0.0,0.0,0.0,0.0,0.0,0.0,0.0,0.0,0.0,0.0,0.0,0.0,0.0,0.0,0.0,0.0,0.0,0.0,0.0,0.0,0.0,0.0,0.0,0.0,0.0,0.0,0.0,0.0,0.0,0.0,0.0,0.0,0.0,0.0,0.0,0.0,0.0,0.0,0.0,-6.0723,-6.1163,-6.2279,-6.2381,-6.2381,-6.2381,-6.2381,-6.1738,-6.0216,-6.0114,0.0,0.0,0.0,0.0,0.0,0.0,0.0,0.0,0.0,0.0,0.0,0.0,0.0,0.0,0.0,0.0,0.0,0.0,0.0,0.0,0.0,0.0,0.0,0.0,0.0,0.0,0.0,0.0,0.0,0.0,0.0,0.0,0.0,0.0,0.0,0.0,0.0,0.0,0.0,0.0,0.0,0.0,0.0,0.0,0.0,0.0,0.0,0.0,0.0,0.0,0.0,0.0,0.0,0.0,0.0,0.0,0.0,0.0,0.0,0.0,0.0,0.0,0.0,0.0,0.0,0.0,0.0,0.0,0.0,0.0,0.0,0.0,0.0,0.0,0.0,0.0,0.0,0.0,0.0,0.0,0.0,0.0,0.0,0.0,0.0,0.0,0.0,0.0,0.0,0.0,0.0,0.0,0.0,0.0,0.0,0.0,0.0,0.0,0.0,0.0,0.0,0.0,-6.096,-6.1772,-6.2347,-6.2381,-6.2381,-6.2381,-6.2245,-6.1569,-6.0182,-5.9945,0.0,0.0,0.0,0.0,0.0,0.0,0.0,0.0,0.0,0.0,0.0,0.0,0.0,0.0,0.0,0.0,0.0,0.0,0.0,0.0,0.0,0.0,0.0,0.0,0.0,0.0,0.0,0.0,0.0,0.0,0.0,0.0,0.0,0.0,0.0,0.0,0.0,0.0,0.0,0.0,0.0,0.0,0.0,0.0,0.0,0.0,0.0,0.0,0.0,0.0,0.0,0.0,0.0,0.0,0.0,0.0,0.0,0.0,0.0,0.0,0.0,0.0,0.0,0.0,0.0,0.0,0.0,0.0,0.0,0.0,0.0,0.0,0.0,0.0,0.0,0.0,0.0,0.0,0.0,0.0,0.0,0.0,0.0,0.0,0.0,0.0,0.0,0.0,0.0,0.0,0.0,0.0,0.0,0.0,0.0,0.0,0.0,0.0,0.0,0.0,0.0,0.0,-6.14,-6.2347,-6.2381,-6.2381,-6.2381,-6.2381,-6.1772,-6.1028,-6.0148,-5.9471,0.0,0.0,0.0,0.0,0.0,0.0,0.0,0.0,0.0,0.0,0.0,0.0,0.0,0.0,0.0,0.0,0.0,0.0,0.0,0.0,0.0,0.0,0.0,0.0,0.0,0.0,0.0,0.0,0.0,0.0,0.0,0.0,0.0,0.0,0.0,0.0,0.0,0.0,0.0,0.0,0.0,0.0,0.0,0.0,0.0,0.0,0.0,0.0,0.0,0.0,0.0,0.0,0.0,0.0,0.0,0.0,0.0,0.0,0.0,0.0,0.0,0.0,0.0,0.0,0.0,0.0,0.0,0.0,0.0,0.0,0.0,0.0,0.0,0.0,0.0,0.0,0.0,0.0,0.0,0.0,0.0,0.0,0.0,0.0,0.0,0.0,0.0,0.0,0.0,0.0,0.0,0.0,0.0,0.0,0.0,0.0,0.0,0.0,0.0,0.0,0.0,0.0,-6.1028,-6.1873,0.0,-6.2381,-6.2381,-6.2381,-6.2144,-6.1434,-6.0182,0.0,0.0,0.0,0.0,0.0,0.0,0.0,0.0,0.0,0.0,0.0,0.0,0.0,0.0,0.0,0.0,0.0,0.0,0.0,0.0,0.0,0.0,0.0,0.0,0.0,0.0,0.0,0.0,0.0,0.0,0.0,0.0,0.0,0.0,0.0,0.0,0.0,0.0,0.0,0.0,0.0,0.0,0.0,0.0,0.0,0.0,0.0,0.0,0.0,0.0,0.0,0.0,0.0,0.0,0.0,0.0,0.0,0.0,0.0,0.0,0.0,0.0,0.0,0.0,0.0,0.0,0.0,0.0,0.0,0.0,0.0,0.0,0.0,0.0,0.0,0.0,0.0,0.0,0.0,0.0,0.0,0.0,0.0,0.0,0.0,0.0,0.0,0.0,0.0,0.0,0.0,0.0,0.0,0.0,0.0,0.0,0.0,0.0,0.0,0.0,0.0,0.0,-6.0216,-6.0994,-6.1839,0.0,-6.2381,-6.2381,-6.2381,-6.2178,-6.1501,-6.0182,0.0,0.0,0.0,0.0,0.0,0.0,0.0,0.0,0.0,0.0,0.0,0.0,0.0,0.0,0.0,0.0,0.0,0.0,0.0,0.0,0.0,0.0,0.0,0.0,0.0,0.0,0.0,0.0,0.0,0.0,0.0,0.0,0.0,0.0,0.0,0.0,0.0,0.0,0.0,0.0,0.0,0.0,0.0,0.0,0.0,0.0,0.0,0.0,0.0,0.0,0.0,0.0,0.0,0.0,0.0,0.0,0.0,0.0,0.0,0.0,0.0,0.0,0.0,0.0,0.0,0.0,0.0,0.0,0.0,0.0,0.0,0.0,0.0,0.0,0.0,0.0,0.0,0.0,0.0,0.0,0.0,0.0,0.0,0.0,0.0,0.0,0.0,0.0,0.0,0.0,0.0,0.0,0.0,0.0,0.0,0.0,0.0,0.0,0.0,0.0,0.0,0.0,-6.0216,-6.1434,-6.2381,-6.2381,-6.2381,-6.2381,-6.2381,-6.1738,-6.096,0.0,0.0,0.0,0.0,0.0,0.0,0.0,0.0,0.0,0.0,0.0,0.0,0.0,0.0,0.0,0.0,0.0,0.0,0.0,0.0,0.0,0.0,0.0,0.0,0.0,0.0,0.0,0.0,0.0,0.0,0.0,0.0,0.0,0.0,0.0,0.0,0.0,0.0,0.0,0.0,0.0,0.0,0.0,0.0,0.0,0.0,0.0,0.0,0.0,0.0,0.0,0.0,0.0,0.0,0.0,0.0,0.0,0.0,0.0,0.0,0.0,0.0,0.0,0.0,0.0,0.0,0.0,0.0,0.0,0.0,0.0,0.0,0.0,0.0,0.0,0.0,0.0,0.0,0.0,0.0,0.0,0.0,0.0,0.0,0.0,0.0,0.0,0.0,0.0,0.0,0.0,0.0,0.0,0.0,0.0,0.0,0.0,0.0,0.0,0.0,0.0,0.0,0.0,-6.0216,-6.1434,-6.2381,-6.2381,-6.2381,-6.2381,-6.2381,-6.2178,-6.1501,-6.0182,0.0,0.0,0.0,0.0,0.0,0.0,0.0,0.0,0.0,0.0,0.0,0.0,0.0,0.0,0.0,0.0,0.0,0.0,0.0,0.0,0.0,0.0,0.0,0.0,0.0,0.0,0.0,0.0,0.0,0.0,0.0,0.0,0.0,0.0,0.0,0.0,0.0,0.0,0.0,0.0,0.0,0.0,0.0,0.0,0.0,0.0,0.0,0.0,0.0,0.0,0.0,0.0,0.0,0.0,0.0,0.0,0.0,0.0,0.0,0.0,0.0,0.0,0.0,0.0,0.0,0.0,0.0,0.0,0.0,0.0,0.0,0.0,0.0,0.0,0.0,0.0,0.0,0.0,0.0,0.0,0.0,0.0,0.0,0.0,0.0,0.0,0.0,0.0,0.0,0.0,0.0,0.0,0.0,0.0,0.0,0.0,0.0,0.0,0.0,0.0,0.0,0.0,-6.0148,-6.1434,-6.2381,-6.2381,-6.2381,-6.2381,-6.2381,-6.2381,-6.1873,-6.0655,0.0,0.0,0.0,0.0,0.0,0.0,0.0,0.0,0.0,0.0,0.0,0.0,0.0,0.0,0.0,0.0,0.0,0.0,0.0,0.0,0.0,0.0,0.0,0.0,0.0,0.0,0.0,0.0,0.0,0.0,0.0,0.0,0.0,0.0,0.0,0.0,0.0,0.0,0.0,0.0,0.0,0.0,0.0,0.0,0.0,0.0,0.0,0.0,0.0,0.0,0.0,0.0,0.0,0.0,0.0,0.0,0.0,0.0,0.0,0.0,0.0,0.0,0.0,0.0,0.0,0.0,0.0,0.0,0.0,0.0,0.0,0.0,0.0,0.0,0.0,0.0,0.0,0.0,0.0,0.0,0.0,0.0,0.0,0.0,0.0,0.0,0.0,0.0,0.0,0.0,0.0,0.0,0.0,0.0,0.0,0.0,0.0,0.0,0.0,0.0,0.0,0.0,-6.0114,-6.1434,-6.2381,-6.2381,-6.2381,-6.2381,-6.2381,-6.2381,-6.2076,-6.1366,0.0,0.0,0.0,0.0,0.0,0.0,0.0,0.0,0.0,0.0,0.0,0.0,0.0,0.0,0.0,0.0,0.0,0.0,0.0,0.0,0.0,0.0,0.0,0.0,0.0,0.0,0.0,0.0,0.0,0.0,0.0,0.0,0.0,0.0,0.0,0.0,0.0,0.0,0.0,0.0,0.0,0.0,0.0,0.0,0.0,0.0,0.0,0.0,0.0,0.0,0.0,0.0,0.0,0.0,0.0,0.0,0.0,0.0,0.0,0.0,-6.503,-6.4247,0.0,0.0,0.0,0.0,0.0,0.0,0.0,0.0,0.0,0.0,0.0,0.0,0.0,0.0,0.0,0.0,0.0,0.0,0.0,0.0,0.0,0.0,0.0,0.0,0.0,0.0,0.0,0.0,0.0,0.0,0.0,0.0,0.0,0.0,0.0,0.0,0.0,0.0,0.0,0.0,-6.0114,-6.1434,-6.2381,-6.2381,-6.2381,-6.2381,-6.2381,-6.2381,-6.2076,-6.1366,-6.1129,0.0,0.0,0.0,0.0,0.0,0.0,0.0,0.0,0.0,0.0,0.0,0.0,0.0,0.0,0.0,0.0,0.0,0.0,0.0,0.0,0.0,0.0,0.0,0.0,0.0,0.0,0.0,0.0,0.0,0.0,0.0,0.0,0.0,0.0,0.0,0.0,0.0,0.0,0.0,0.0,0.0,0.0,0.0,0.0,0.0,0.0,0.0,0.0,0.0,0.0,0.0,0.0,0.0,0.0,0.0,0.0,0.0,0.0,0.0,-6.4835,-6.4608,0.0,0.0,0.0,0.0,0.0,0.0,0.0,0.0,0.0,0.0,0.0,0.0,0.0,0.0,0.0,0.0,0.0,0.0,0.0,0.0,0.0,0.0,0.0,0.0,0.0,0.0,0.0,0.0,0.0,0.0,0.0,0.0,0.0,0.0,0.0,0.0,0.0,0.0,0.0,0.0,-6.0622,-6.167,-6.2381,-6.2381,-6.2381,-6.2381,-6.2381,-6.2381,-6.2245,-6.1839,-6.1501,0.0,0.0,0.0,0.0,0.0,0.0,0.0,0.0,0.0,0.0,0.0,0.0,0.0,0.0,0.0,0.0,0.0,0.0,0.0,0.0,0.0,0.0,0.0,0.0,0.0,0.0,0.0,0.0,0.0,0.0,0.0,0.0,0.0,0.0,0.0,0.0,0.0,0.0,0.0,0.0,0.0,0.0,0.0,0.0,0.0,0.0,0.0,0.0,0.0,0.0,0.0,0.0,0.0,-6.5317,-6.5236,-6.5236,-6.5067,-6.4986,-6.4986,-6.502,-6.5284,-6.5595,-6.4377,0.0,0.0,0.0,0.0,0.0,0.0,0.0,0.0,0.0,0.0,0.0,0.0,0.0,0.0,0.0,0.0,0.0,0.0,0.0,0.0,0.0,0.0,-6.5155,-6.573,-6.5865,-6.573,-6.5121,0.0,0.0,0.0,0.0,0.0,0.0,0.0,0.0,0.0,0.0,0.0,-6.1231,-6.1941,-6.2381,-6.2381,-6.2381,-6.2381,-6.2381,-6.2381,-6.2381,-6.2381,-6.1704,-6.0994,0.0,0.0,0.0,0.0,0.0,0.0,0.0,0.0,0.0,0.0,0.0,0.0,0.0,0.0,0.0,0.0,0.0,0.0,0.0,0.0,0.0,0.0,0.0,0.0,0.0,0.0,0.0,0.0,0.0,0.0,0.0,0.0,-6.5167,-6.6041,0.0,0.0,0.0,0.0,0.0,0.0,0.0,0.0,0.0,0.0,0.0,0.0,0.0,-6.5386,-6.5936,-6.5895,-6.6154,-6.6592,-6.655,-6.655,-6.655,-6.6508,-6.6508,-6.6474,-6.5873,0.0,-6.5662,-6.5493,0.0,0.0,0.0,0.0,0.0,0.0,0.0,0.0,0.0,0.0,0.0,0.0,0.0,0.0,0.0,0.0,0.0,0.0,0.0,0.0,0.0,0.0,-6.6542,-6.6643,-6.6677,-6.6643,-6.6542,-6.5493,-6.458,-6.4478,-6.3937,-6.3057,0.0,0.0,0.0,0.0,0.0,0.0,-6.1298,-6.1941,-6.2381,-6.2381,-6.2381,-6.2381,-6.2381,-6.2381,-6.2381,-6.2381,-6.1704,-6.1264,-6.1163,-5.9979,0.0,0.0,0.0,0.0,0.0,0.0,0.0,0.0,0.0,0.0,0.0,0.0,0.0,0.0,0.0,0.0,0.0,0.0,0.0,0.0,0.0,0.0,0.0,0.0,0.0,0.0,0.0,0.0,0.0,-6.4876,-6.5635,-6.6428,-6.6152,-6.5738,0.0,0.0,0.0,0.0,0.0,0.0,0.0,0.0,0.0,-6.5801,-6.5796,-6.6091,-6.667,-6.667,-6.6716,-6.6812,-6.6812,-6.6812,-6.6812,-6.6812,-6.6812,-6.6779,-6.6474,-6.6305,-6.6305,-6.5865,-6.5696,-6.5628,0.0,0.0,0.0,0.0,-6.414,-6.4174,-6.4478,-6.5087,-6.5628,-6.5324,0.0,0.0,0.0,0.0,0.0,0.0,0.0,-6.4681,-6.5121,-6.5696,-6.6305,-6.6711,-6.6812,-6.6812,-6.6812,-6.6305,-6.5595,-6.4749,-6.4343,-6.3531,-6.1637,-6.1298,0.0,0.0,0.0,-6.1467,-6.1873,-6.2178,-6.2381,-6.2381,-6.2381,-6.2381,-6.2381,-6.2381,-6.2212,-6.1806,-6.1467,-6.0926,-6.0047,-5.9776,-5.9032,0.0,0.0,0.0,0.0,0.0,0.0,0.0,0.0,0.0,0.0,0.0,0.0,0.0,0.0,0.0,0.0,0.0,0.0,0.0,0.0,0.0,0.0,0.0,0.0,0.0,0.0,0.0,0.0,-6.5393,-6.6152,-6.6911,-6.6669,-6.6393,0.0,0.0,0.0,0.0,0.0,0.0,-6.5612,-6.5612,-6.5875,-6.6385,-6.6419,-6.665,-6.7097,-6.7097,-6.7014,-6.6812,-6.6812,-6.6812,-6.6812,-6.6812,-6.6812,-6.6812,-6.6812,-6.6812,-6.6779,-6.6203,-6.5967,-6.5967,-6.5764,-6.5358,-6.4884,-6.4884,-6.4884,-6.4918,-6.5087,-6.5527,-6.5967,-6.5967,-6.5967,-6.5933,-6.5764,0.0,0.0,0.0,0.0,-6.5019,-6.5561,-6.5831,-6.6102,-6.6677,-6.6812,-6.6812,-6.6812,-6.6677,-6.6203,-6.5087,-6.4715,-6.3971,-6.1941,-6.1569,0.0,-6.1332,0.0,-6.1772,-6.2313,-6.2381,-6.2381,-6.2381,-6.2381,-6.2381,-6.2381,-6.2381,-6.2144,-6.1603,-6.14,-6.0689,-5.9336,-5.9641,-5.8852,-5.6814,0.0,0.0,0.0,0.0,0.0,0.0,0.0,0.0,0.0,0.0,0.0,0.0,0.0,0.0,0.0,0.0,0.0,0.0,0.0,0.0,0.0,0.0,0.0,0.0,0.0,0.0,0.0,0.0,0.0,-6.6911,-6.7566,0.0,0.0,0.0,0.0,-6.5534,-6.5304,-6.5449,-6.5922,-6.5956,-6.6214,-6.6787,-6.6745,-6.6779,-6.6812,-6.6812,-6.6812,-6.6812,-6.6812,-6.6812,-6.6812,-6.6812,-6.6812,-6.6812,-6.6812,-6.6812,-6.6812,-6.6779,-6.6745,-6.6677,-6.5967,-6.5662,-6.5628,-6.5628,-6.5628,-6.573,-6.644,-6.6711,-6.6745,-6.6745,-6.6745,-6.6609,-6.5899,-6.5662,0.0,0.0,-6.5087,-6.5628,-6.5662,-6.6203,-6.6779,-6.6812,-6.6812,-6.6812,-6.6812,-6.6237,-6.573,-6.5662,-6.5087,-6.4106,-6.2584,0.0,-6.211,-6.14,-6.1907,-6.2347,-6.2381,-6.2381,-6.2381,-6.2381,-6.2381,-6.2381,-6.2381,-6.2381,-6.2381,-6.2347,-6.167,-6.0926,-6.008,-5.9404,-5.8287,-5.6658,-5.6771,0.0,0.0,0.0,0.0,0.0,0.0,0.0,0.0,0.0,0.0,0.0,0.0,0.0,0.0,0.0,0.0,0.0,0.0,0.0,0.0,0.0,0.0,0.0,0.0,0.0,0.0,0.0,0.0,-6.6911,-6.6986,0.0,-6.6819,-6.6468,-6.6205,-6.6018,-6.6336,-6.6582,-6.6772,-6.6772,-6.675,-6.6812,-6.6812,-6.6812,-6.6812,-6.6812,-6.6812,-6.6812,-6.6812,-6.6812,-6.6812,-6.6812,-6.6812,-6.6812,-6.6812,-6.6812,-6.6812,-6.6812,-6.6812,-6.6779,-6.6508,-6.6406,-6.6406,-6.6406,-6.6406,-6.644,-6.6711,-6.6812,-6.6812,-6.6812,-6.6812,-6.6779,-6.6508,-6.6406,-6.6339,-6.6102,-6.6203,-6.6406,-6.6406,-6.6609,-6.6812,-6.6812,-6.6812,-6.6677,-6.6203,-6.5865,-6.5425,-6.4478,-6.4072,-6.3565,-6.255,-6.2381,-6.2313,-6.2042,-6.2212,-6.2381,-6.2381,-6.2381,-6.2381,-6.2381,-6.2381,-6.2381,-6.2381,-6.2381,-6.1941,-6.0846,-6.1088,-6.0695,-5.9237,-5.9506,-5.9186,-5.8144,-5.7653,-5.678,0.0,0.0,0.0,0.0,0.0,0.0,0.0,0.0,0.0,0.0,0.0,0.0,0.0,0.0,0.0,0.0,0.0,0.0,0.0,0.0,0.0,0.0,0.0,0.0,0.0,-6.5623,-6.6234,-6.6828,-6.6833,-6.6844,-6.6959,-6.6636,-6.6439,-6.6602,-6.6874,-6.7056,-6.7056,-6.7056,-6.698,-6.6812,-6.6812,-6.6812,-6.6812,-6.6812,-6.6812,-6.6812,-6.6812,-6.6812,-6.6812,-6.6812,-6.6812,-6.6812,-6.6812,-6.6812,-6.6812,-6.6812,-6.6812,-6.6812,-6.6812,-6.6812,-6.6812,-6.6812,-6.6812,-6.6812,-6.6812,-6.6812,-6.6812,-6.6812,-6.6812,-6.6812,-6.6812,-6.6812,-6.6812,-6.6812,-6.6812,-6.6812,-6.6812,-6.6812,-6.6812,-6.6812,-6.6812,-6.6677,-6.617,-6.5865,-6.5392,-6.4444,-6.3869,-6.3294,-6.2516,-6.2381,-6.2381,-6.2381,-6.2381,-6.2381,-6.2381,-6.2381,-6.2381,-6.2381,-6.2381,-6.2381,-6.2381,-6.2381,-6.1908,-6.0805,-6.1013,-6.0717,-5.9598,-5.9605,-5.929,-5.8585,-5.7481,-5.6309,-5.5152,0.0,0.0,0.0,0.0,0.0,0.0,0.0,0.0,0.0,0.0,0.0,0.0,0.0,0.0,0.0,0.0,0.0,0.0,0.0,0.0,0.0,0.0,0.0,-6.5807,-6.6531,-6.6936,-6.6775,-6.7353,-6.7678,-6.7475,-6.7304,-6.718,-6.718,-6.6972,-6.6812,-6.6812,-6.6812,-6.6812,-6.6812,-6.6812,-6.6812,-6.6812,-6.6812,-6.6812,-6.6812,-6.6812,-6.6812,-6.6812,-6.6812,-6.6812,-6.6812,-6.6812,-6.6812,-6.6812,-6.6812,-6.6812,-6.6812,-6.6812,-6.6812,-6.6812,-6.6812,-6.6812,-6.6812,-6.6812,-6.6812,-6.6812,-6.6812,-6.6812,-6.6812,-6.6812,-6.6812,-6.6812,-6.6812,-6.6812,-6.6812,-6.6812,-6.6812,-6.6812,-6.6812,-6.6812,-6.6812,-6.6779,-6.6203,-6.5662,-6.5662,-6.4512,-6.3328,-6.2584,-6.2448,-6.2448,-6.2448,-6.2448,0.0,-6.2448,-6.2448,-6.2448,-6.2415,-6.2448,-6.2448,-6.2415,-6.2415,-6.2415,-6.2375,-6.1513,-6.1098,-6.125,-5.9664,-5.8429,-5.7701,-5.6148,-5.4902,-5.3976,0.0,0.0,0.0,0.0,0.0,0.0,0.0,0.0,0.0,0.0,0.0,0.0,0.0,0.0,0.0,0.0,0.0,0.0,0.0,0.0,0.0,-6.586,-6.623,-6.6436,-6.649,-6.6719,-6.7422,-6.7257,-6.7105,-6.7263,-6.7056,-6.6896,-6.6896,-6.6854,-6.6812,-6.6812,-6.6812,-6.6812,-6.6812,-6.6812,-6.6812,-6.6812,-6.6812,-6.6812,-6.6812,-6.6812,-6.6812,-6.6812,-6.6812,-6.6812,-6.6812,-6.6812,-6.6812,-6.6812,-6.6812,-6.6812,-6.6812,-6.6812,-6.6812,-6.6812,-6.6812,-6.6812,-6.6812,-6.6812,-6.6812,-6.6812,-6.6812,-6.6812,-6.6812,-6.6812,-6.6812,-6.6812,-6.6812,-6.6812,-6.6812,-6.6812,-6.6812,-6.6812,-6.6812,-6.6812,-6.6677,-6.6102,-6.5831,-6.5527,-6.5019,-6.458,-6.4241,-6.4038,-6.4005,-6.4005,-6.4005,-6.4005,0.0,-6.4005,-6.4005,-6.3802,-6.326,-6.3666,-6.3768,-6.326,-6.3193,-6.2879,-6.224,-6.2058,-6.1413,-6.0102,-6.0282,-5.9371,-5.7332,-5.7077,-5.5953,0.0,0.0,0.0,0.0,0.0,0.0,0.0,0.0,0.0,0.0,0.0,0.0,0.0,0.0,0.0,0.0,0.0,0.0,0.0,0.0,0.0,0.0,-6.6068,-6.6645,-6.6873,-6.6826,-6.7003,-6.7569,-6.7229,-6.698,-6.7056,-6.6896,-6.6812,-6.6812,-6.6812,-6.6812,-6.6812,-6.6812,-6.6812,-6.6812,-6.6812,-6.6812,-6.6812,-6.6812,-6.6812,-6.6812,-6.6812,-6.6812,-6.6812,-6.6812,-6.6812,-6.6812,-6.6812,-6.6812,-6.6812,-6.6812,-6.6812,-6.6812,0.0,0.0,0.0,0.0,-6.6812,-6.6812,-6.6812,-6.6812,-6.6812,-6.6812,-6.6812,-6.6812,-6.6812,-6.6812,-6.6812,-6.6812,-6.6812,-6.6812,-6.6812,-6.6812,-6.6812,-6.6812,-6.6812,-6.6677,-6.6237,-6.617,-6.6034,-6.5595,-6.5527,0.0,-6.5527,-6.5019,-6.4613,-6.4613,-6.4613,-6.4613,-6.4613,-6.4613,-6.4444,-6.4005,-6.4343,-6.4444,-6.4005,-6.3971,0.0,0.0,0.0,-6.0732,-5.8594,-5.9811,0.0,0.0,0.0,-5.6018,-5.422,-5.3858,0.0,0.0,-5.2121,-5.1559,0.0,0.0,0.0,0.0,0.0,0.0,0.0,0.0,0.0,0.0,0.0,0.0,0.0,0.0,0.0,0.0,-6.5812,-6.6602,-6.7161,-6.7346,-6.7435,-6.7435,-6.7304,-6.7097,-6.6812,-6.6812,-6.6812,-6.6812,-6.6812,-6.6812,-6.6812,-6.6812,0.0,0.0,0.0,-6.6812,-6.6812,-6.6812,-6.6812,-6.6812,-6.6812,-6.6812,-6.6812,-6.6812,-6.6812,-6.6812,-6.6812,-6.6812,-6.6812,-6.6812,-6.6812,-6.6812,-6.6812,-6.6812,-6.6812,-6.6812,-6.6812,-6.6812,-6.6812,0.0,0.0,-6.6812,-6.6812,-6.6812,-6.6812,-6.6812,-6.6812,-6.6812,-6.6812,-6.6812,-6.6812,-6.6812,-6.6812,-6.6812,-6.6812,-6.6812,-6.6812,-6.6812,-6.6812,-6.6812,-6.6812,-6.6812,-6.6812,-6.573,-6.485,-6.485,-6.485,-6.485,-6.485,-6.485,-6.4816,-6.4715,0.0,0.0,-6.4715,-6.4715,-6.4715,-6.4715,-6.2276,-5.9781,-5.7494,-5.896,-5.8635,-5.6136,-5.6194,-5.5743,-5.4806,-5.4806,-5.4745,-5.4621,-5.2267,-5.1436,0.0,0.0,0.0,0.0,0.0,0.0,0.0,0.0,0.0,0.0,0.0,0.0,0.0,0.0,0.0,-6.5954,-6.6555,-6.7134,-6.7394,-6.7146,-6.7022,-6.7222,-6.7222,-6.7097,-6.6812,-6.6812,-6.6812,-6.6812,-6.6812,-6.6812,-6.6812,-6.6812,-6.6812,-6.6812,-6.6812,-6.6812,-6.6812,-6.6812,-6.6812,-6.6812,-6.6812,0.0,-6.6812,-6.6812,-6.6812,-6.6812,-6.6812,-6.6812,-6.6812,-6.6812,-6.6812,-6.6812,-6.6812,-6.6812,-6.6812,-6.6812,-6.6812,-6.6812,-6.6812,-6.6812,-6.6812,-6.6812,-6.6812,-6.6812,-6.6812,-6.6812,0.0,-6.6812,-6.6812,-6.6812,-6.6812,-6.6812,-6.6812,-6.6812,-6.6812,-6.6812,-6.6812,-6.6812,-6.6812,-6.6812,-6.6812,-6.6812,-6.6812,-6.6576,-6.6373,-6.6373,-6.6373,-6.6373,-6.6373,-6.6373,-6.617,-6.5527,-6.6034,-6.6136,-6.5527,-6.5493,-6.5493,-6.5493,-6.2958,-6.1064,-6.0044,-5.9594,-5.8496,-5.6696,-5.7385,-5.701,-5.5499,-5.5499,-5.5253,-5.4683,-5.416,-5.3714,0.0,0.0,0.0,0.0,0.0,0.0,0.0,0.0,0.0,0.0,0.0,-6.4695,0.0,0.0,-6.5902,-6.595,-6.6588,-6.7022,-6.7146,-6.7063,-6.7056,-6.718,-6.7097,-6.6972,-6.6812,-6.6812,-6.6812,-6.6812,-6.6812,-6.6812,-6.6812,-6.6812,-6.6812,-6.6812,-6.6812,-6.6812,-6.6812,-6.6812,-6.6812,-6.6812,-6.6812,-6.6812,-6.6812,-6.6812,-6.6812,-6.6812,-6.6812,-6.6812,-6.6812,-6.6812,-6.6812,-6.6812,-6.6812,-6.6812,-6.6812,-6.6812,-6.6812,-6.6812,-6.6812,-6.6812,-6.6812,-6.6812,-6.6812,-6.6812,-6.6812,-6.6812,-6.6812,-6.6812,-6.6812,-6.6812,-6.6812,-6.6812,-6.6812,-6.6812,-6.6812,-6.6812,-6.6812,-6.6812,-6.6812,-6.6812,-6.6812,-6.6812,-6.6812,-6.6812,-6.6812,-6.6812,-6.6812,-6.6812,-6.6812,-6.6812,-6.6677,-6.6305,-6.6576,-6.6677,-6.6271,-6.6237,-6.5901,-6.5076,-6.4205,-6.2771,-6.0569,-6.0444,-5.9459,-5.7333,-5.7755,-5.7414,-5.6238,-5.6238,-5.6053,-5.5745,-5.5745,-5.5191,0.0,0.0,0.0,0.0,0.0,0.0,0.0,-6.551,-6.502,-6.5026,-6.5019,-6.5019,-6.5019,-6.5493,-6.5899,-6.5899,-6.6406,-6.6812,-6.6812,-6.7014,-6.7097,-6.7097,-6.7014,-6.6854,-6.6812,-6.6812,-6.6812,-6.6812,-6.6812,-6.6812,-6.6812,-6.6812,-6.6812,-6.6812,-6.6812,-6.6812,-6.6812,-6.6812,-6.6812,-6.6812,-6.6812,-6.6812,-6.6812,-6.6812,-6.6812,-6.6812,-6.6812,-6.6812,-6.6812,-6.6812,-6.6812,-6.6812,-6.6812,-6.6812,-6.6812,-6.6812,-6.6812,-6.6812,-6.6812,-6.6812,-6.6812,-6.6812,-6.6812,-6.6812,-6.6812,-6.6812,-6.6812,-6.6812,-6.6812,-6.6812,-6.6812,-6.6812,-6.6812,-6.6812,-6.6812,-6.6812,-6.6812,-6.6812,-6.6812,-6.6812,-6.6812,-6.6812,-6.6812,-6.6812,-6.6812,-6.6812,-6.6812,-6.6812,-6.6812,-6.6812,-6.6812,-6.6812,-6.6812,-6.6812,-6.6812,-6.6812,-6.6213,-6.489,-6.5115,-6.4057,-6.1212,-6.1274,-6.0392,-5.8355,-5.811,-5.7672,-5.6994,-5.6994,-5.6933,-5.681,-5.681,-5.6115,-6.851,-6.8299,-6.8137,-6.7143,-6.7377,-6.7717,0.0,0.0,-6.6627,-6.6573,-6.6576,-6.6576,-6.6576,-6.6643,-6.6677,-6.6677,-6.6779,-6.6812,-6.6812,-6.6812,-6.6854,-6.6854,-6.7056,-6.7056,-6.6812,-6.6812,-6.6812,-6.6812,-6.6812,-6.6812,-6.6812,-6.6812,-6.6812,-6.6812,-6.6812,-6.6812,-6.6812,-6.6812,-6.6812,-6.6812,-6.6812,-6.6812,-6.6812,-6.6812,-6.6812,-6.6812,-6.6812,-6.6812,-6.6812,-6.6812,-6.6812,-6.6812,-6.6812,-6.6812,-6.6812,-6.6812,-6.6812,-6.6812,-6.6812,-6.6812,-6.6812,-6.6812,-6.6812,-6.6812,-6.6812,-6.6812,-6.6812,-6.6812,-6.6812,-6.6812,-6.6812,-6.6812,-6.6812,-6.6812,-6.6812,-6.6812,-6.6812,-6.6812,-6.6812,-6.6812,-6.6812,-6.6812,-6.6812,-6.6812,-6.6812,-6.6812,-6.6812,-6.6812,-6.6812,-6.6812,-6.6812,-6.6812,-6.6812,-6.6812,-6.6812,-6.6812,-6.6736,-6.6551,-6.4937,-6.3943,-6.3837,-6.1392,-6.0017,-5.9996,-5.9135,-5.8331,-5.7703,-5.7703,-5.7395,-5.681,-5.681,-5.6378,-6.9675,-6.9325,-6.9061,-6.9476,-6.8868,-6.8152,-6.8239,-6.761,-6.7025,-6.6829,-6.6896,-6.7014,-6.6812,-6.6812,-6.6854,0.0,-6.6896,-6.6854,-6.7014,-6.6896,-6.6812,-6.6812,-6.6896,-6.6896,-6.6812,-6.6812,-6.6812,-6.6812,-6.6812,-6.6812,-6.6812,-6.6812,-6.6812,-6.6812,-6.6812,-6.6812,-6.6812,-6.6812,-6.6812,-6.6812,-6.6812,-6.6812,-6.6812,-6.6812,-6.6812,-6.6812,-6.6812,-6.6812,-6.6812,-6.6812,-6.6812,-6.6812,-6.6812,-6.6812,-6.6812,-6.6812,-6.6812,-6.6812,-6.6812,-6.6812,-6.6812,-6.6812,-6.6812,-6.6812,-6.6812,-6.6812,-6.6812,-6.6812,-6.6812,-6.6812,-6.6812,-6.6812,-6.6812,-6.6812,-6.6812,-6.6812,-6.6812,-6.6812,-6.6812,-6.6812,-6.6812,-6.6812,-6.6812,-6.6812,-6.6812,-6.6812,-6.6812,-6.6812,-6.6812,-6.6812,-6.6812,-6.6812,-6.6812,-6.6812,-6.6812,-6.6812,-6.6812,-6.6812,-6.6019,-6.5071,-6.4067,-6.2779,-6.1432,-6.0017,-5.9599,-5.9039,-5.8362,-5.8362,-5.8258,-5.798,-5.798,-5.7611,-6.9798,-6.9586,-6.9514,-7.0869,-7.0168,-6.9141,-6.9242,-6.8559,-6.7725,-6.7063,-6.7139,-6.718,-6.6854,-6.6896,-6.7022,-6.7097,-6.7014,-6.7014,-6.718,-6.6972,-6.6812,-6.6896,-6.6854,-6.6812,-6.6812,-6.6812,-6.6812,-6.6812,-6.6812,-6.6812,-6.6812,-6.6812,-6.6812,-6.6812,-6.6812,-6.6812,-6.6812,-6.7015,-6.7117,-6.7117,-6.7354,-6.7455,-6.7455,-6.7455,-6.7455,-6.7455,-6.7455,-6.7455,-6.7455,-6.7455,-6.7455,-6.7421,-6.7218,-6.7117,-6.7083,-6.688,-6.6812,-6.6812,-6.6812,-6.6812,-6.6812,-6.6812,-6.6812,-6.6812,-6.6812,-6.6812,-6.6812,-6.6812,-6.6812,-6.6812,-6.6812,-6.6812,-6.6812,-6.6812,-6.6812,-6.6812,-6.6812,-6.6812,-6.6812,-6.6812,-6.6812,-6.6812,-6.6812,-6.6812,-6.6812,-6.6812,-6.6812,-6.6812,-6.6812,-6.6812,-6.6812,-6.6812,-6.6812,-6.6812,-6.6812,-6.6812,-6.6812,-6.6812,-6.6525,-6.5855,-6.4675,-6.4124,-6.2908,-6.0952,-6.0902,-6.0291,-5.907,-5.934,-5.9247,-5.8793,-5.8793,-5.8516,-6.8189,-6.8422,-6.8901,-7.0132,-7.1132,-7.1485,-6.9849,-6.96,-6.9237,-6.7557,-6.7346,-6.7353,-6.6896,-6.7146,-6.7312,-6.6896,-6.7014,-6.718,-6.718,-6.6972,-6.6896,-6.7139,-6.6972,-6.6812,0.0,-6.6812,-6.6812,-6.6812,-6.6812,-6.6812,-6.6812,-6.6812,-6.6812,-6.6812,-6.6812,-6.6812,-6.6812,-6.7523,-6.7861,-6.7895,-6.8673,-6.9045,-6.9045,-6.9045,-6.9045,-6.9045,-6.9045,-6.9045,-6.9045,-6.9045,-6.9045,-6.8944,-6.8166,-6.7861,-6.7793,-6.7083,-6.6812,-6.6812,-6.6812,-6.6812,-6.6812,-6.6812,-6.6812,-6.6812,-6.6812,-6.6812,-6.6812,-6.6812,-6.6812,-6.6812,-6.6812,-6.6812,-6.6812,-6.6812,-6.6812,-6.6812,-6.6812,-6.6812,-6.6812,-6.6812,-6.6812,-6.6812,-6.6812,-6.6812,-6.6812,-6.6812,-6.6812,-6.6812,-6.6812,-6.6812,-6.6812,-6.6812,-6.6812,-6.6812,-6.6812,-6.6812,-6.6812,-6.6812,-6.5855,-6.5767,-6.6686,-6.4844,-6.3764,-6.3671,-6.3671,-6.2396,-5.9747,-6.0738,-6.0393,-5.8793,-5.8793,-5.8762,0.0,0.0,-7.042,-7.1126,-7.1313,-7.1135,-7.0575,-7.0095,-6.9492,-6.8366,-6.7791,-6.7246,-6.6439,-6.6112,-6.6023,-6.6248,-6.6439,-6.6732,-6.7154,-6.7097,-6.7056,-6.6972,-6.6854,0.0,0.0,0.0,0.0,-6.6812,-6.6812,-6.6812,-6.6812,-6.6812,-6.7015,-6.7523,-6.7523,-6.7793,-6.8335,-6.8571,-6.8707,-6.8707,-6.8977,-6.9113,-6.9113,-6.9113,-6.9113,-6.9113,-6.9113,-6.9113,-6.9113,-6.9113,-6.9113,-6.9079,-6.8808,-6.8707,-6.8673,-6.8436,-6.8335,-6.8199,-6.7151,-6.6812,-6.6812,-6.6812,-6.6812,-6.6812,-6.6812,-6.6812,-6.6812,-6.6812,-6.6812,-6.6812,-6.6812,-6.6812,-6.6812,-6.6812,-6.6812,-6.6812,-6.6812,-6.6812,-6.6812,-6.6812,-6.6812,-6.6812,-6.6812,-6.6812,-6.6812,-6.6812,-6.6812,-6.6812,-6.6812,-6.6812,-6.6812,-6.6812,-6.6812,-6.6812,-6.6812,-6.6812,-6.6812,-6.6812,-6.6482,-6.6148,-6.5811,-6.5159,-6.4492,-6.3844,-6.3132,-6.239,-6.1458,-6.1138,-6.0659,-6.0116,-6.0116,-5.987,0.0,-6.9945,-7.0412,-7.1241,-7.0967,-7.0464,-7.021,-7.003,-6.9596,-6.8501,-6.7961,-6.738,-6.6259,-6.5725,-6.5573,-6.5929,-6.6268,-6.6621,-6.712,-6.7263,-6.7222,-6.6972,-6.6938,-6.6896,0.0,0.0,0.0,-6.6812,-6.6812,-6.6812,-6.6812,-6.7049,-6.7421,-6.7895,-6.8166,-6.8571,-6.9079,-6.935,-6.962,-6.9891,-6.9891,-6.9891,-6.9891,-6.9891,-6.9891,-6.9891,-6.9891,-6.9891,-6.9891,-6.9891,-6.9891,-6.9857,-6.9586,-6.9485,-6.9451,-6.9214,-6.9113,-6.8977,-6.7963,-6.7624,-6.7624,-6.7624,-6.7455,-6.7184,-6.7184,-6.7015,-6.6812,-6.6812,-6.6812,-6.6812,-6.6812,-6.6812,-6.6812,-6.6812,-6.6812,-6.6812,-6.6812,-6.6812,-6.6812,-6.6812,-6.6812,-6.6812,-6.6812,-6.6812,-6.6812,-6.6812,-6.6812,-6.6812,-6.6812,-6.6812,-6.6812,-6.6812,-6.6812,-6.6812,-6.6812,-6.6812,-6.6812,-6.6812,-6.6812,-6.6525,-6.5855,-6.5811,-6.5337,-6.4355,-6.4031,-6.3404,-6.2319,-6.2022,-6.15,-6.0794,-6.0794,-6.0578,-6.9355,-6.9372,-6.9088,-7.0449,-7.0383,-6.9741,-6.9043,-6.9555,-6.9719,-6.8021,-6.7904,-6.7689,0.0,0.0,-6.5895,-6.5976,-6.6388,-6.6822,-6.7161,-6.7387,-6.7428,-6.7222,-6.718,0.0,-6.6812,-6.6812,0.0,-6.6812,0.0,-6.6846,-6.688,-6.7523,-6.7929,-6.803,-6.8774,-6.918,-6.9214,-6.9891,-7.0601,-7.1312,-7.1312,-7.1312,-7.1312,-7.1312,-7.1312,-7.1312,-7.1312,-7.1312,-7.1312,-7.1312,-7.1312,-7.1244,-7.0534,-7.0263,-7.0161,-6.9485,-6.9214,-6.9214,-6.9214,-6.918,-6.9113,-6.9113,-6.8571,-6.7963,-6.7963,-6.7489,-6.6914,-6.688,-6.688,-6.688,-6.6812,-6.6812,-6.6812,-6.6812,-6.6812,-6.6812,-6.6812,-6.6812,-6.6812,-6.6812,-6.6812,-6.6812,-6.6812,-6.6812,-6.6812,-6.6812,-6.6812,-6.6812,-6.6812,-6.6812,-6.6812,-6.6812,-6.6812,-6.6812,-6.6812,-6.6812,-6.6812,-6.6812,-6.6812,-6.6812,-6.6812,-6.6812,-6.6354,-6.5382,-6.6235,-6.5326,-6.2467,-6.3371,-6.2794,-6.0949,-6.0897,-6.0897,-7.0498,-7.0702,-7.0657,-7.0953,-7.0527,-6.9989,-6.9819,-6.9879,-6.9718,-6.8822,-6.8147,-6.7305,-6.5863,-6.5685,0.0,-6.5436,-6.6249,0.0,-6.7407,-6.7469,0.0,-6.7222,-6.718,-6.7097,-6.6812,-6.7014,-6.7014,0.0,-6.6812,-6.7049,-6.759,-6.7793,-6.8436,-6.9586,-6.9789,-7.0161,-7.0737,-7.0939,-7.1109,-7.1312,-7.1312,-7.1312,-7.1312,-7.1312,-7.1312,-7.1312,-7.1312,-7.1312,-7.1312,-7.1312,-7.1312,-7.1312,-7.1109,-7.1041,-7.1007,-7.0838,-7.0737,-7.0737,-7.0737,-7.0026,-6.9113,-6.9113,-6.8977,-6.8808,-6.8808,-6.8673,-6.8402,-6.7793,-6.7624,-6.7489,-6.6948,-6.6812,-6.6812,-6.6812,-6.6812,-6.6812,-6.6812,-6.6812,-6.6812,-6.6812,-6.6812,-6.6812,-6.6812,-6.6812,-6.6812,-6.6812,-6.6812,-6.6812,-6.6812,-6.6812,-6.6812,-6.6812,-6.6812,-6.6812,-6.6812,-6.6812,-6.6812,-6.6812,-6.6812,-6.6812,-6.6812,-6.6812,-6.6686,-6.644,-6.5898,-6.5293,-6.4538,-6.4031,-6.3561,-6.2988,-6.227,-6.1953,-7.1427,-7.1264,-7.0742,-7.0657,-6.987,-6.9045,-6.9045,-6.9247,-6.9254,-6.8567,-6.8064,-6.7379,-6.624,-6.5863,-6.5719,0.0,0.0,0.0,-6.7325,-6.7516,-6.7516,-6.7222,-6.718,-6.7097,-6.6812,-6.6972,-6.6972,-6.6812,-6.6812,-6.7117,-6.7861,-6.8233,-6.8977,-7.0161,-7.05,-7.0872,-7.1312,-7.1312,-7.1312,-7.1312,-7.1312,-7.1312,-7.1312,-7.1312,-7.1312,-7.1312,-7.1312,-7.1312,-7.1312,-7.1312,-7.1312,-7.1312,-7.1312,-7.1312,-7.1312,-7.1312,-7.1312,-7.1312,-7.1312,-7.077,-7.006,-7.006,-6.9857,-6.9586,-6.9586,-6.935,-6.9011,-6.8538,-6.8436,-6.8335,-6.7929,-6.7557,-6.7286,-6.7286,-6.7049,-6.6812,-6.6812,-6.6812,-6.6812,-6.6812,-6.6812,-6.6812,-6.6812,-6.6812,-6.6812,-6.6812,-6.6812,-6.6812,-6.6812,-6.6812,-6.6812,-6.6812,-6.6812,-6.6812,-6.6812,-6.6812,-6.6812,-6.6812,-6.6397,-6.6354,-6.677,-6.6397,-6.6354,-6.677,-6.6235,-6.5724,-6.5293,-6.472,-6.4216,-6.3797,-6.3228,-6.2729,-7.2129,-7.1394,-7.022,-7.011,-6.8972,-6.7834,-6.7724,-6.8238,-6.8531,-6.7834,-6.7786,-6.7638,-6.6932,-6.6274,-6.5966,-6.6313,0.0,-6.706,-6.7202,-6.7516,-6.7597,-6.7222,-6.718,-6.7097,-6.6812,-6.6812,-6.6888,-6.6948,-6.6948,-6.7286,-6.803,-6.8808,-6.9586,-7.0297,-7.0973,-7.1312,-7.1312,-7.1312,-7.1312,-7.1312,-7.1312,-7.1312,-7.1312,-7.1312,-7.1312,-7.1312,-7.1312,-7.1312,-7.1312,-7.1312,-7.1312,-7.1312,-7.1312,-7.1312,-7.1312,-7.1312,-7.1312,-7.1312,-7.1312,-7.1312,-7.1312,-7.1312,-7.0872,-7.0331,-7.0331,-6.9891,-6.9383,-6.9282,-6.9248,-6.9214,-6.9113,-6.8571,-6.8064,-6.8064,-6.7489,-6.6948,-6.6948,-6.688,-6.6812,-6.6812,-6.6812,-6.6812,-6.6812,-6.6812,-6.6812,-6.6812,-6.6812,-6.6812,-6.6812,-6.6812,-6.6812,-6.6812,-6.6812,-6.6812,-6.6812,-6.6812,-6.6812,-6.6812,-6.5975,-6.5898,-6.677,-6.5975,-6.5932,-6.677,-6.6812,-6.6397,-6.5504,-6.5504,-6.5069,-6.4216,-6.4077,-6.3514,-7.2422,-7.1835,-7.0954,-7.0257,-6.9376,-6.8531,-6.7834,-6.7797,0.0,-6.7724,-6.7716,-6.7547,-6.6921,-6.6672,-6.6634,-6.6626,-6.6824,-6.7099,-6.7407,-6.7475,-6.7435,0.0,-6.718,-6.7097,-6.6812,-6.7014,0.0,0.0,-6.7726,-6.8064,-6.8842,-6.9586,-7.0331,-7.1109,-7.1244,-7.1312,-7.1312,-7.1312,-7.1312,-7.1312,-7.1312,-7.1312,-7.1312,-7.1312,-7.1312,-7.1312,-7.1312,0.0,-7.1312,-7.1312,-7.1312,-7.1312,-7.1312,-7.1312,-7.1312,-7.1312,-7.1312,-7.1312,-7.1312,-7.1312,-7.1312,-7.1312,-7.121,-7.1109,-7.1109,-7.1041,-7.0804,-7.0161,-6.9992,-6.9857,-6.9248,-6.9011,-6.8876,-6.8876,-6.8301,-6.7726,-6.7726,-6.7252,-6.6812,-6.6812,-6.6812,-6.6812,-6.6812,-6.6812,-6.6812,-6.6812,-6.6812,-6.6812,-6.6812,-6.6812,-6.6812,-6.6812,-6.6812,-6.6812,-6.6812,-6.6812,-6.6812,-6.6812,-6.6643,-6.6643,-6.677,-6.6643,-6.661,-6.6812,-6.6812,-6.6728,-6.6525,-6.6525,-6.644,-6.6235,-6.5426,-6.4979,-7.1982,-7.1615,-7.1211,-7.0844,-7.011,-6.9302,-6.8495,0.0,0.0,-6.7797,-6.7687,-6.7597,-6.7389,-6.7254,-6.7207,-6.7206,-6.733,-6.7454,-6.7495,-6.751,-6.7428,-6.7222,-6.7097,-6.6938,-6.6812,-6.7235,-6.765,-6.7861,-6.8639,-6.9248,-6.9654,-7.0364,-7.0939,-7.1312,-7.1312,-7.1312,-7.1312,-7.1312,-7.1312,-7.1312,-7.1312,-7.1312,-7.1312,-7.1312,-7.1312,-7.1312,-7.1312,-7.1312,-7.1312,-7.1312,-7.1312,-7.1312,-7.1312,-7.1312,-7.1312,-7.1312,-7.1312,-7.1312,-7.1312,-7.1312,-7.1312,-7.1312,-7.1312,-7.1312,-7.1312,-7.1312,-7.1244,-7.0872,-7.077,-7.0703,-7.0364,-6.9958,-6.9654,-6.9654,-6.8741,-6.7895,-6.7895,-6.732,-6.6812,-6.6812,-6.6812,-6.6812,-6.6812,-6.6812,-6.6812,-6.6812,-6.6812,-6.6812,-6.6812,-6.6812,-6.6812,-6.6812,-6.6812,-6.6812,-6.6812,-6.6812,-6.6812,-6.6812,-6.6311,-6.6235,-6.677,-6.6311,-6.6019,-6.6019,-6.6019,-6.6019,-6.6019,-6.5504,-6.5504,-6.6019,-6.4979,-6.4216,-7.1688,-7.155,-7.1541,-7.1329,-7.0844,-7.011,-6.9119,-6.8898,0.0,-6.7871,-6.7687,-6.7744,-6.7781,-6.742,-6.7221,-6.7652,-6.7457,-6.7284,-6.7414,-6.7428,-6.7346,-6.7139,-6.693,0.0,-6.6812,-6.7489,0.0,-6.8132,-6.9553,-7.0432,-7.0432,-7.1007,-7.1312,-7.1312,-7.1312,-7.1312,-7.1312,-7.1312,-7.1312,-7.1312,-7.1312,-7.1312,-7.1312,-7.1312,-7.1312,-7.1312,-7.1312,-7.1312,-7.1312,-7.1312,-7.1312,-7.1312,-7.1312,-7.1312,-7.1312,-7.1312,-7.1312,-7.1312,-7.1312,-7.1312,-7.1312,-7.1312,-7.1312,-7.1312,-7.1312,-7.1312,-7.1312,-7.1312,-7.1312,-7.1312,-7.1312,-7.0872,-7.0398,-7.0229,-6.9248,-6.8301,-6.7963,-6.7455,-6.7015,-6.6846,-6.6812,-6.6812,-6.6812,-6.6812,-6.6812,-6.6812,-6.6812,-6.6812,-6.6812,-6.6812,-6.6812,-6.6812,-6.6812,-6.6812,-6.6812,-6.6812,-6.6812,-6.6812,-6.6062,-6.5975,-6.677,-6.6062,-6.5636,-6.5636,-6.5636,-6.5548,-6.5293,-6.4492,-6.4401,-6.4979,-6.417,-6.3371,-7.2202,-7.2386,-7.2202,-7.1505,-7.1219,-7.0807,-6.9265,0.0,-6.8678,-6.7871,-6.7687,-6.7744,-6.7781,-6.6545,-6.5986,-6.7473,-6.6439,-6.5875,-6.7059,-6.7222,-6.7139,-6.6854,0.0,0.0,-6.6812,-6.7489,-6.8199,-6.8944,-7.0364,-7.121,-7.121,-7.1278,-7.1312,-7.1312,-7.1312,-7.1312,-7.1312,-7.1312,-7.1312,-7.1312,-7.1312,-7.1312,-7.1312,-7.1312,-7.1312,-7.1312,-7.1312,-7.1312,0.0,-7.1312,-7.1312,-7.1312,-7.1312,-7.1312,-7.1312,-7.1312,-7.1312,-7.1312,-7.1312,-7.1312,-7.1312,-7.1312,-7.1312,-7.1312,-7.1312,-7.1312,-7.1312,-7.1312,-7.1312,-7.1312,-7.1312,-7.1278,-7.1041,-7.0364,-7.0094,-6.9586,-6.8199,-6.7861,-6.759,-6.6948,-6.6812,-6.6812,-6.6812,-6.6812,-6.6812,-6.6812,-6.6812,-6.6812,-6.6812,-6.6812,-6.6812,-6.6812,-6.6812,-6.6812,-6.6812,-6.6812,-6.6812,-6.6812,-6.6728,-6.6728,-6.6812,-6.6728,-6.6686,-6.6686,-6.6686,-6.6192,-6.5293,-6.5204,-6.472,-6.3937,-6.3844,-6.375,-7.1101,-7.1762,-7.2422,-7.2092,-7.2018,-7.1615,-7.0,0.0,-6.9265,-6.7944,-6.7687,-6.7707,-6.7752,-6.7128,-6.6721,-6.6912,-6.6706,0.0,-6.6494,-6.6908,-6.7097,-6.6812,-6.6812,-6.6981,0.0,0.0,-6.9113,-7.0331,-7.0973,-7.1312,-7.1312,-7.1312,-7.1312,-7.1312,-7.1312,-7.1312,-7.1312,-7.1312,-7.1312,-7.1312,-7.1312,-7.1312,-7.1312,-7.1312,-7.1312,-7.1312,-7.1312,-7.1312,0.0,-7.1312,-7.1312,-7.1312,-7.1312,-7.1312,-7.1312,-7.1312,-7.1312,-7.1312,-7.1312,-7.1312,-7.1312,-7.1312,-7.1312,-7.1312,-7.1312,-7.1312,-7.1312,-7.1312,-7.1312,-7.1312,-7.1312,-7.1312,-7.1244,-7.0939,-7.0534,-7.0026,-6.9417,-6.8538,-6.7793,-6.7523,-6.7117,-6.6812,-6.6812,-6.6812,-6.6812,-6.6812,-6.6812,-6.6812,-6.6812,-6.6812,-6.6812,-6.6812,-6.6812,-6.6812,-6.6812,-6.6812,-6.6812,-6.6812,-6.6812,-6.6812,-6.6812,-6.6812,-6.6525,-6.5932,-6.5898,-6.5724,-6.5293,-6.4077,-6.3609,-6.3797,-6.2583,-6.2022,-7.0477,-7.1284,-7.2202,-7.2459,-7.2312,-7.1798,0.0,0.0,-6.9339,-6.7981,-6.7687,-6.7687,-6.7687,-6.7405,-6.7026,-6.6563,0.0,-6.6729,-6.6091,-6.6622,-6.7014,-6.6812,0.0,-6.7117,-6.7827,-6.8842,-6.9958,-7.121,-7.1312,-7.1312,-7.1312,-7.1312,-7.1312,-7.1312,-7.1312,-7.1312,-7.1312,-7.1312,-7.1312,-7.1312,-7.1312,-7.1312,-7.1312,-7.1312,-7.1312,-7.1312,-7.1312,-7.1312,0.0,-7.1312,-7.1312,-7.1312,-7.1312,-7.1312,-7.1312,-7.1312,-7.1312,-7.1312,-7.1312,-7.1312,-7.1312,-7.1312,-7.1312,-7.1312,-7.1312,-7.1312,-7.1312,-7.1312,-7.1312,-7.1312,-7.1312,-7.1312,-7.1312,-7.1312,-7.0906,-7.0466,-7.0229,-6.918,-6.8199,-6.7963,-6.732,-6.6812,-6.6812,-6.6812,-6.6812,-6.6812,-6.6812,-6.6812,-6.6812,-6.6812,-6.6812,-6.6812,-6.6812,-6.6812,-6.6812,-6.6812,-6.6812,-6.6812,-6.6812,-6.6812,-6.6812,-6.6812,-6.6482,-6.5767,-6.5724,-6.5592,-6.5293,-6.3561,-6.2972,-6.3324,-6.1602,-6.0794,-7.0881,-7.1293,-7.1476,-7.2312,-7.1908,-7.1101,0.0,-6.9486,-6.8678,-6.7871,-6.7687,-6.7687,-6.7687,-6.6967,-6.6444,-6.6497,-6.6144,0.0,-6.597,-6.6464,-6.6812,0.0,-6.6812,-6.7117,-6.7827,-6.9282,-7.05,-7.1244,-7.1312,0.0,-7.1312,-7.1312,-7.1312,-7.1312,-7.1312,-7.1312,-7.1312,-7.1312,-7.1312,-7.1312,-7.1312,-7.1312,-7.1312,-7.1312,-7.1312,-7.1312,-7.1312,-7.1312,0.0,-7.1312,-7.1312,-7.1312,-7.1312,-7.1312,-7.1312,-7.1312,-7.1312,-7.1312,-7.1312,-7.1312,-7.1312,-7.1312,-7.1312,-7.1312,-7.1312,-7.1312,-7.1312,-7.1312,-7.1312,-7.1312,-7.1312,-7.1312,-7.1312,-7.1312,-7.1312,-7.1109,-7.0364,-6.962,-6.8842,-6.8064,-6.732,-6.6812,-6.6812,-6.6812,-6.6812,-6.6812,-6.6812,-6.6812,-6.6812,-6.6812,-6.6812,-6.6812,-6.6812,-6.6812,-6.6812,-6.6812,-6.6812,-6.6812,-6.6812,-6.6812,-6.6812,-6.6812,-6.6812,-6.677,-6.677,-6.6278,-6.5293,-6.4262,-6.3276,-6.227,-6.1277,-6.0794,-6.9522,-7.0073,-7.055,-7.0807,-7.066,-7.0257,-6.9449,-6.9082,-6.8678,-6.7871,-6.7687,-6.7687,-6.7687,-6.7488,-6.6896,-6.5649,-6.6248,0.0,0.0,0.0,0.0,-6.6812,-6.7726,-6.847,0.0,0.0,-7.1075,-7.1312,-7.1312,-7.1312,-7.1312,-7.1312,-7.1312,-7.1312,-7.1312,-7.1312,-7.1312,-7.1312,-7.1312,-7.1312,-7.1312,-7.1312,-7.1312,-7.1312,-7.1312,-7.1312,-7.1312,-7.1312,-7.1312,-7.1312,-7.1312,-7.1312,-7.1312,-7.1312,-7.1312,-7.1312,-7.1312,-7.1312,-7.1312,-7.1312,-7.1312,-7.1312,-7.1312,-7.1312,-7.1312,-7.1312,-7.1312,-7.1312,-7.1312,-7.1312,-7.1312,-7.1312,-7.1312,-7.1312,-7.1312,-7.1244,-7.1007,-7.0364,-6.962,-6.8876,-6.8098,-6.7387,-6.6914,-6.6812,-6.6812,-6.6812,-6.6812,-6.6812,-6.6812,-6.6812,-6.6812,-6.6812,-6.6812,-6.6812,-6.6812,-6.6812,-6.6812,-6.6812,-6.6812,-6.6812,-6.6812,-6.6812,-6.6812,-6.6812,-6.6812,-6.661,-6.632,-6.5293,-6.3937,-6.227,-6.1972,-6.1481,-6.8825,-6.9265,-6.9706,-7.0,-6.9853,0.0,-6.9009,-6.8678,-6.8311,-6.7797,-6.7687,-6.7687,-6.7687,-6.766,-6.7053,-6.5294,-6.6243,-6.6597,0.0,0.0,-6.6812,-6.6812,-6.8166,0.0,0.0,-7.0432,-7.1312,-7.1312,-7.1312,-7.1312,-7.1312,-7.1312,-7.1312,-7.1312,-7.1312,-7.1312,-7.1312,-7.1312,-7.1312,-7.1312,-7.1312,-7.1312,-7.1312,-7.1312,-7.1312,-7.1312,-7.1312,-7.1312,0.0,-7.1312,-7.1312,-7.1312,-7.1312,-7.1312,-7.1312,-7.1312,-7.1312,-7.1312,-7.1312,-7.1312,-7.1312,-7.1312,-7.1312,-7.1312,-7.1312,-7.1312,-7.1312,-7.1312,-7.1312,-7.1312,-7.1312,-7.1312,-7.1312,-7.1312,-7.1312,-7.1312,-7.1312,-7.0737,-6.9958,-6.9248,-6.8436,-6.7658,-6.6948,-6.6812,-6.6812,-6.6812,-6.6812,-6.6812,-6.6812,-6.6812,-6.6812,-6.6812,-6.6812,-6.6812,-6.6812,-6.6812,-6.6812,-6.6812,-6.6812,-6.6812,-6.6812,-6.6812,-6.6812,-6.6812,-6.6812,-6.6812,-6.6812,-6.5767,-6.4262,-6.2319,-6.2319,-6.1753,0.0,-6.8825,-6.9009,-6.9743,-6.9376,-6.8825,-6.8825,-6.8238,0.0,-6.7687,-6.7687,-6.7687,-6.7687,-6.7579,-6.691,-6.5261,-6.6141,-6.6452,-6.4822,-6.5865,-6.6812,-6.6812,-6.8166,-6.9113,-6.9113,-7.0432,-7.1312,-7.1312,-7.1312,-7.1312,-7.1312,-7.1312,-7.1312,-7.1312,-7.1312,-7.1312,-7.1312,-7.1312,-7.1312,-7.1312,-7.1312,-7.1312,-7.1312,-7.1312,-7.1312,0.0,-7.1312,-7.1312,-7.1312,-7.1312,-7.1312,-7.1312,-7.1312,-7.1312,-7.1312,-7.1312,-7.1312,-7.1312,-7.1312,-7.1312,-7.1312,-7.1312,-7.1312,-7.1312,-7.1312,-7.1312,-7.1312,-7.1312,-7.1312,-7.1312,-7.1312,-7.1312,-7.1312,-7.1312,-7.1312,-7.1312,-7.1312,-7.077,-7.006,-6.9316,-6.8538,-6.776,-6.7015,-6.6846,-6.6812,-6.6812,-6.6812,-6.6812,-6.6812,-6.6812,-6.6812,-6.6812,-6.6812,-6.6812,-6.6812,-6.6812,-6.6812,-6.6812,-6.6812,-6.6812,-6.6812,-6.6812,-6.6812,-6.6812,-6.6812,-6.6812,-6.6812,-6.5855,-6.4401,-6.2485,-6.2467,-6.1903,-6.7907,0.0,-6.8017,-6.8201,-6.8091,-6.7981,0.0,-6.7834,-6.7687,-6.7687,-6.7606,-6.7579,-6.7687,-6.746,-6.6794,-6.5229,-6.6141,-6.6452,-6.4822,-6.5865,-6.6812,-6.6812,-6.8166,-6.9113,-6.9113,-7.0432,-7.1312,-7.1312,-7.1312,-7.1312,-7.1312,-7.1312,-7.1312,-7.1312,-7.1312,-7.1312,-7.1312,-7.1312,-7.1312,-7.1312,-7.1312,-7.1312,-7.1312,-7.1312,-7.1312,-7.1312,-7.1312,-7.1312,-7.1312,-7.1312,-7.1312,-7.1312,-7.1312,-7.1312,-7.1312,-7.1312,-7.1312,-7.1312,-7.1312,-7.1312,-7.1312,-7.1312,-7.1312,-7.1312,-7.1312,-7.1312,-7.1312,-7.1312,-7.1312,-7.1312,-7.1312,-7.1312,-7.1312,-7.1312,-7.1312,-7.1312,-7.1312,-7.1176,-7.0838,-7.006,-6.9316,-6.8571,-6.7793,-6.7184,-6.6812,-6.6812,-6.6812,-6.6812,-6.6812,-6.6812,-6.6812,-6.6812,-6.6812,-6.6812,-6.6812,-6.6812,-6.6812,-6.6812,-6.6812,-6.6812,-6.6812,-6.6812,-6.6812,-6.6812,-6.6812,-6.6812,-6.6812,-6.6567,-6.5811,-6.4584,-6.3797,-6.2923,-6.7687,-6.7687,-6.7687,-6.7687,-6.7687,-6.7687,-6.7687,-6.7687,-6.7687,-6.7687,-6.7579,-6.7524,-6.7687,-6.7089,-6.6361,-6.5627,-6.604,-6.6211,-6.5698,-6.6305,-6.6812,-6.6812,-6.8166,-6.9113,0.0,-7.0432,-7.1312,-7.1312,-7.1312,-7.1312,-7.1312,-7.1312,-7.1312,-7.1312,-7.1312,-7.1312,-7.1312,-7.1312,-7.1312,-7.1312,-7.1312,-7.1312,-7.1312,-7.1312,-7.1312,-7.1312,-7.1312,-7.1312,-7.1312,-7.1312,-7.1312,-7.1312,-7.1312,-7.1312,-7.1312,-7.1312,-7.1312,-7.1312,-7.1312,-7.1312,-7.1312,-7.1312,-7.1312,-7.1312,-7.1312,-7.1312,-7.1312,-7.1312,-7.1312,-7.1312,-7.1312,-7.1312,-7.1312,-7.1312,-7.1312,-7.1312,-7.1312,-7.1312,-7.1075,-7.0331,-6.9586,-6.8842,-6.803,-6.7286,-6.6812,-6.6812,-6.6812,-6.6812,-6.6812,-6.6812,-6.6812,-6.6812,-6.6812,-6.6812,-6.6812,-6.6812,-6.6812,-6.6812,-6.6812,-6.6812,-6.6812,-6.6812,-6.6812,-6.6812,-6.6812,-6.6812,-6.6812,-6.6812,-6.6278,-6.5293,-6.4262,-6.3276,-6.7687,-6.7687,-6.7687,-6.7687,-6.7687,-6.7687,-6.7687,-6.7687,-6.7687,-6.766,-6.7552,-6.7534,-6.7753,-6.6917,-6.6217,-6.6238,-6.592,-6.596,-6.6693,-6.6812,-6.6812,-6.6812,-6.8166,0.0,-6.9113,-7.0432,-7.1312,-7.1312,-7.1312,-7.1312,-7.1312,-7.1312,-7.1312,-7.1312,-7.1312,-7.1312,-7.1312,-7.1312,-7.1312,-7.1312,-7.1312,-7.1312,-7.1312,-7.1312,-7.1312,-7.1312,-7.1312,0.0,-7.1312,-7.1312,-7.1312,-7.1312,-7.1312,-7.1312,-7.1312,-7.1312,-7.1312,-7.1312,-7.1312,-7.1312,-7.1312,-7.1312,-7.1312,-7.1312,-7.1312,-7.1312,-7.1312,-7.1312,-7.1312,-7.1312,-7.1312,-7.1312,-7.1312,-7.1312,-7.1312,-7.1312,-7.1312,-7.1312,-7.1142,-7.0466,-6.9688,-6.8876,-6.8199,-6.7387,-6.6812,-6.6812,-6.6812,-6.6812,-6.6812,-6.6812,-6.6812,-6.6812,-6.6812,-6.6812,-6.6812,-6.6812,-6.6812,-6.6812,-6.6812,-6.6812,-6.6812,-6.6812,-6.6812,-6.6812,-6.6812,-6.6812,-6.6812,-6.6812,-6.6354,-6.547,-6.4492,-6.3514,-6.7687,-6.7687,-6.7687,-6.7687,-6.7687,-6.7687,-6.7687,-6.7687,-6.766,-6.7552,-6.7387,-6.7457,-6.8179,-6.7942,-6.7523,-6.7054,-6.6229,-6.5963,-6.6677,-6.6812,-6.6812,-6.6812,0.0,-6.9113,-6.9113,-7.0432,-7.1312,-7.1312,-7.1312,-7.1312,-7.1312,-7.1312,-7.1312,-7.1312,-7.1312,-7.1312,-7.1312,-7.1312,-7.1312,-7.1312,-7.1312,-7.1312,-7.1312,-7.1312,-7.1312,-7.1312,0.0,-7.1312,-7.1312,-7.1312,-7.1312,-7.1312,-7.1312,-7.1312,-7.1312,-7.1312,-7.1312,-7.1312,-7.1312,-7.1312,-7.1312,-7.1312,-7.1312,-7.1312,-7.1312,-7.1312,-7.1312,-7.1312,-7.1312,-7.1312,-7.1312,-7.1312,-7.1312,-7.1312,-7.1312,-7.1312,-7.1312,-7.1312,-7.1278,-7.1176,-7.0026,-6.9079,-6.8944,-6.776,-6.6812,-6.6812,-6.6812,-6.6812,-6.6812,-6.6812,-6.6812,-6.6812,-6.6812,-6.6812,-6.6812,-6.6812,-6.6812,-6.6812,-6.6812,-6.6812,-6.6812,-6.6812,-6.6812,-6.6812,-6.6812,-6.6812,-6.6812,-6.6812,-6.6728,-6.6525,-6.5548,-6.4538,-6.7687,-6.7687,-6.7797,-6.8238,-6.8017,-6.7687,-6.7606,-6.7579,-6.7552,-6.7387,-6.721,-6.7352,-6.8239,-6.7508,-6.6698,-6.6384,-6.6302,-6.6406,-6.6779,-6.6812,-6.6812,0.0,0.0,-6.9113,-6.9113,-7.0432,-7.1312,-7.1312,-7.1312,-7.1312,-7.1312,-7.1312,-7.1312,-7.1312,-7.1312,-7.1312,-7.1312,-7.1312,-7.1312,-7.1312,-7.1312,-7.1312,-7.1312,-7.1312,-7.1312,-7.1312,0.0,-7.1312,-7.1312,-7.1312,-7.1312,-7.1312,-7.1312,-7.1312,-7.1312,-7.1312,-7.1312,-7.1312,-7.1312,-7.1312,-7.1312,-7.1312,-7.1312,-7.1312,-7.1312,-7.1312,-7.1312,-7.1312,-7.1312,-7.1312,-7.1312,-7.1312,-7.1312,-7.1312,-7.1312,-7.1312,-7.1312,-7.1312,-7.1312,-7.1312,-7.0128,-6.9113,-6.9113,-6.7827,-6.6812,-6.6812,-6.6812,-6.6812,-6.6812,-6.6812,-6.6812,-6.6812,-6.6812,-6.6812,-6.6812,-6.6812,-6.6812,-6.6812,-6.6812,-6.6812,-6.6812,-6.6812,-6.6812,-6.6812,-6.6812,-6.6812,-6.6812,-6.6812,-6.6812,-6.677,-6.5767,-6.4766,-6.7687,-6.7687,-6.7807,-6.8403,-6.8284,-6.799,-6.8074,-6.8083,-6.8018,-6.7794,-6.768,-6.7877,-6.8735,-6.7582,-6.6521,-6.6548,-6.6697,-6.6812,-6.6812,-6.6812,-6.6812,-6.6812,-6.8166,-6.9113,-6.9113,-7.0432,-7.1312,-7.1312,-7.1312,-7.1312,-7.1312,-7.1312,-7.1312,-7.1312,-7.1312,-7.1312,-7.1312,-7.1312,-7.1312,-7.1312,-7.1312,-7.1312,-7.1312,-7.1312,-7.1312,-7.1312,-7.1312,-7.1312,-7.1312,-7.1312,-7.1312,-7.1312,-7.1312,-7.1312,-7.1312,-7.1312,-7.1312,-7.1312,-7.1312,-7.1312,-7.1312,-7.1312,-7.1312,-7.1312,-7.1312,-7.1312,-7.1312,-7.1312,-7.1312,-7.1312,-7.1312,-7.1312,-7.1312,-7.1312,-7.1312,-7.1312,-7.1312,-7.1312,-7.1312,-7.1312,-7.0263,-6.9316,-6.9147,-6.7963,-6.7015,-6.6846,-6.6812,-6.6812,-6.6812,-6.6812,-6.6812,-6.6812,-6.6812,-6.6812,-6.6812,-6.6812,-6.6812,-6.6812,-6.6812,-6.6812,-6.6812,-6.6812,-6.6812,-6.6812,-6.6812,-6.6812,-6.6812,-6.6812,-6.6686,-6.644,-6.5898,-6.4979,-6.7687,-6.7606,-6.7534,-6.7607,-6.8202,-6.8981,-6.9583,-6.9814,-6.9786,-6.9325,-6.9318,-6.9602,-7.0138,-6.9554,-6.8917,-6.8947,-6.7742,-6.6812,-6.6812,0.0,-6.6812,-6.6812,-6.8166,-6.9113,-6.9113,-7.0432,-7.1312,-7.1312,-7.1312,-7.1312,-7.1312,-7.1312,-7.1312,-7.1312,-7.1312,-7.1312,-7.1312,-7.1312,-7.1312,-7.1312,-7.1312,-7.1312,-7.1312,-7.1312,-7.1312,-7.1312,-7.1312,-7.1312,-7.1312,-7.1312,-7.1312,-7.1312,-7.1312,-7.1312,-7.1312,-7.1312,-7.1312,-7.1312,-7.1312,-7.1312,-7.1312,-7.1312,-7.1312,-7.1312,-7.1312,-7.1312,-7.1312,-7.1312,-7.1312,-7.1312,-7.1312,-7.1312,-7.1312,-7.1312,-7.1312,-7.1312,-7.1312,-7.1312,-7.1312,-7.1312,-7.0669,-6.9891,-6.9214,-6.8402,-6.759,-6.6914,-6.6812,-6.6812,-6.6812,-6.6812,-6.6812,-6.6812,-6.6812,-6.6812,-6.6812,-6.6812,-6.6812,-6.6812,-6.6812,-6.6812,-6.6812,-6.6812,-6.6812,-6.6812,-6.6812,-6.6812,-6.6812,-6.6812,-6.632,-6.5426,-6.6278,-6.5636,-6.7687,-6.7945,-6.8339,-6.8935,-6.9245,-6.9279,-6.9003,-6.9397,-6.9733,-6.9441,-6.9352,-6.9424,-6.9649,-6.9388,-6.9052,-6.8524,-6.7529,-6.6812,-6.6812,-6.6812,-6.6812,-6.6812,-6.7726,-6.8538,-6.9045,-7.0026,-7.0804,-7.1278,-7.1312,-7.1312,-7.1312,-7.1312,-7.1312,-7.1312,-7.1312,-7.1312,-7.1312,-7.1312,-7.1312,-7.1312,-7.1312,-7.1312,-7.1312,-7.1312,-7.1312,-7.1312,-7.1312,-7.1312,-7.1312,-7.1312,-7.1312,-7.1312,-7.1312,-7.1312,-7.1312,-7.1312,-7.1312,-7.1312,-7.1312,-7.1312,-7.1312,-7.1312,-7.1312,-7.1312,-7.1312,-7.1312,-7.1312,-7.1312,-7.1312,-7.1312,-7.1312,-7.1312,-7.1312,-7.1312,-7.1312,-7.1312,-7.1312,-7.1312,-7.1312,-7.1312,-7.0703,-6.9958,-6.9214,-6.8436,-6.7658,-6.6914,-6.6812,-6.6812,-6.6812,-6.6812,-6.6812,-6.6812,-6.6812,-6.6812,-6.6812,-6.6812,-6.6812,-6.6812,-6.6812,-6.6812,-6.6812,-6.6812,-6.6812,-6.6812,-6.6812,-6.6812,-6.6812,-6.6812,-6.6278,-6.5293,-6.568,-6.4799,-6.7606,-6.8138,-6.8787,-6.9336,-6.9791,-6.9894,-6.926,-6.9369,-6.9632,-6.9678,-6.9848,-6.9859,-6.9614,-6.9389,-6.894,0.0,-6.7325,-6.6812,-6.6812,-6.6812,-6.6812,-6.6812,-6.7455,-6.8233,-6.9011,-6.9755,-7.05,-7.1244,-7.1312,-7.1312,-7.1312,-7.1312,-7.1312,-7.1312,-7.1312,-7.1312,-7.1312,-7.1312,-7.1312,-7.1312,-7.1312,-7.1312,-7.1312,-7.1312,-7.1312,-7.1312,-7.1312,-7.1312,-7.1312,-7.1312,-7.1312,-7.1312,-7.1312,-7.1312,-7.1312,-7.1312,-7.1312,-7.1312,-7.1312,-7.1312,-7.1312,-7.1312,-7.1312,-7.1312,-7.1312,-7.1312,-7.1312,-7.1312,-7.1312,-7.1312,-7.1312,-7.1312,-7.1312,-7.1312,-7.1312,-7.1312,-7.1312,-7.1312,-7.1312,-7.1312,-7.0906,-7.0229,-6.9282,-6.8639,-6.7929,-6.6948,-6.6812,-6.6812,-6.6812,-6.6812,-6.6812,-6.6812,-6.6812,-6.6812,-6.6812,-6.6812,-6.6812,-6.6812,-6.6812,-6.6812,-6.6812,-6.6812,-6.6812,-6.6812,-6.6812,-6.6812,-6.6812,-6.6812,-6.6105,-6.4811,-6.5159,-6.4216,-6.7561,-6.8092,-6.8629,-6.8313,-6.9654,-7.0997,-7.0671,-7.0082,-6.9748,-7.0319,-7.0987,-7.1272,-7.0577,-6.9743,-6.894,-6.8132,-6.7325,-6.6812,-6.6812,-6.6812,-6.6812,-6.6812,-6.7455,-6.8199,-6.9011,-6.9755,-7.05,-7.1244,-7.1312,-7.1312,-7.1312,-7.1312,-7.1312,-7.1312,-7.1312,-7.1312,-7.1312,-7.1312,-7.1312,-7.1312,-7.1312,-7.1312,-7.1312,-7.1312,-7.1312,-7.1312,-7.1312,-7.1312,-7.1312,-7.1312,-7.1312,-7.1312,-7.1312,-7.1312,-7.1312,-7.1312,-7.1312,-7.1312,-7.1312,-7.1312,-7.1312,-7.1312,-7.1312,-7.1312,-7.1312,-7.1312,-7.1312,-7.1312,-7.1312,-7.1312,-7.1312,-7.1312,-7.1312,-7.1312,-7.1312,-7.1312,-7.1312,-7.1312,-7.1312,-7.1312,-7.1312,-7.0838,-6.935,-6.9113,-6.8571,-6.7049,-6.6812,-6.6812,-6.6812,-6.6812,-6.6812,-6.6812,-6.6812,-6.6812,-6.6812,-6.6812,-6.6812,-6.6812,-6.6812,-6.6812,-6.6812,-6.6812,-6.6812,-6.6812,-6.6812,-6.6812,-6.677,-6.6812,-6.5767,-6.3797,-6.4811,-6.4216,-6.8247,-6.9128,-7.0039,-7.0039,-7.0314,-7.0617,-7.0617,-7.0519,-7.044,-7.0428,-7.0987,-7.1431,-7.1204,-7.0095,-6.9091,-6.8903,-6.7696,-6.6812,-6.6812,-6.6812,-6.6812,-6.6812,-6.7015,-6.7658,-6.8977,-6.9316,-6.9958,-7.121,-7.1312,-7.1312,-7.1312,-7.1312,-7.1312,-7.1312,-7.1312,-7.1312,-7.1312,-7.1312,-7.1312,-7.1312,-7.1312,-7.1312,-7.1312,-7.1312,-7.1312,-7.1312,-7.1312,-7.1312,-7.1312,-7.1312,-7.1312,-7.1312,-7.1312,-7.1312,-7.1312,-7.1312,-7.1312,-7.1312,-7.1312,-7.1312,-7.1312,-7.1312,-7.1312,-7.1312,-7.1312,-7.1312,-7.1312,-7.1312,-7.1312,-7.1312,-7.1312,-7.1312,-7.1312,-7.1312,-7.1312,-7.1312,-7.1312,-7.1312,-7.1312,-7.1312,-7.1312,-7.1007,-7.0026,-6.9451,-6.8741,-6.7726,-6.7151,-6.6812,-6.6812,-6.6812,-6.6812,-6.6812,-6.6812,-6.6812,-6.6812,-6.6812,-6.6812,-6.6812,-6.6812,-6.6812,-6.6812,-6.6812,-6.6812,-6.6812,-6.6812,-6.644,-6.5724,-6.644,-6.5415,-6.2778,-6.3797,-6.318,-6.8528,-6.9581,-7.0671,-7.0641,-7.0835,-7.095,-7.0653,-7.0611,-7.0617,-7.0434,-7.0987,-7.1399,-7.1107,-7.006,0.0,-6.879,-6.7616,-6.6812,-6.6812,-6.6812,-6.6812,-6.6812,-6.6812,-6.7286,-6.8504,-6.891,-6.9586,-7.077,-7.1142,-7.1312,-7.1312,-7.1312,-7.1312,-7.1312,-7.1312,-7.1312,-7.1312,-7.1312,-7.1312,-7.1312,-7.1312,-7.1312,-7.1312,-7.1312,-7.1312,-7.1312,-7.1312,-7.1312,-7.1312,-7.1312,-7.1312,-7.1312,-7.1312,-7.1312,-7.1312,-7.1312,-7.1312,-7.1312,-7.1312,-7.1312,-7.1312,-7.1312,-7.1312,-7.1312,-7.1312,-7.1312,-7.1312,-7.1312,-7.1312,-7.1312,-7.1312,-7.1312,-7.1312,-7.1312,-7.1312,-7.1312,-7.1312,-7.1312,-7.1312,-7.1312,-7.1312,-7.1075,-7.0331,-6.9586,-6.8842,-6.803,-6.7286,-6.6812,-6.6812,-6.6812,-6.6812,-6.6812,-6.6812,-6.6812,-6.6812,-6.6812,-6.6812,-6.6812,-6.6812,-6.6812,-6.6812,-6.6812,-6.6812,-6.6812,-6.6812,-6.6482,-6.5932,-6.6105,-6.5069,-6.2923,-6.3084,-6.2337,-6.8487,-6.9624,-7.0768,-7.0537,-7.1235,-7.1745,-7.0902,-7.0604,-7.048,-7.0408,-7.0987,-7.1304,-7.0609,-6.9778,-6.8978,-6.825,-6.7366,-6.6812,-6.6812,-6.6812,-6.6812,-6.6812,-6.6812,-6.7117,-6.7827,-6.8639,-6.9417,-7.0128,-7.0872,-7.1312,-7.1312,-7.1312,-7.1312,-7.1312,-7.1312,-7.1312,-7.1312,-7.1312,-7.1312,-7.1312,-7.1312,-7.1312,-7.1312,-7.1312,-7.1312,-7.1312,-7.1312,-7.1312,-7.1312,-7.1312,-7.1312,-7.1312,-7.1312,-7.1312,-7.1312,-7.1312,-7.1312,-7.1312,-7.1312,-7.1312,-7.1312,-7.1312,-7.1312,-7.1312,-7.1312,-7.1312,-7.1312,-7.1312,-7.1312,-7.1312,-7.1312,-7.1312,-7.1312,-7.1312,-7.1312,-7.1312,-7.1312,-7.1312,-7.1312,-7.1312,-7.1312,-7.1109,-7.0398,-6.962,-6.8808,-6.7929,-6.7252,-6.6812,-6.6812,-6.6812,-6.6812,-6.6812,-6.6812,-6.6812,-6.6812,-6.6812,-6.6812,-6.6812,-6.6812,-6.6812,-6.6812,-6.6812,-6.6812,-6.6812,-6.6812,-6.677,-6.6686,-6.5724,-6.472,-6.3656,-6.2729,-6.1753,-6.9011,-6.9884,-7.0726,-7.1158,-7.1448,-7.1552,-7.134,-7.1272,-7.1096,-7.0517,-7.0987,-7.1431,-7.1304,-7.0129,-6.9128,-6.8978,-6.7736,-6.6812,-6.6812,-6.6812,-6.6812,-6.6812,-6.6812,-6.7117,-6.7827,-6.8639,-6.9417,-7.0128,-7.0872,-7.1312,-7.1312,-7.1312,-7.1312,-7.1312,-7.1312,-7.1312,-7.1312,-7.1312,-7.1312,-7.1312,-7.1312,-7.1312,-7.1312,-7.1312,-7.1312,-7.1312,-7.1312,-7.1312,-7.1312,-7.1312,-7.1312,-7.1312,-7.1312,-7.1312,-7.1312,-7.1312,-7.1312,-7.1312,-7.1312,-7.1312,-7.1312,-7.1312,-7.1312,-7.1312,-7.1312,-7.1312,-7.1312,-7.1312,-7.1312,-7.1312,-7.1312,-7.1312,-7.1312,-7.1312,-7.1312,-7.1312,-7.1312,-7.1312,-7.1312,-7.1312,-7.1312,-7.1278,-7.1109,-6.9992,-6.8639,-6.7252,-6.6914,-6.6812,-6.6812,-6.6812,-6.6812,-6.6812,-6.6812,-6.6812,-6.6812,-6.6812,-6.6812,-6.6812,-6.6812,-6.6812,-6.6812,-6.6812,-6.6812,-6.6812,-6.6812,-6.6397,-6.5636,-6.5415,-6.4355,-6.2632,-6.2418,-6.1753,-6.92,-6.9999,-7.0732,-7.1345,0.0,-7.1494,-7.1494,-7.1494,-7.1386,-7.1024,-7.1241,-7.1494,-7.1494,-7.0233,-6.9202,-6.9202,-6.7856,-6.6812,-6.6812,-6.6812,-6.6812,-6.6812,-6.6812,-6.6948,-6.7354,-6.8436,-6.9248,-6.962,-7.0703,-7.1312,-7.1312,-7.1312,-7.1312,-7.1312,-7.1312,-7.1312,-7.1312,-7.1312,-7.1312,-7.1312,-7.1312,-7.1312,-7.1312,-7.1312,-7.1312,-7.1312,-7.1312,-7.1312,-7.1312,-7.1312,-7.1312,-7.1312,-7.1312,-7.1312,-7.1312,-7.1312,-7.1312,-7.1312,-7.1312,-7.1312,-7.1312,-7.1312,-7.1312,-7.1312,-7.1312,-7.1312,-7.1312,-7.1312,-7.1312,-7.1312,-7.1312,-7.1312,-7.1312,-7.1312,-7.1312,-7.1312,-7.1312,-7.1312,-7.1312,-7.1312,-7.1312,-7.1312,-7.1312,-7.0094,-6.8571,-6.7049,-6.6812,-6.6812,-6.6812,-6.6812,-6.6812,-6.6812,-6.6812,-6.6812,-6.6812,-6.6812,-6.6812,-6.6812,-6.6812,-6.6812,-6.6812,-6.6812,-6.6812,-6.6812,-6.6812,-6.6525,-6.6019,-6.5548,-6.4492,-6.302,-6.2485,-6.1753,-6.8952,-6.983,-7.0738,-7.1376,-7.1526,0.0,-7.1494,-7.1494,-7.1494,-7.1494,-7.1494,-7.1494,-7.1494,-7.0233,-6.9202,-6.9202,-6.7856,-6.6812,-6.6812,-6.6812,-6.6812,-6.6812,-6.6812,-6.6812,-6.6812,-6.8199,-6.9113,-6.9113,-7.0466,-7.1312,-7.1312,-7.1312,-7.1312,-7.1312,-7.1312,-7.1312,-7.1312,-7.1312,-7.1312,-7.1312,-7.1312,-7.1312,-7.1312,-7.1312,-7.1312,-7.1312,-7.1312,-7.1312,-7.1312,-7.1312,-7.1312,-7.1312,-7.1312,-7.1312,-7.1312,-7.1312,-7.1312,-7.1312,-7.1312,-7.1312,-7.1312,-7.1312,-7.1312,-7.1312,-7.1312,-7.1312,-7.1312,-7.1312,-7.1312,-7.1312,-7.1312,-7.1312,-7.1312,-7.1312,-7.1312,-7.1312,-7.1312,-7.1312,-7.1312,-7.1312,-7.1312,-7.1278,-7.1142,-6.9992,-6.8639,-6.7218,-6.688,-6.6812,-6.6812,-6.6812,-6.6812,-6.6812,-6.6812,-6.6812,-6.6812,-6.6812,-6.6812,-6.6812,-6.6812,-6.6812,-6.6812,-6.6812,-6.6812,-6.6812,-6.6812,-6.6812,-6.6812,-6.5767,-6.4766,-6.3797,-6.2778,-6.1753,-6.7975,0.0,-7.0615,0.0,-7.1625,-7.1494,0.0,0.0,-7.1494,0.0,-7.1494,-7.1494,-7.1494,-7.0233,-6.9202,-6.9202,-6.7856,-6.6812,-6.6812,-6.6812,-6.6812,-6.6812,-6.6812,-6.6812,-6.6812,-6.8199,-6.9113,-6.9113,-7.0466,-7.1312,-7.1312,-7.1312,-7.1312,-7.1312,-7.1312,-7.1312,-7.1312,-7.1312,-7.1312,-7.1312,-7.1312,-7.1312,-7.1312,-7.1312,-7.1312,-7.1312,-7.1312,-7.1312,-7.1312,-7.1312,-7.1312,-7.1312,-7.1312,-7.1312,-7.1312,-7.1312,-7.1312,-7.1312,-7.1312,-7.1312,-7.1312,-7.1312,-7.1312,-7.1312,-7.1312,-7.1312,-7.1312,-7.1312,-7.1312,-7.1312,-7.1312,-7.1312,-7.1312,-7.1312,-7.1312,-7.1312,-7.1312,-7.1312,-7.1312,-7.1312,-7.1312,-7.1109,-7.0466,-6.9654,-6.8808,-6.7895,-6.7218,-6.6812,-6.6812,-6.6812,-6.6812,-6.6812,-6.6812,-6.6812,-6.6812,-6.6812,-6.6812,-6.6812,-6.6812,-6.6812,-6.6812,-6.6812,-6.6812,-6.6812,-6.6812,-6.6812,-6.6812,-6.5767,-6.4766,-6.3797,-6.2778,-6.1753,-6.7883,-6.9237,-7.0511,0.0,-7.1267,-7.1494,-7.1494,-7.1494,-7.1494,-7.1494,-7.1494,-7.1494,-7.1494,-7.0233,-6.9202,-6.9202,-6.7856,-6.6812,-6.6812,-6.6812,-6.6812,-6.6812,-6.6812,-6.6812,-6.6812,-6.7793,-6.8605,-6.9079,-7.0094,-7.0872,-7.1312,-7.1312,-7.1312,-7.1312,-7.1312,-7.1312,-7.1312,-7.1312,-7.1312,-7.1312,-7.1312,-7.1312,-7.1312,-7.1312,-7.1312,-7.1312,-7.1312,-7.1312,-7.1312,-7.1312,-7.1312,-7.1312,-7.1312,-7.1312,-7.1312,-7.1312,-7.1312,-7.1312,-7.1312,-7.1312,-7.1312,-7.1312,-7.1312,-7.1312,-7.1312,-7.1312,-7.1312,-7.1312,-7.1312,-7.1312,-7.1312,-7.1312,-7.1312,-7.1312,-7.1312,-7.1312,-7.1312,-7.1312,-7.1312,-7.1312,-7.1312,-7.1075,-7.0331,-6.9586,-6.8842,-6.803,-6.7286,-6.6812,-6.6812,-6.6812,-6.6812,-6.6812,-6.6812,-6.6812,-6.6812,-6.6812,-6.6812,-6.6812,-6.6812,-6.6812,-6.6812,-6.6812,-6.6812,-6.6812,-6.6812,-6.6812,-6.6812,-6.6354,-6.5337,-6.3797,-6.3324,-6.2288,0.0,0.0,-6.9865,-7.0299,-7.0806,-7.1277,0.0,0.0,-7.1494,0.0,-7.1494,-7.1494,-7.1494,-7.0233,-6.9202,-6.9202,-6.7856,-6.6812,-6.6812,-6.6812,-6.6812,-6.6812,-6.6812,-6.6812,-6.6812,-6.7489,-6.8233,-6.9045,-6.9755,-7.05,-7.1278,-7.1312,-7.1312,-7.1312,-7.1312,-7.1312,-7.1312,-7.1312,-7.1312,-7.1312,-7.1312,-7.1312,-7.1312,-7.1312,-7.1312,-7.1312,-7.1312,-7.1312,-7.1312,-7.1312,-7.1312,-7.1312,-7.1312,-7.1312,-7.1312,-7.1312,-7.1312,-7.1312,-7.1312,-7.1312,-7.1312,-7.1312,-7.1312,-7.1312,-7.1312,-7.1312,-7.1312,-7.1312,-7.1312,-7.1312,-7.1312,-7.1312,-7.1312,-7.1312,-7.1312,-7.1312,-7.1312,-7.1312,-7.1312,-7.1312,-7.1312,-7.1142,-7.0567,-6.9722,-6.891,-6.8301,-6.7421,-6.6812,-6.6812,-6.6812,-6.6812,-6.6812,-6.6812,-6.6812,-6.6812,-6.6812,-6.6812,-6.6812,-6.6812,-6.6812,-6.6812,-6.6812,-6.6812,-6.6812,-6.6812,-6.6812,-6.6812,-6.6812,-6.5767,-6.3797,-6.3797,-6.2697,0.0,-6.809,0.0,-7.0009,-7.0439,-7.0625,0.0,0.0,-7.1494,-7.1494,-7.1494,-7.1494,-7.1494,-7.0233,-6.9202,-6.9202,-6.7856,-6.6812,-6.6812,-6.6812,-6.6812,-6.6812,-6.6812,-6.6812,-6.6812,-6.7489,-6.8233,-6.9045,-6.9755,-7.05,-7.1278,-7.1312,-7.1312,-7.1312,-7.1312,-7.1312,-7.1312,-7.1312,-7.1312,-7.1312,-7.1312,-7.1312,-7.1312,-7.1312,-7.1312,-7.1312,-7.1312,-7.1312,-7.1312,-7.1312,-7.1312,-7.1312,-7.1312,-7.1312,-7.1312,-7.1312,-7.1312,-7.1312,-7.1312,-7.1312,-7.1312,-7.1312,-7.1312,-7.1312,-7.1312,-7.1312,-7.1312,-7.1312,-7.1312,-7.1312,-7.1312,-7.1312,-7.1312,-7.1312,-7.1312,-7.1312,-7.1312,-7.1312,-7.1312,-7.1312,-7.1312,-7.1312,-7.1278,-7.006,-6.9079,-6.9045,-6.776,-6.6812,-6.6812,-6.6812,-6.6812,-6.6812,-6.6812,-6.6812,-6.6812,-6.6812,-6.6812,-6.6812,-6.6812,-6.6812,-6.6812,-6.6812,-6.6812,-6.6812,-6.6812,-6.6812,-6.6812,-6.6812,-6.5767,-6.3797,-6.3797,-6.2697,0.0,0.0,0.0,-6.8706,-6.9249,-6.9714,-6.9937,-7.0408,-7.077,-7.077,-7.1168,-7.1368,-7.0878,-6.992,-6.9202,-6.9202,-6.7856,-6.6812,-6.6812,-6.6812,-6.6812,-6.6812,-6.6812,-6.6812,-6.6812,-6.7049,-6.7726,-6.9011,-6.935,-7.0026,-7.1244,-7.1312,-7.1312,-7.1312,-7.1312,-7.1312,-7.1312,-7.1312,-7.1312,-7.1312,-7.1312,-7.1312,-7.1312,-7.1312,-7.1312,-7.1312,-7.1312,-7.1312,-7.1312,-7.1312,-7.1312,-7.1312,-7.1312,-7.1312,-7.1312,-7.1312,-7.1312,-7.1312,-7.1312,-7.1312,-7.1312,-7.1312,-7.1312,-7.1312,-7.1312,-7.1312,-7.1312,-7.1312,-7.1312,-7.1312,-7.1312,-7.1312,-7.1312,-7.1312,-7.1312,-7.1312,-7.1312,-7.1312,-7.1312,-7.1312,-7.1312,-7.1312,-7.1312,-7.0466,-6.9654,-6.918,-6.8199,-6.7354,-6.688,-6.6812,-6.6812,-6.6812,-6.6812,-6.6812,-6.6812,-6.6812,-6.6812,-6.6812,-6.6812,-6.6525,-6.5855,-6.5811,-6.5548,-6.4889,-6.4856,-6.5504,-6.6812,-6.6148,-6.5159,-6.3764,-6.3132,-6.2121,-6.6786,0.0,0.0,0.0,-6.8416,-6.885,-6.9134,0.0,-7.0372,-7.0372,-7.0987,-7.1272,-7.0543,-6.9743,-6.9091,-6.8865,-6.7896,-6.7112,-6.6854,-6.6812,-6.6812,-6.6812,-6.6812,-6.6812,-6.6812,-6.6812,-6.7354,-6.8605,-6.8944,0.0,-7.0872,-7.1176,-7.1312,-7.1312,-7.1312,-7.1312,-7.1312,-7.1312,-7.1312,-7.1312,-7.1312,-7.1312,-7.1312,-7.1312,-7.1312,-7.1312,-7.1312,-7.1312,-7.1312,-7.1312,-7.1312,-7.1312,-7.1312,-7.1312,-7.1312,-7.1312,-7.1312,-7.1312,-7.1312,-7.1312,-7.1312,-7.1312,-7.1312,-7.1312,-7.1312,-7.1312,-7.1312,-7.1312,-7.1312,-7.1312,-7.1312,-7.1312,-7.1312,-7.1312,-7.1312,-7.1312,-7.1312,-7.1312,-7.1312,-7.1312,-7.1312,-7.1312,-7.1312,-7.0703,-6.9925,-6.9214,-6.8402,-6.7624,-6.6914,-6.6812,-6.6812,-6.6812,-6.6812,-6.6812,-6.6812,-6.6812,-6.6812,-6.6812,-6.6482,-6.6019,-6.5337,-6.4979,-6.4492,-6.3844,-6.3797,-6.4447,-6.5767,-6.5114,-6.4262,-6.3276,-6.2583,-6.1753,0.0,0.0,0.0,0.0,0.0,0.0,-6.8959,0.0,-7.0335,-7.0372,-7.0951,-7.1236,-7.0474,-6.9743,-6.894,-6.8093,-6.7975,-6.769,-6.6938,-6.6812,-6.6812,-6.6812,-6.6812,-6.6812,-6.6812,-6.6812,-6.7117,-6.7827,-6.8639,-6.9417,-7.0161,-7.0906,-7.1312,-7.1312,-7.1312,-7.1312,-7.1312,-7.1312,-7.1312,-7.1312,-7.1312,-7.1312,-7.1312,-7.1312,-7.1312,-7.1312,-7.1312,-7.1312,-7.1312,-7.1312,-7.1312,-7.1312,-7.1312,-7.1312,-7.1312,-7.1312,-7.1312,-7.1312,-7.1312,-7.1312,-7.1312,-7.1312,-7.1312,-7.1312,-7.1312,-7.1312,-7.1312,-7.1312,-7.1312,-7.1312,-7.1312,-7.1312,-7.1312,-7.1312,-7.1312,-7.1312,-7.1312,-7.1312,-7.1312,-7.1312,-7.1312,-7.1312,-7.1312,-7.0703,-6.9958,-6.9214,-6.8436,-6.7658,-6.6914,-6.6812,-6.6812,-6.6812,-6.6812,-6.6812,-6.6812,-6.6812,-6.677,-6.677,-6.5811,-6.5248,-6.5204,-6.4262,-6.375,-6.3703,-6.3703,-6.3703,-6.3703,-6.375,-6.3228,-6.2319,-6.227,-6.1753,-6.6786,0.0,0.0,0.0,0.0,0.0,0.0,0.0,-6.8995,-7.0154,-7.0102,-6.9761,-6.9566,-6.9383,-6.8752,-6.7366,-6.7112,-6.7029,-6.6812,-6.6812,-6.6812,-6.6812,-6.6812,-6.6812,-6.6812,-6.6812,-6.7117,0.0,-6.8639,-6.9417,-7.0161,-7.0906,-7.1312,-7.1312,-7.1312,-7.1312,-7.1312,-7.1312,-7.1312,-7.1312,-7.1312,-7.1312,-7.1312,-7.1312,-7.1312,-7.1312,-7.1312,-7.1312,-7.1312,-7.1312,-7.1312,-7.1312,-7.1312,-7.1312,-7.1312,-7.1312,-7.1312,-7.1312,-7.1312,-7.1312,-7.1312,-7.1312,-7.1312,-7.1312,-7.1312,-7.1312,-7.1312,-7.1312,-7.1312,-7.1312,-7.1312,-7.1312,-7.1312,-7.1312,-7.1312,-7.1312,-7.1312,-7.1312,-7.1312,-7.1312,-7.1312,-7.1312,-7.1312,-7.1142,-7.0567,-6.9282,-6.891,-6.8301,-6.6981,-6.6812,-6.6812,-6.6812,-6.6812,-6.6812,-6.6812,-6.6812,-6.6482,-6.5767,-6.5426,-6.4662,-6.3212,-6.2875,-6.2337,-6.1621,-6.1652,-6.1652,-6.1652,-6.2337,-6.2583,-6.227,-6.1551,-6.1103,-6.5855,-6.5855,-6.5855,-6.5855,0.0,0.0,-6.6527,-6.7079,-6.7815,0.0,-6.8845,-6.8717,-6.8726,-6.8714,-6.8293,-6.6988,-6.6812,-6.6812,-6.6812,-6.6812,-6.6812,-6.6812,-6.6812,-6.6812,-6.6812,-6.6812,-6.6981,-6.7421,-6.8166,-6.9079,-7.0128,-7.0906,-7.1312,-7.1312,-7.1312,-7.1312,-7.1312,-7.1312,-7.1312,-7.1312,-7.1312,-7.1312,-7.1312,-7.1312,-7.1312,-7.1312,-7.1312,-7.1312,-7.1312,-7.1312,-7.1312,-7.1312,-7.1312,-7.1312,-7.1312,-7.1312,-7.1312,-7.1312,-7.1312,-7.1312,-7.1312,-7.1312,-7.1312,-7.1312,-7.1312,-7.1312,-7.1312,-7.1312,-7.1312,-7.1312,-7.1312,-7.1312,-7.1312,-7.1312,-7.1312,-7.1312,-7.1312,-7.1312,-7.1312,-7.1312,-7.1312,-7.1312,-7.1312,-7.1312,-7.0906,-6.9722,-6.9316,-6.8673,-6.7421,-6.7015,-6.6812,-6.6812,-6.6812,-6.6643,-6.6192,-6.6148,-6.5724,-6.472,-6.4262,-6.3514,-6.2369,-6.1903,-6.143,-6.0794,-6.0794,-6.0794,-6.0794,-6.1379,-6.1652,-6.1652,-6.1072,-6.0794,-6.4741,-6.4706,-6.4706,-6.4601,-6.5108,0.0,-6.4877,-6.5709,-6.6718,0.0,-6.7338,-6.7747,-6.7856,-6.7798,-6.7547,-6.6904,-6.6812,-6.6812,-6.6812,-6.6812,-6.6812,-6.6812,-6.6812,-6.6812,-6.6812,-6.6812,-6.6812,-6.6812,-6.7557,-6.8673,-7.0094,-7.0906,-7.1312,-7.1312,-7.1312,-7.1312,-7.1312,-7.1312,-7.1312,-7.1312,-7.1312,-7.1312,-7.1312,-7.1312,-7.1312,-7.1312,-7.1312,-7.1312,-7.1312,-7.1312,-7.1312,-7.1312,-7.1312,-7.1312,-7.1312,-7.1312,-7.1312,-7.1312,-7.1312,-7.1312,-7.1312,-7.1312,-7.1312,-7.1312,-7.1312,-7.1312,-7.1312,-7.1312,-7.1312,-7.1312,-7.1312,-7.1312,-7.1312,-7.1312,-7.1312,-7.1312,-7.1312,-7.1312,-7.1312,-7.1312,-7.1312,-7.1312,-7.1312,-7.1312,-7.1075,-7.0297,-6.9553,-6.8808,-6.7996,-6.7252,-6.6812,-6.6812,-6.6728,-6.6235,-6.5382,-6.5204,-6.4675,-6.3703,-6.2778,-6.227,-6.2121,-6.1277,-6.0794,-6.0794,-6.0794,-6.0794,-6.0794,-6.0794,-6.0794,-6.0794,-6.0794,-6.0794,-6.5654,-6.5514,-6.5373,-6.4741,-6.4703,0.0,-6.5442,-6.53,-6.5439,0.0,-6.6065,-6.5651,-6.688,-6.6565,-6.6275,-6.6711,-6.6812,-6.6812,-6.6812,-6.6812,-6.6812,-6.6812,-6.6812,-6.6812,-6.6812,-6.6812,-6.6812,-6.6812,-6.8098,-6.9248,-7.0128,-7.0906,-7.1312,-7.1312,-7.1312,-7.1312,-7.1312,-7.1312,-7.1312,-7.1312,-7.1312,-7.1312,-7.1312,-7.1312,-7.1312,-7.1312,-7.1312,-7.1312,-7.1312,-7.1312,-7.1312,-7.1312,-7.1312,-7.1312,-7.1312,-7.1312,-7.1312,-7.1312,-7.1312,-7.1312,-7.1312,-7.1312,-7.1312,-7.1312,-7.1312,-7.1312,-7.1312,-7.1312,-7.1312,-7.1312,-7.1312,-7.1312,-7.1312,-7.1312,-7.1312,-7.1312,-7.1312,-7.1312,-7.1312,-7.1312,-7.1312,-7.1312,-7.1312,-7.1312,-7.1075,-7.0297,-6.9553,-6.8808,-6.7996,-6.7252,-6.6812,-6.6812,-6.6062,-6.5504,-6.5293,-6.4538,-6.3656,-6.2632,-6.2418,-6.1953,-6.1124,-6.0897,-6.0794,-6.0794,-6.0794,-6.0794,-6.0794,-6.0794,-6.0794,-6.0794,-6.0794,-6.0794,-6.5252,-6.5148,-6.5045,-6.4703,-6.4897,0.0,0.0,-6.5174,-6.5393,-6.6198,-6.5705,-6.5494,-6.6621,-6.6527,-6.6373,-6.6745,-6.6812,-6.6812,-6.6812,-6.6812,-6.6812,-6.6812,-6.6812,-6.6812,-6.6812,-6.6812,-6.6812,-6.6812,-6.7861,-6.8842,-6.962,-7.0331,-7.0939,-7.1312,-7.1312,-7.1312,-7.1312,-7.1312,-7.1312,-7.1312,-7.1312,-7.1312,-7.1312,-7.1312,-7.1312,-7.1312,-7.1312,-7.1312,-7.1312,-7.1312,-7.1312,-7.1312,-7.1312,-7.1312,-7.1312,-7.1312,-7.1312,-7.1312,-7.1312,-7.1312,-7.1312,-7.1312,-7.1312,-7.1312,-7.1312,-7.1312,-7.1312,-7.1312,-7.1312,-7.1312,-7.1312,-7.1312,-7.1312,-7.1312,-7.1312,-7.1312,-7.1312,-7.1312,-7.1312,-7.1312,-7.1312,-7.1312,-7.1312,-7.1312,-7.1176,-7.0804,-6.9823,-6.8944,-6.8538,-6.7523,-6.661,-6.6105,-6.5592,-6.4889,-6.3891,-6.3324,-6.2632,-6.1602,-6.1551,-6.1328,-6.0794,-6.0794,-6.0794,-6.0794,-6.0794,-6.0794,-6.0794,-6.0794,-6.0794,-6.0794,-6.0794,-6.0794,-6.485,-6.4816,-6.4783,-6.4647,-6.5068,-6.5348,0.0,0.0,0.0,0.0,0.0,0.0,0.0,0.0,0.0,0.0,0.0,0.0,0.0,-6.6643,0.0,-6.6812,-6.6812,-6.6812,-6.6812,-6.6812,-6.6812,-6.6812,-6.7489,-6.8233,-6.9045,-6.9789,-7.0534,-7.1312,-7.1312,-7.1312,-7.1312,-7.1312,-7.1312,-7.1312,-7.1312,-7.1312,-7.1312,-7.1312,-7.1312,-7.1312,-7.1312,-7.1312,-7.1312,-7.1312,-7.1312,-7.1312,-7.1312,-7.1312,-7.1312,-7.1312,-7.1312,-7.1312,-7.1312,-7.1312,-7.1312,-7.1312,-7.1312,-7.1312,-7.1312,-7.1312,-7.1312,-7.1312,-7.1312,-7.1312,-7.1312,-7.1312,-7.1312,-7.1312,-7.1312,-7.1312,-7.1312,-7.1312,-7.1312,-7.1312,-7.1312,-7.1312,-7.1312,-7.1312,-7.1312,-7.1312,-7.006,-6.9035,-6.886,-6.7468,-6.6105,-6.5114,-6.4844,-6.4077,-6.2467,-6.2121,-6.1652,-6.0845,-6.0794,-6.0794,-6.0794,-6.0794,-6.0794,-6.0794,-6.0794,-6.0794,-6.0794,-6.0794,-6.0794,-6.0794,-6.0794,-6.0794,-6.573,-6.5561,-6.5425,-6.4749,-6.4661,-6.4701,-6.4654,0.0,-6.4735,-6.4715,0.0,0.0,0.0,0.0,0.0,0.0,0.0,0.0,-6.5019,-6.6,-6.6812,-6.6812,-6.6812,-6.6812,-6.6812,-6.6812,-6.6812,-6.6812,-6.7489,-6.8233,-6.9045,-6.9789,-7.0534,-7.1312,-7.1312,-7.1312,-7.1312,-7.1312,-7.1312,-7.1312,-7.1312,-7.1312,-7.1312,-7.1312,-7.1312,-7.1312,-7.1312,-7.1312,-7.1312,-7.1312,-7.1312,-7.1312,-7.1312,-7.1312,-7.1312,-7.1312,-7.1312,-7.1312,-7.1312,-7.1312,-7.1312,-7.1312,-7.1312,-7.1312,-7.1312,-7.1312,-7.1312,-7.1312,-7.1312,-7.1312,-7.1312,-7.1312,-7.1312,-7.1312,-7.1312,-7.1312,-7.1312,-7.1312,-7.1312,-7.1312,-7.1312,-7.1312,-7.1312,-7.1312,-7.1312,-7.1312,-7.006,-6.8772,-6.7866,-6.64,-6.5069,-6.4077,-6.318,-6.2565,-6.2319,-6.145,-6.0949,-6.0794,-6.0794,-6.0794,-6.0794,-6.0794,-6.0794,-6.0794,-6.0794,-6.0794,-6.0794,-6.0794,-6.0794,-6.0794,-6.0794,-6.0794,0.0,0.0,-6.6271,-6.5967,-6.5899,-6.5899,-6.5899,-6.5899,-6.5899,0.0,0.0,0.0,0.0,0.0,0.0,0.0,-6.6406,0.0,0.0,0.0,-6.6812,0.0,0.0,0.0,-6.6812,-6.6812,-6.6812,-6.6812,-6.7117,-6.759,-6.8368,-6.9147,-6.9891,-7.0635,-7.1075,-7.1312,-7.1312,-7.1312,-7.1312,-7.1312,-7.1312,-7.1312,-7.1312,-7.1312,-7.1312,-7.1312,-7.1312,-7.1312,-7.1312,-7.1312,-7.1312,-7.1312,-7.1312,-7.1312,-7.1312,-7.1312,-7.1312,-7.1312,-7.1312,-7.1312,-7.1312,-7.1312,-7.1312,-7.1312,-7.1312,-7.1312,-7.1312,-7.1312,-7.1312,-7.1312,-7.1312,-7.1312,-7.1312,-7.1312,-7.1312,-7.1312,-7.1312,-7.1312,-7.1312,-7.1312,-7.1312,-7.1312,-7.1312,-7.1312,-7.1312,-7.1312,-6.9547,-6.808,-6.7637,-6.5732,-6.4031,-6.3068,-6.2534,-6.2072,-6.145,-6.1021,-6.0794,-6.0794,-6.0794,-6.0794,-6.0794,-6.0794,-6.0794,-6.0794,-6.0794,-6.0794,-6.0794,-6.0794,-6.0794,-6.0794,-6.0794,-6.0794,-6.6812,0.0,0.0,0.0,0.0,0.0,0.0,0.0,0.0,0.0,0.0,0.0,0.0,0.0,0.0,0.0,0.0,-6.6677,0.0,-6.6576,0.0,0.0,0.0,0.0,0.0,-6.6812,-6.6812,-6.6812,-6.6812,-6.7117,-6.7861,-6.8673,-6.9451,-7.0161,-7.0939,-7.1312,-7.1312,-7.1312,-7.1312,-7.1312,-7.1312,-7.1312,-7.1312,-7.1312,-7.1312,-7.1312,-7.1312,-7.1312,-7.1312,-7.1312,-7.1312,-7.1312,-7.1312,-7.1312,-7.1312,-7.1312,-7.1312,-7.1312,-7.1312,-7.1312,-7.1312,-7.1312,-7.1312,-7.1312,-7.1312,-7.1312,-7.1312,-7.1312,-7.1312,-7.1312,-7.1312,-7.1312,-7.1312,-7.1312,-7.1312,-7.1312,-7.1312,-7.1312,-7.1312,-7.1312,-7.1312,-7.1312,-7.1312,-7.1312,-7.1222,-7.0916,-6.9182,-6.7605,-6.6813,-6.4913,-6.3212,-6.2003,-6.1903,-6.1602,-6.0845,-6.0794,-6.0794,-6.0794,-6.0794,-6.0794,-6.0794,-6.0794,-6.0794,-6.0794,-6.0794,-6.0794,-6.0794,-6.0794,-6.0794,-6.0794,-6.0794,-6.0794,0.0,0.0,0.0,-6.6812,0.0,0.0,0.0,0.0,-6.6812,0.0,0.0,0.0,0.0,0.0,0.0,0.0,0.0,0.0,0.0,0.0,0.0,0.0,0.0,0.0,0.0,-6.6812,-6.6812,-6.6812,-6.6812,-6.7117,-6.7861,-6.8673,-6.9451,-7.0161,-7.0939,-7.1312,-7.1312,-7.1312,-7.1312,-7.1312,-7.1312,-7.1312,-7.1312,-7.1312,-7.1312,-7.1312,-7.1312,-7.1312,-7.1312,-7.1312,-7.1312,-7.1312,-7.1312,-7.1312,-7.1312,-7.1312,-7.1312,-7.1312,-7.1312,-7.1312,-7.1312,-7.1312,-7.1312,-7.1312,-7.1312,-7.1312,-7.1312,-7.1312,-7.1312,-7.1312,-7.1312,-7.1312,-7.1312,-7.1312,-7.1312,-7.1312,-7.1312,-7.1312,-7.1312,-7.1312,-7.1312,-7.1312,-7.1312,-7.1312,-7.0961,-6.9935,-6.9116,-6.7567,-6.4843,-6.3792,-6.2676,-6.101,-6.0845,-6.0845,-6.0794,-6.0794,-6.0794,-6.0794,-6.0794,-6.0794,-6.0794,-6.0794,-6.0794,-6.0794,-6.0794,-6.0794,-6.0794,-6.0794,-6.0794,-6.0794,-6.0794,-6.0794,0.0,0.0,-6.6812,-6.6812,0.0,0.0,0.0,0.0,0.0,0.0,0.0,0.0,0.0,0.0,0.0,0.0,0.0,0.0,0.0,0.0,0.0,0.0,0.0,0.0,0.0,0.0,-6.6812,-6.6812,-6.6812,-6.6914,-6.7184,-6.8402,-6.9214,-6.9451,-7.0669,-7.1312,-7.1312,-7.1312,-7.1312,-7.1312,-7.1312,-7.1312,-7.1312,-7.1312,-7.1312,-7.1312,-7.1312,-7.1312,-7.1312,-7.1312,-7.1312,-7.1312,-7.1312,-7.1312,-7.1312,-7.1312,-7.1312,-7.1312,-7.1312,-7.1312,-7.1312,-7.1312,-7.1312,-7.1312,-7.1312,-7.1312,-7.1312,-7.1312,-7.1312,-7.1312,-7.1312,-7.1312,-7.1312,-7.1312,-7.1312,-7.1312,-7.1312,-7.1312,-7.1312,-7.1312,-7.1312,-7.1052,-7.0343,-7.025,-7.0123,-6.976,-6.7883,-6.603,-6.459,-6.3192,-6.1919,-6.0907,-6.0794,-6.0794,-6.0794,-6.0794,-6.0794,-6.0794,-6.0794,-6.0794,-6.0794,-6.0794,-6.0794,-6.0794,-6.0794,-6.0794,-6.0794,-6.0794,-6.0794,-6.0794,-6.0794,-6.0794,-6.6812,-6.6812,0.0,-6.6812,-6.6812,0.0,-6.6812,0.0,-6.6812,0.0,0.0,0.0,0.0,0.0,0.0,0.0,0.0,0.0,0.0,-6.6812,0.0,0.0,0.0,0.0,0.0,-6.6812,-6.6812,-6.6812,-6.6812,-6.6812,-6.6812,-6.7996,-6.8808,-6.9079,-7.0297,-7.1041,-7.1312,-7.1312,-7.1312,-7.1312,-7.1312,-7.1312,-7.1312,-7.1312,-7.1312,-7.1312,-7.1312,-7.1312,-7.1312,-7.1312,-7.1312,-7.1312,-7.1312,-7.1312,-7.1312,-7.1312,-7.1312,-7.1312,-7.1312,-7.1312,-7.1312,-7.1312,-7.1312,-7.1312,-7.1312,-7.1312,-7.1278,-7.0973,-7.1109,-7.1244,-7.0973,-7.1109,-7.1312,-7.1312,-7.1312,-7.1312,-7.1312,-7.1312,-7.1312,-7.1312,-7.1312,-7.1052,-7.0389,-6.9935,-6.9427,-6.8667,-6.6786,-6.5092,-6.3954,-6.2653,-6.1532,-6.0886,-6.0794,-6.0794,-6.0794,-6.0794,-6.0794,-6.0794,-6.0794,-6.0794,-6.0794,-6.0794,-6.1009,-6.1502,-6.104,-6.104,-6.1502,-6.104,-6.0794,-6.0794,-6.0794,-6.0794]},{"header":{"parameterUnit":"m.s-1","parameterCategory":1,"la1":30.6,"la2":29.2853,"lo1":-89.7004,"lo2":-87.6739,"dy":0.0162,"dx":0.0183,"nx":112,"ny":82,"refTime":"2023-04-01T06:00:00:Z","depth":0,"parameterNumber":3,"parameterNumberName":"V-component_of_WINDS"},"data":[0.0,0.0,0.0,0.0,0.0,0.0,0.0,0.0,0.0,0.0,0.0,0.0,0.0,0.0,0.0,0.0,0.0,0.0,0.0,0.0,0.0,0.0,0.0,0.0,0.0,0.0,0.0,0.0,0.0,0.0,0.0,0.0,0.0,0.0,0.0,0.0,0.0,0.0,0.0,0.0,0.0,0.0,0.0,0.0,0.0,0.0,0.0,0.0,0.0,0.0,0.0,0.0,0.0,0.0,0.0,0.0,0.0,0.0,0.0,0.0,0.0,0.0,0.0,0.0,0.0,0.0,0.0,0.0,0.0,0.0,0.0,0.0,0.0,0.0,0.0,0.0,0.0,0.0,0.0,0.0,0.0,0.0,0.0,0.0,0.0,0.0,0.0,0.0,0.0,0.0,3.5265,3.5114,3.5665,3.6016,3.6016,3.6016,3.5644,3.4766,0.0,0.0,0.0,0.0,0.0,0.0,0.0,0.0,0.0,0.0,0.0,0.0,0.0,0.0,0.0,0.0,0.0,0.0,0.0,0.0,0.0,0.0,0.0,0.0,0.0,0.0,0.0,0.0,0.0,0.0,0.0,0.0,0.0,0.0,0.0,0.0,0.0,0.0,0.0,0.0,0.0,0.0,0.0,0.0,0.0,0.0,0.0,0.0,0.0,0.0,0.0,0.0,0.0,0.0,0.0,0.0,0.0,0.0,0.0,0.0,0.0,0.0,0.0,0.0,0.0,0.0,0.0,0.0,0.0,0.0,0.0,0.0,0.0,0.0,0.0,0.0,0.0,0.0,0.0,0.0,0.0,0.0,0.0,0.0,0.0,0.0,0.0,0.0,0.0,0.0,0.0,0.0,0.0,0.0,0.0,0.0,0.0,0.0,0.0,0.0,0.0,0.0,0.0,0.0,3.5098,3.5772,3.5908,3.6016,3.6016,3.6016,3.5644,3.4766,0.0,0.0,0.0,0.0,0.0,0.0,0.0,0.0,0.0,0.0,0.0,0.0,0.0,0.0,0.0,0.0,0.0,0.0,0.0,0.0,0.0,0.0,0.0,0.0,0.0,0.0,0.0,0.0,0.0,0.0,0.0,0.0,0.0,0.0,0.0,0.0,0.0,0.0,0.0,0.0,0.0,0.0,0.0,0.0,0.0,0.0,0.0,0.0,0.0,0.0,0.0,0.0,0.0,0.0,0.0,0.0,0.0,0.0,0.0,0.0,0.0,0.0,0.0,0.0,0.0,0.0,0.0,0.0,0.0,0.0,0.0,0.0,0.0,0.0,0.0,0.0,0.0,0.0,0.0,0.0,0.0,0.0,0.0,0.0,0.0,0.0,0.0,0.0,0.0,0.0,0.0,0.0,0.0,0.0,0.0,0.0,0.0,0.0,0.0,0.0,0.0,0.0,0.0,3.5059,3.5312,3.5957,3.6016,3.6016,3.6016,3.6016,3.5644,3.4766,3.4707,0.0,0.0,0.0,0.0,0.0,0.0,0.0,0.0,0.0,0.0,0.0,0.0,0.0,0.0,0.0,0.0,0.0,0.0,0.0,0.0,0.0,0.0,0.0,0.0,0.0,0.0,0.0,0.0,0.0,0.0,0.0,0.0,0.0,0.0,0.0,0.0,0.0,0.0,0.0,0.0,0.0,0.0,0.0,0.0,0.0,0.0,0.0,0.0,0.0,0.0,0.0,0.0,0.0,0.0,0.0,0.0,0.0,0.0,0.0,0.0,0.0,0.0,0.0,0.0,0.0,0.0,0.0,0.0,0.0,0.0,0.0,0.0,0.0,0.0,0.0,0.0,0.0,0.0,0.0,0.0,0.0,0.0,0.0,0.0,0.0,0.0,0.0,0.0,0.0,0.0,0.0,0.0,0.0,0.0,0.0,0.0,0.0,0.0,0.0,0.0,0.0,0.0,3.5195,3.5664,3.5996,3.6016,3.6016,3.6016,3.5937,3.5547,3.4746,3.4609,0.0,0.0,0.0,0.0,0.0,0.0,0.0,0.0,0.0,0.0,0.0,0.0,0.0,0.0,0.0,0.0,0.0,0.0,0.0,0.0,0.0,0.0,0.0,0.0,0.0,0.0,0.0,0.0,0.0,0.0,0.0,0.0,0.0,0.0,0.0,0.0,0.0,0.0,0.0,0.0,0.0,0.0,0.0,0.0,0.0,0.0,0.0,0.0,0.0,0.0,0.0,0.0,0.0,0.0,0.0,0.0,0.0,0.0,0.0,0.0,0.0,0.0,0.0,0.0,0.0,0.0,0.0,0.0,0.0,0.0,0.0,0.0,0.0,0.0,0.0,0.0,0.0,0.0,0.0,0.0,0.0,0.0,0.0,0.0,0.0,0.0,0.0,0.0,0.0,0.0,0.0,0.0,0.0,0.0,0.0,0.0,0.0,0.0,0.0,0.0,0.0,0.0,3.5449,3.5996,3.6016,3.6016,3.6016,3.6016,3.5664,3.5234,3.4726,3.4336,0.0,0.0,0.0,0.0,0.0,0.0,0.0,0.0,0.0,0.0,0.0,0.0,0.0,0.0,0.0,0.0,0.0,0.0,0.0,0.0,0.0,0.0,0.0,0.0,0.0,0.0,0.0,0.0,0.0,0.0,0.0,0.0,0.0,0.0,0.0,0.0,0.0,0.0,0.0,0.0,0.0,0.0,0.0,0.0,0.0,0.0,0.0,0.0,0.0,0.0,0.0,0.0,0.0,0.0,0.0,0.0,0.0,0.0,0.0,0.0,0.0,0.0,0.0,0.0,0.0,0.0,0.0,0.0,0.0,0.0,0.0,0.0,0.0,0.0,0.0,0.0,0.0,0.0,0.0,0.0,0.0,0.0,0.0,0.0,0.0,0.0,0.0,0.0,0.0,0.0,0.0,0.0,0.0,0.0,0.0,0.0,0.0,0.0,0.0,0.0,0.0,0.0,3.5234,3.5723,0.0,3.6016,3.6016,3.6016,3.5879,3.5469,3.4746,0.0,0.0,0.0,0.0,0.0,0.0,0.0,0.0,0.0,0.0,0.0,0.0,0.0,0.0,0.0,0.0,0.0,0.0,0.0,0.0,0.0,0.0,0.0,0.0,0.0,0.0,0.0,0.0,0.0,0.0,0.0,0.0,0.0,0.0,0.0,0.0,0.0,0.0,0.0,0.0,0.0,0.0,0.0,0.0,0.0,0.0,0.0,0.0,0.0,0.0,0.0,0.0,0.0,0.0,0.0,0.0,0.0,0.0,0.0,0.0,0.0,0.0,0.0,0.0,0.0,0.0,0.0,0.0,0.0,0.0,0.0,0.0,0.0,0.0,0.0,0.0,0.0,0.0,0.0,0.0,0.0,0.0,0.0,0.0,0.0,0.0,0.0,0.0,0.0,0.0,0.0,0.0,0.0,0.0,0.0,0.0,0.0,0.0,0.0,0.0,0.0,0.0,3.4766,3.5215,3.5703,0.0,3.6016,3.6016,3.6016,3.5898,3.5508,3.4746,0.0,0.0,0.0,0.0,0.0,0.0,0.0,0.0,0.0,0.0,0.0,0.0,0.0,0.0,0.0,0.0,0.0,0.0,0.0,0.0,0.0,0.0,0.0,0.0,0.0,0.0,0.0,0.0,0.0,0.0,0.0,0.0,0.0,0.0,0.0,0.0,0.0,0.0,0.0,0.0,0.0,0.0,0.0,0.0,0.0,0.0,0.0,0.0,0.0,0.0,0.0,0.0,0.0,0.0,0.0,0.0,0.0,0.0,0.0,0.0,0.0,0.0,0.0,0.0,0.0,0.0,0.0,0.0,0.0,0.0,0.0,0.0,0.0,0.0,0.0,0.0,0.0,0.0,0.0,0.0,0.0,0.0,0.0,0.0,0.0,0.0,0.0,0.0,0.0,0.0,0.0,0.0,0.0,0.0,0.0,0.0,0.0,0.0,0.0,0.0,0.0,0.0,3.4766,3.5469,3.6016,3.6016,3.6016,3.6016,3.6016,3.5644,3.5195,0.0,0.0,0.0,0.0,0.0,0.0,0.0,0.0,0.0,0.0,0.0,0.0,0.0,0.0,0.0,0.0,0.0,0.0,0.0,0.0,0.0,0.0,0.0,0.0,0.0,0.0,0.0,0.0,0.0,0.0,0.0,0.0,0.0,0.0,0.0,0.0,0.0,0.0,0.0,0.0,0.0,0.0,0.0,0.0,0.0,0.0,0.0,0.0,0.0,0.0,0.0,0.0,0.0,0.0,0.0,0.0,0.0,0.0,0.0,0.0,0.0,0.0,0.0,0.0,0.0,0.0,0.0,0.0,0.0,0.0,0.0,0.0,0.0,0.0,0.0,0.0,0.0,0.0,0.0,0.0,0.0,0.0,0.0,0.0,0.0,0.0,0.0,0.0,0.0,0.0,0.0,0.0,0.0,0.0,0.0,0.0,0.0,0.0,0.0,0.0,0.0,0.0,0.0,3.4766,3.5469,3.6016,3.6016,3.6016,3.6016,3.6016,3.5898,3.5508,3.4746,0.0,0.0,0.0,0.0,0.0,0.0,0.0,0.0,0.0,0.0,0.0,0.0,0.0,0.0,0.0,0.0,0.0,0.0,0.0,0.0,0.0,0.0,0.0,0.0,0.0,0.0,0.0,0.0,0.0,0.0,0.0,0.0,0.0,0.0,0.0,0.0,0.0,0.0,0.0,0.0,0.0,0.0,0.0,0.0,0.0,0.0,0.0,0.0,0.0,0.0,0.0,0.0,0.0,0.0,0.0,0.0,0.0,0.0,0.0,0.0,0.0,0.0,0.0,0.0,0.0,0.0,0.0,0.0,0.0,0.0,0.0,0.0,0.0,0.0,0.0,0.0,0.0,0.0,0.0,0.0,0.0,0.0,0.0,0.0,0.0,0.0,0.0,0.0,0.0,0.0,0.0,0.0,0.0,0.0,0.0,0.0,0.0,0.0,0.0,0.0,0.0,0.0,3.4726,3.5469,3.6016,3.6016,3.6016,3.6016,3.6016,3.6016,3.5723,3.5019,0.0,0.0,0.0,0.0,0.0,0.0,0.0,0.0,0.0,0.0,0.0,0.0,0.0,0.0,0.0,0.0,0.0,0.0,0.0,0.0,0.0,0.0,0.0,0.0,0.0,0.0,0.0,0.0,0.0,0.0,0.0,0.0,0.0,0.0,0.0,0.0,0.0,0.0,0.0,0.0,0.0,0.0,0.0,0.0,0.0,0.0,0.0,0.0,0.0,0.0,0.0,0.0,0.0,0.0,0.0,0.0,0.0,0.0,0.0,0.0,0.0,0.0,0.0,0.0,0.0,0.0,0.0,0.0,0.0,0.0,0.0,0.0,0.0,0.0,0.0,0.0,0.0,0.0,0.0,0.0,0.0,0.0,0.0,0.0,0.0,0.0,0.0,0.0,0.0,0.0,0.0,0.0,0.0,0.0,0.0,0.0,0.0,0.0,0.0,0.0,0.0,0.0,3.4707,3.5469,3.6016,3.6016,3.6016,3.6016,3.6016,3.6016,3.584,3.543,0.0,0.0,0.0,0.0,0.0,0.0,0.0,0.0,0.0,0.0,0.0,0.0,0.0,0.0,0.0,0.0,0.0,0.0,0.0,0.0,0.0,0.0,0.0,0.0,0.0,0.0,0.0,0.0,0.0,0.0,0.0,0.0,0.0,0.0,0.0,0.0,0.0,0.0,0.0,0.0,0.0,0.0,0.0,0.0,0.0,0.0,0.0,0.0,0.0,0.0,0.0,0.0,0.0,0.0,0.0,0.0,0.0,0.0,0.0,0.0,3.5769,3.5247,0.0,0.0,0.0,0.0,0.0,0.0,0.0,0.0,0.0,0.0,0.0,0.0,0.0,0.0,0.0,0.0,0.0,0.0,0.0,0.0,0.0,0.0,0.0,0.0,0.0,0.0,0.0,0.0,0.0,0.0,0.0,0.0,0.0,0.0,0.0,0.0,0.0,0.0,0.0,0.0,3.4707,3.5469,3.6016,3.6016,3.6016,3.6016,3.6016,3.6016,3.584,3.543,3.5293,0.0,0.0,0.0,0.0,0.0,0.0,0.0,0.0,0.0,0.0,0.0,0.0,0.0,0.0,0.0,0.0,0.0,0.0,0.0,0.0,0.0,0.0,0.0,0.0,0.0,0.0,0.0,0.0,0.0,0.0,0.0,0.0,0.0,0.0,0.0,0.0,0.0,0.0,0.0,0.0,0.0,0.0,0.0,0.0,0.0,0.0,0.0,0.0,0.0,0.0,0.0,0.0,0.0,0.0,0.0,0.0,0.0,0.0,0.0,3.6682,3.6368,0.0,0.0,0.0,0.0,0.0,0.0,0.0,0.0,0.0,0.0,0.0,0.0,0.0,0.0,0.0,0.0,0.0,0.0,0.0,0.0,0.0,0.0,0.0,0.0,0.0,0.0,0.0,0.0,0.0,0.0,0.0,0.0,0.0,0.0,0.0,0.0,0.0,0.0,0.0,0.0,3.5,3.5605,3.6016,3.6016,3.6016,3.6016,3.6016,3.6016,3.5937,3.5703,3.5508,0.0,0.0,0.0,0.0,0.0,0.0,0.0,0.0,0.0,0.0,0.0,0.0,0.0,0.0,0.0,0.0,0.0,0.0,0.0,0.0,0.0,0.0,0.0,0.0,0.0,0.0,0.0,0.0,0.0,0.0,0.0,0.0,0.0,0.0,0.0,0.0,0.0,0.0,0.0,0.0,0.0,0.0,0.0,0.0,0.0,0.0,0.0,0.0,0.0,0.0,0.0,0.0,0.0,3.686,3.7003,3.7003,3.7378,3.7519,3.7519,3.7068,3.7313,3.7871,3.7168,0.0,0.0,0.0,0.0,0.0,0.0,0.0,0.0,0.0,0.0,0.0,0.0,0.0,0.0,0.0,0.0,0.0,0.0,0.0,0.0,0.0,0.0,3.7617,3.7949,3.8027,3.7949,3.7598,0.0,0.0,0.0,0.0,0.0,0.0,0.0,0.0,0.0,0.0,0.0,3.5351,3.5762,3.6016,3.6016,3.6016,3.6016,3.6016,3.6016,3.6016,3.6016,3.5625,3.5215,0.0,0.0,0.0,0.0,0.0,0.0,0.0,0.0,0.0,0.0,0.0,0.0,0.0,0.0,0.0,0.0,0.0,0.0,0.0,0.0,0.0,0.0,0.0,0.0,0.0,0.0,0.0,0.0,0.0,0.0,0.0,0.0,3.4195,3.4379,0.0,0.0,0.0,0.0,0.0,0.0,0.0,0.0,0.0,0.0,0.0,0.0,0.0,3.6337,3.7115,3.7187,3.7523,3.8253,3.8326,3.8326,3.8326,3.8398,3.8398,3.8379,3.7936,0.0,3.791,3.7812,0.0,0.0,0.0,0.0,0.0,0.0,0.0,0.0,0.0,0.0,0.0,0.0,0.0,0.0,0.0,0.0,0.0,0.0,0.0,0.0,0.0,0.0,3.8418,3.8476,3.8496,3.8476,3.8418,3.7812,3.7285,3.7226,3.6914,3.6406,0.0,0.0,0.0,0.0,0.0,0.0,3.5391,3.5762,3.6016,3.6016,3.6016,3.6016,3.6016,3.6016,3.6016,3.6016,3.5625,3.5371,3.5312,3.4629,0.0,0.0,0.0,0.0,0.0,0.0,0.0,0.0,0.0,0.0,0.0,0.0,0.0,0.0,0.0,0.0,0.0,0.0,0.0,0.0,0.0,0.0,0.0,0.0,0.0,0.0,0.0,0.0,0.0,3.4495,3.4899,3.532,3.5174,3.4954,0.0,0.0,0.0,0.0,0.0,0.0,0.0,0.0,0.0,3.6474,3.6565,3.6918,3.772,3.772,3.8035,3.8574,3.8574,3.8574,3.8574,3.8574,3.8574,3.8555,3.8379,3.8281,3.8281,3.8027,3.793,3.7891,0.0,0.0,0.0,0.0,3.7031,3.7051,3.7226,3.7578,3.7891,3.7715,0.0,0.0,0.0,0.0,0.0,0.0,0.0,3.7344,3.7598,3.793,3.8281,3.8516,3.8574,3.8574,3.8574,3.8281,3.7871,3.7383,3.7148,3.668,3.5586,3.5391,0.0,0.0,0.0,3.5488,3.5723,3.5898,3.6016,3.6016,3.6016,3.6016,3.6016,3.6016,3.5918,3.5684,3.5488,3.5176,3.4668,3.4512,3.4082,0.0,0.0,0.0,0.0,0.0,0.0,0.0,0.0,0.0,0.0,0.0,0.0,0.0,0.0,0.0,0.0,0.0,0.0,0.0,0.0,0.0,0.0,0.0,0.0,0.0,0.0,0.0,0.0,3.477,3.5174,3.5577,3.5449,3.5302,0.0,0.0,0.0,0.0,0.0,0.0,3.6089,3.6089,3.6421,3.7272,3.7292,3.7517,3.8155,3.8155,3.8302,3.8574,3.8574,3.8574,3.8574,3.8574,3.8574,3.8574,3.8574,3.8574,3.8555,3.8223,3.8086,3.8086,3.7969,3.7734,3.7461,3.7461,3.7461,3.748,3.7578,3.7832,3.8086,3.8086,3.8086,3.8066,3.7969,0.0,0.0,0.0,0.0,3.7539,3.7851,3.8008,3.8164,3.8496,3.8574,3.8574,3.8574,3.8496,3.8223,3.7578,3.7363,3.6934,3.5762,3.5547,0.0,3.541,0.0,3.5664,3.5976,3.6016,3.6016,3.6016,3.6016,3.6016,3.6016,3.6016,3.5879,3.5566,3.5449,3.5039,3.4258,3.4434,3.4236,3.3466,0.0,0.0,0.0,0.0,0.0,0.0,0.0,0.0,0.0,0.0,0.0,0.0,0.0,0.0,0.0,0.0,0.0,0.0,0.0,0.0,0.0,0.0,0.0,0.0,0.0,0.0,0.0,0.0,0.0,3.5577,3.5925,0.0,0.0,0.0,0.0,3.5582,3.592,3.6466,3.7297,3.7316,3.7653,3.8462,3.8535,3.8555,3.8574,3.8574,3.8574,3.8574,3.8574,3.8574,3.8574,3.8574,3.8574,3.8574,3.8574,3.8574,3.8574,3.8555,3.8535,3.8496,3.8086,3.791,3.7891,3.7891,3.7891,3.7949,3.8359,3.8516,3.8535,3.8535,3.8535,3.8457,3.8047,3.791,0.0,0.0,3.7578,3.7891,3.791,3.8223,3.8555,3.8574,3.8574,3.8574,3.8574,3.8242,3.7949,3.791,3.7578,3.7012,3.6133,0.0,3.5859,3.5449,3.5742,3.5996,3.6016,3.6016,3.6016,3.6016,3.6016,3.6016,3.6016,3.6016,3.6016,3.5996,3.5605,3.5176,3.4687,3.4297,3.4505,3.5232,3.3691,0.0,0.0,0.0,0.0,0.0,0.0,0.0,0.0,0.0,0.0,0.0,0.0,0.0,0.0,0.0,0.0,0.0,0.0,0.0,0.0,0.0,0.0,0.0,0.0,0.0,0.0,0.0,0.0,3.5577,3.6181,0.0,3.5997,3.656,3.6793,3.6406,3.696,3.7479,3.7778,3.7778,3.8054,3.8574,3.8574,3.8574,3.8574,3.8574,3.8574,3.8574,3.8574,3.8574,3.8574,3.8574,3.8574,3.8574,3.8574,3.8574,3.8574,3.8574,3.8574,3.8555,3.8398,3.834,3.834,3.834,3.834,3.8359,3.8516,3.8574,3.8574,3.8574,3.8574,3.8555,3.8398,3.834,3.8301,3.8164,3.8223,3.834,3.834,3.8457,3.8574,3.8574,3.8574,3.8496,3.8223,3.8027,3.7773,3.7226,3.6992,3.6699,3.6113,3.6016,3.5976,3.582,3.5918,3.6016,3.6016,3.6016,3.6016,3.6016,3.6016,3.6016,3.6016,3.6016,3.6305,3.6922,3.5984,3.5574,3.6034,3.5052,3.4516,3.4592,3.4727,3.4285,0.0,0.0,0.0,0.0,0.0,0.0,0.0,0.0,0.0,0.0,0.0,0.0,0.0,0.0,0.0,0.0,0.0,0.0,0.0,0.0,0.0,0.0,0.0,0.0,0.0,3.5168,3.5682,3.5814,3.6382,3.6767,3.664,3.7223,3.7494,3.7204,3.7836,3.8228,3.8228,3.8228,3.8282,3.8574,3.8574,3.8574,3.8574,3.8574,3.8574,3.8574,3.8574,3.8574,3.8574,3.8574,3.8574,3.8574,3.8574,3.8574,3.8574,3.8574,3.8574,3.8574,3.8574,3.8574,3.8574,3.8574,3.8574,3.8574,3.8574,3.8574,3.8574,3.8574,3.8574,3.8574,3.8574,3.8574,3.8574,3.8574,3.8574,3.8574,3.8574,3.8574,3.8574,3.8574,3.8574,3.8496,3.8203,3.8027,3.7754,3.7207,3.6875,3.6543,3.6094,3.6016,3.6016,3.6016,3.6016,3.6016,3.6016,3.6016,3.6016,3.6016,3.6016,3.6016,3.6016,3.6016,3.6285,3.6988,3.6569,3.6302,3.6343,3.5726,3.5187,3.4768,3.5831,3.5786,3.4546,0.0,0.0,0.0,0.0,0.0,0.0,0.0,0.0,0.0,0.0,0.0,0.0,0.0,0.0,0.0,0.0,0.0,0.0,0.0,0.0,0.0,0.0,0.0,3.499,3.5375,3.5778,3.6161,3.657,3.7034,3.7402,3.7789,3.8009,3.8009,3.8375,3.8574,3.8574,3.8574,3.8574,3.8574,3.8574,3.8574,3.8574,3.8574,3.8574,3.8574,3.8574,3.8574,3.8574,3.8574,3.8574,3.8574,3.8574,3.8574,3.8574,3.8574,3.8574,3.8574,3.8574,3.8574,3.8574,3.8574,3.8574,3.8574,3.8574,3.8574,3.8574,3.8574,3.8574,3.8574,3.8574,3.8574,3.8574,3.8574,3.8574,3.8574,3.8574,3.8574,3.8574,3.8574,3.8574,3.8574,3.8555,3.8223,3.791,3.791,3.7246,3.6562,3.6133,3.6055,3.6055,3.6055,3.6055,0.0,3.6055,3.6055,3.6055,3.6035,3.6055,3.6055,3.6035,3.6035,3.6035,3.6103,3.7327,3.7258,3.563,3.6384,3.6599,3.6143,3.69,3.791,3.9216,0.0,0.0,0.0,0.0,0.0,0.0,0.0,0.0,0.0,0.0,0.0,0.0,0.0,0.0,0.0,0.0,0.0,0.0,0.0,0.0,0.0,3.5388,3.5773,3.5884,3.6195,3.6509,3.6607,3.7473,3.8063,3.7862,3.8228,3.8428,3.8428,3.8501,3.8574,3.8574,3.8574,3.8574,3.8574,3.8574,3.8574,3.8574,3.8574,3.8574,3.8574,3.8574,3.8574,3.8574,3.8574,3.8574,3.8574,3.8574,3.8574,3.8574,3.8574,3.8574,3.8574,3.8574,3.8574,3.8574,3.8574,3.8574,3.8574,3.8574,3.8574,3.8574,3.8574,3.8574,3.8574,3.8574,3.8574,3.8574,3.8574,3.8574,3.8574,3.8574,3.8574,3.8574,3.8574,3.8574,3.8496,3.8164,3.8008,3.7832,3.7539,3.7285,3.709,3.6973,3.6953,3.6953,3.6953,3.6953,0.0,3.6953,3.6953,3.6836,3.6523,3.6758,3.6816,3.6523,3.6484,3.6946,3.7861,3.7104,3.7266,3.8845,3.8127,3.8464,3.9958,3.7689,3.7475,0.0,0.0,0.0,0.0,0.0,0.0,0.0,0.0,0.0,0.0,0.0,0.0,0.0,0.0,0.0,0.0,0.0,0.0,0.0,0.0,0.0,0.0,3.6152,3.6563,3.6878,3.7042,3.7045,3.707,3.7843,3.8282,3.8228,3.8428,3.8574,3.8574,3.8574,3.8574,3.8574,3.8574,3.8574,3.8574,3.8574,3.8574,3.8574,3.8574,3.8574,3.8574,3.8574,3.8574,3.8574,3.8574,3.8574,3.8574,3.8574,3.8574,3.8574,3.8574,3.8574,3.8574,0.0,0.0,0.0,0.0,3.8574,3.8574,3.8574,3.8574,3.8574,3.8574,3.8574,3.8574,3.8574,3.8574,3.8574,3.8574,3.8574,3.8574,3.8574,3.8574,3.8574,3.8574,3.8574,3.8496,3.8242,3.8203,3.8125,3.7871,3.7832,0.0,3.7832,3.7539,3.7305,3.7305,3.7305,3.7305,3.7305,3.7305,3.7207,3.6953,3.7148,3.7207,3.6953,3.6934,0.0,0.0,0.0,3.8877,4.0743,3.8935,0.0,0.0,0.0,3.9042,4.0858,4.0493,0.0,0.0,3.9098,3.8676,0.0,0.0,0.0,0.0,0.0,0.0,0.0,0.0,0.0,0.0,0.0,0.0,0.0,0.0,0.0,0.0,3.6856,3.7204,3.7805,3.7715,3.7476,3.7476,3.7789,3.8155,3.8574,3.8574,3.8574,3.8574,3.8574,3.8574,3.8574,3.8574,0.0,0.0,0.0,3.8574,3.8574,3.8574,3.8574,3.8574,3.8574,3.8574,3.8574,3.8574,3.8574,3.8574,3.8574,3.8574,3.8574,3.8574,3.8574,3.8574,3.8574,3.8574,3.8574,3.8574,3.8574,3.8574,3.8574,0.0,0.0,3.8574,3.8574,3.8574,3.8574,3.8574,3.8574,3.8574,3.8574,3.8574,3.8574,3.8574,3.8574,3.8574,3.8574,3.8574,3.8574,3.8574,3.8574,3.8574,3.8574,3.8574,3.8574,3.7949,3.7441,3.7441,3.7441,3.7441,3.7441,3.7441,3.7422,3.7363,0.0,0.0,3.7363,3.7363,3.7363,3.7363,3.9579,4.1086,4.1485,3.9303,3.9086,4.1161,4.1015,4.1626,4.2916,4.2916,4.2867,4.2771,4.0836,4.0186,0.0,0.0,0.0,0.0,0.0,0.0,0.0,0.0,0.0,0.0,0.0,0.0,0.0,0.0,0.0,3.6842,3.7368,3.7693,3.7549,3.799,3.8209,3.7936,3.7936,3.8155,3.8574,3.8574,3.8574,3.8574,3.8574,3.8574,3.8574,3.8574,3.8574,3.8574,3.8574,3.8574,3.8574,3.8574,3.8574,3.8574,3.8574,0.0,3.8574,3.8574,3.8574,3.8574,3.8574,3.8574,3.8574,3.8574,3.8574,3.8574,3.8574,3.8574,3.8574,3.8574,3.8574,3.8574,3.8574,3.8574,3.8574,3.8574,3.8574,3.8574,3.8574,3.8574,0.0,3.8574,3.8574,3.8574,3.8574,3.8574,3.8574,3.8574,3.8574,3.8574,3.8574,3.8574,3.8574,3.8574,3.8574,3.8574,3.8574,3.8437,3.832,3.832,3.832,3.832,3.832,3.832,3.8203,3.7832,3.8125,3.8184,3.7832,3.7812,3.7812,3.7812,4.0108,4.1285,4.0979,4.1631,4.25,4.3602,4.256,4.2475,4.3361,4.3361,4.3168,4.2819,4.241,4.1966,0.0,0.0,0.0,0.0,0.0,0.0,0.0,0.0,0.0,0.0,0.0,3.7164,0.0,0.0,3.7571,3.7408,3.7866,3.8209,3.799,3.8136,3.8228,3.8009,3.8155,3.8375,3.8574,3.8574,3.8574,3.8574,3.8574,3.8574,3.8574,3.8574,3.8574,3.8574,3.8574,3.8574,3.8574,3.8574,3.8574,3.8574,3.8574,3.8574,3.8574,3.8574,3.8574,3.8574,3.8574,3.8574,3.8574,3.8574,3.8574,3.8574,3.8574,3.8574,3.8574,3.8574,3.8574,3.8574,3.8574,3.8574,3.8574,3.8574,3.8574,3.8574,3.8574,3.8574,3.8574,3.8574,3.8574,3.8574,3.8574,3.8574,3.8574,3.8574,3.8574,3.8574,3.8574,3.8574,3.8574,3.8574,3.8574,3.8574,3.8574,3.8574,3.8574,3.8574,3.8574,3.8574,3.8574,3.8574,3.8496,3.8281,3.8437,3.8496,3.8262,3.8242,3.8432,3.8908,3.9441,4.0472,4.2214,4.2324,4.3101,4.4693,4.4018,4.3757,4.3938,4.3938,4.3794,4.3553,4.3553,4.312,0.0,0.0,0.0,0.0,0.0,0.0,0.0,3.6033,3.7068,3.7449,3.7539,3.7539,3.7539,3.7812,3.8047,3.8047,3.834,3.8574,3.8574,3.8302,3.8155,3.8155,3.8302,3.8501,3.8574,3.8574,3.8574,3.8574,3.8574,3.8574,3.8574,3.8574,3.8574,3.8574,3.8574,3.8574,3.8574,3.8574,3.8574,3.8574,3.8574,3.8574,3.8574,3.8574,3.8574,3.8574,3.8574,3.8574,3.8574,3.8574,3.8574,3.8574,3.8574,3.8574,3.8574,3.8574,3.8574,3.8574,3.8574,3.8574,3.8574,3.8574,3.8574,3.8574,3.8574,3.8574,3.8574,3.8574,3.8574,3.8574,3.8574,3.8574,3.8574,3.8574,3.8574,3.8574,3.8574,3.8574,3.8574,3.8574,3.8574,3.8574,3.8574,3.8574,3.8574,3.8574,3.8574,3.8574,3.8574,3.8574,3.8574,3.8574,3.8574,3.8574,3.8574,3.8574,3.8905,3.9668,3.9222,4.0124,4.2861,4.2705,4.3276,4.4777,4.5095,4.4957,4.4429,4.4429,4.4381,4.4285,4.4285,4.3842,2.6556,2.656,2.7184,2.9456,3.0086,3.1039,0.0,0.0,3.627,3.805,3.8437,3.8437,3.8437,3.8476,3.8496,3.8496,3.8555,3.8574,3.8574,3.8574,3.8501,3.8501,3.8228,3.8228,3.8574,3.8574,3.8574,3.8574,3.8574,3.8574,3.8574,3.8574,3.8574,3.8574,3.8574,3.8574,3.8574,3.8574,3.8574,3.8574,3.8574,3.8574,3.8574,3.8574,3.8574,3.8574,3.8574,3.8574,3.8574,3.8574,3.8574,3.8574,3.8574,3.8574,3.8574,3.8574,3.8574,3.8574,3.8574,3.8574,3.8574,3.8574,3.8574,3.8574,3.8574,3.8574,3.8574,3.8574,3.8574,3.8574,3.8574,3.8574,3.8574,3.8574,3.8574,3.8574,3.8574,3.8574,3.8574,3.8574,3.8574,3.8574,3.8574,3.8574,3.8574,3.8574,3.8574,3.8574,3.8574,3.8574,3.8574,3.8574,3.8574,3.8574,3.8574,3.8574,3.8627,3.8714,4.1072,4.1823,4.0473,4.4094,4.5432,4.389,4.5171,4.5573,4.4981,4.4981,4.4741,4.4285,4.4285,4.3949,2.7008,2.7046,2.7291,2.8867,3.0482,3.2234,3.4023,3.576,3.7248,3.8389,3.8428,3.8302,3.8574,3.8574,3.8501,0.0,3.8428,3.8501,3.8302,3.8428,3.8574,3.8574,3.8428,3.8428,3.8574,3.8574,3.8574,3.8574,3.8574,3.8574,3.8574,3.8574,3.8574,3.8574,3.8574,3.8574,3.8574,3.8574,3.8574,3.8574,3.8574,3.8574,3.8574,3.8574,3.8574,3.8574,3.8574,3.8574,3.8574,3.8574,3.8574,3.8574,3.8574,3.8574,3.8574,3.8574,3.8574,3.8574,3.8574,3.8574,3.8574,3.8574,3.8574,3.8574,3.8574,3.8574,3.8574,3.8574,3.8574,3.8574,3.8574,3.8574,3.8574,3.8574,3.8574,3.8574,3.8574,3.8574,3.8574,3.8574,3.8574,3.8574,3.8574,3.8574,3.8574,3.8574,3.8574,3.8574,3.8574,3.8574,3.8574,3.8574,3.8574,3.8574,3.8574,3.8574,3.8574,3.8574,3.9766,4.0859,4.1705,4.3551,4.4838,4.5432,4.6043,4.6126,4.5597,4.5597,4.5414,4.5197,4.5197,4.4909,2.7231,2.7236,2.7207,2.8453,3.0237,3.2057,3.3305,3.5121,3.6867,3.8136,3.8082,3.8009,3.8501,3.8428,3.8209,3.8155,3.8302,3.8302,3.8009,3.8375,3.8574,3.8428,3.8501,3.8574,3.8574,3.8574,3.8574,3.8574,3.8574,3.8574,3.8574,3.8574,3.8574,3.8574,3.8574,3.8574,3.8574,3.8691,3.875,3.875,3.8887,3.8945,3.8945,3.8945,3.8945,3.8945,3.8945,3.8945,3.8945,3.8945,3.8945,3.8926,3.8809,3.875,3.873,3.8613,3.8574,3.8574,3.8574,3.8574,3.8574,3.8574,3.8574,3.8574,3.8574,3.8574,3.8574,3.8574,3.8574,3.8574,3.8574,3.8574,3.8574,3.8574,3.8574,3.8574,3.8574,3.8574,3.8574,3.8574,3.8574,3.8574,3.8574,3.8574,3.8574,3.8574,3.8574,3.8574,3.8574,3.8574,3.8574,3.8574,3.8574,3.8574,3.8574,3.8574,3.8574,3.8574,3.8991,3.9962,4.17,4.2543,4.3844,4.5619,4.5685,4.5846,4.615,4.5739,4.5667,4.5934,4.5934,4.5718,2.6517,2.635,2.619,2.798,2.8109,2.87,3.2386,3.2918,3.3676,3.7255,3.7715,3.7623,3.8428,3.799,3.7696,3.8428,3.8302,3.8009,3.8009,3.8375,3.8428,3.8082,3.8375,3.8574,0.0,3.8574,3.8574,3.8574,3.8574,3.8574,3.8574,3.8574,3.8574,3.8574,3.8574,3.8574,3.8574,3.8984,3.918,3.9199,3.9648,3.9863,3.9863,3.9863,3.9863,3.9863,3.9863,3.9863,3.9863,3.9863,3.9863,3.9805,3.9355,3.918,3.9141,3.873,3.8574,3.8574,3.8574,3.8574,3.8574,3.8574,3.8574,3.8574,3.8574,3.8574,3.8574,3.8574,3.8574,3.8574,3.8574,3.8574,3.8574,3.8574,3.8574,3.8574,3.8574,3.8574,3.8574,3.8574,3.8574,3.8574,3.8574,3.8574,3.8574,3.8574,3.8574,3.8574,3.8574,3.8574,3.8574,3.8574,3.8574,3.8574,3.8574,3.8574,3.8574,3.8574,3.9962,4.0105,3.8793,4.1509,4.301,4.3149,4.3149,4.4301,4.668,4.5252,4.4995,4.5934,4.5934,4.591,0.0,0.0,2.6592,2.8017,2.8812,2.9556,3.087,3.1852,3.3146,3.5494,3.5667,3.5944,3.7494,3.7119,3.688,3.7673,3.7494,3.7372,3.7897,3.8155,3.8228,3.8375,3.8501,0.0,0.0,0.0,0.0,3.8574,3.8574,3.8574,3.8574,3.8574,3.8691,3.8984,3.8984,3.9141,3.9453,3.959,3.9668,3.9668,3.9824,3.9902,3.9902,3.9902,3.9902,3.9902,3.9902,3.9902,3.9902,3.9902,3.9902,3.9883,3.9726,3.9668,3.9648,3.9512,3.9453,3.9375,3.8769,3.8574,3.8574,3.8574,3.8574,3.8574,3.8574,3.8574,3.8574,3.8574,3.8574,3.8574,3.8574,3.8574,3.8574,3.8574,3.8574,3.8574,3.8574,3.8574,3.8574,3.8574,3.8574,3.8574,3.8574,3.8574,3.8574,3.8574,3.8574,3.8574,3.8574,3.8574,3.8574,3.8574,3.8574,3.8574,3.8574,3.8574,3.8574,3.8574,3.9063,3.955,4.0033,4.1013,4.1982,4.2962,4.4001,4.4914,4.5789,4.628,4.6651,4.6968,4.6968,4.6776,0.0,2.6412,2.6501,2.7615,2.8313,2.8828,2.9441,3.0359,3.1533,3.3133,3.3792,3.4424,3.5882,3.5965,3.6161,3.7206,3.6922,3.6929,3.7878,3.7862,3.7936,3.8375,3.8355,3.8428,0.0,0.0,0.0,3.8574,3.8574,3.8574,3.8574,3.8711,3.8926,3.9199,3.9355,3.959,3.9883,4.0039,4.0195,4.0351,4.0351,4.0351,4.0351,4.0351,4.0351,4.0351,4.0351,4.0351,4.0351,4.0351,4.0351,4.0332,4.0176,4.0117,4.0098,3.9961,3.9902,3.9824,3.9238,3.9043,3.9043,3.9043,3.8945,3.8789,3.8789,3.8691,3.8574,3.8574,3.8574,3.8574,3.8574,3.8574,3.8574,3.8574,3.8574,3.8574,3.8574,3.8574,3.8574,3.8574,3.8574,3.8574,3.8574,3.8574,3.8574,3.8574,3.8574,3.8574,3.8574,3.8574,3.8574,3.8574,3.8574,3.8574,3.8574,3.8574,3.8574,3.8574,3.8574,3.8991,3.9962,4.0033,4.0728,4.2193,4.2683,4.3678,4.5278,4.5685,4.6449,4.7497,4.7497,4.7329,2.5759,2.5937,2.5917,2.6955,2.6578,2.6509,2.8071,2.8367,2.879,3.0463,3.1935,3.3106,0.0,0.0,3.5406,3.7043,3.6705,3.6565,3.7805,3.7642,3.7568,3.7936,3.8009,0.0,3.8574,3.8574,0.0,3.8574,0.0,3.8594,3.8613,3.8984,3.9219,3.9277,3.9707,3.9941,3.9961,4.0351,4.0762,4.1172,4.1172,4.1172,4.1172,4.1172,4.1172,4.1172,4.1172,4.1172,4.1172,4.1172,4.1172,4.1133,4.0723,4.0566,4.0508,4.0117,3.9961,3.9961,3.9961,3.9941,3.9902,3.9902,3.959,3.9238,3.9238,3.8965,3.8633,3.8613,3.8613,3.8613,3.8574,3.8574,3.8574,3.8574,3.8574,3.8574,3.8574,3.8574,3.8574,3.8574,3.8574,3.8574,3.8574,3.8574,3.8574,3.8574,3.8574,3.8574,3.8574,3.8574,3.8574,3.8574,3.8574,3.8574,3.8574,3.8574,3.8574,3.8574,3.8574,3.8574,3.8574,3.8574,3.9281,4.0657,3.9405,4.082,4.5074,4.3656,4.4482,4.7298,4.7364,4.7364,2.6271,2.6171,2.6067,2.6617,2.6194,2.5734,2.6191,2.6475,2.7112,2.8507,2.9102,3.0054,3.257,3.2928,0.0,3.6085,3.6064,0.0,3.7364,3.7495,0.0,3.7936,3.8009,3.8155,3.8574,3.8302,3.8302,0.0,3.8574,3.8711,3.9023,3.9141,3.9512,4.0176,4.0293,4.0508,4.084,4.0957,4.1055,4.1172,4.1172,4.1172,4.1172,4.1172,4.1172,4.1172,4.1172,4.1172,4.1172,4.1172,4.1172,4.1172,4.1055,4.1016,4.0996,4.0898,4.084,4.084,4.084,4.043,3.9902,3.9902,3.9824,3.9726,3.9726,3.9648,3.9492,3.9141,3.9043,3.8965,3.8652,3.8574,3.8574,3.8574,3.8574,3.8574,3.8574,3.8574,3.8574,3.8574,3.8574,3.8574,3.8574,3.8574,3.8574,3.8574,3.8574,3.8574,3.8574,3.8574,3.8574,3.8574,3.8574,3.8574,3.8574,3.8574,3.8574,3.8574,3.8574,3.8574,3.8574,3.8574,3.8793,3.9136,3.989,4.08,4.1912,4.2683,4.3379,4.4207,4.5346,4.5843,2.6351,2.6114,2.5836,2.6067,2.5604,2.513,2.513,2.5375,2.5807,2.6406,2.7155,2.8514,3.0976,3.1769,3.3035,0.0,0.0,0.0,3.7511,3.7329,3.7329,3.7936,3.8009,3.8155,3.8574,3.8375,3.8375,3.8574,3.8574,3.875,3.918,3.9394,3.9824,4.0508,4.0703,4.0918,4.1172,4.1172,4.1172,4.1172,4.1172,4.1172,4.1172,4.1172,4.1172,4.1172,4.1172,4.1172,4.1172,4.1172,4.1172,4.1172,4.1172,4.1172,4.1172,4.1172,4.1172,4.1172,4.1172,4.0859,4.0449,4.0449,4.0332,4.0176,4.0176,4.0039,3.9844,3.957,3.9512,3.9453,3.9219,3.9004,3.8848,3.8848,3.8711,3.8574,3.8574,3.8574,3.8574,3.8574,3.8574,3.8574,3.8574,3.8574,3.8574,3.8574,3.8574,3.8574,3.8574,3.8574,3.8574,3.8574,3.8574,3.8574,3.8574,3.8574,3.8574,3.8574,3.9208,3.9281,3.8647,3.9208,3.9281,3.8647,3.9405,4.0177,4.08,4.163,4.2403,4.3032,4.3863,4.4641,2.6253,2.5985,2.5558,2.5518,2.5104,2.469,2.4649,2.4836,2.4943,2.469,2.5936,2.7585,2.9451,3.0904,3.289,3.6193,0.0,3.6127,3.7731,3.7329,3.7181,3.7936,3.8009,3.8155,3.8574,3.8574,3.8521,3.8652,3.8652,3.8848,3.9277,3.9726,4.0176,4.0586,4.0976,4.1172,4.1172,4.1172,4.1172,4.1172,4.1172,4.1172,4.1172,4.1172,4.1172,4.1172,4.1172,4.1172,4.1172,4.1172,4.1172,4.1172,4.1172,4.1172,4.1172,4.1172,4.1172,4.1172,4.1172,4.1172,4.1172,4.1172,4.0918,4.0605,4.0605,4.0351,4.0059,4.0,3.998,3.9961,3.9902,3.959,3.9297,3.9297,3.8965,3.8652,3.8652,3.8613,3.8574,3.8574,3.8574,3.8574,3.8574,3.8574,3.8574,3.8574,3.8574,3.8574,3.8574,3.8574,3.8574,3.8574,3.8574,3.8574,3.8574,3.8574,3.8574,3.8574,3.9838,3.989,3.8647,3.9838,3.991,3.8647,3.8574,3.9208,4.0535,4.0535,4.1155,4.2403,4.2613,4.3448,2.636,2.6146,2.5825,2.5571,2.5251,2.4943,2.469,2.4676,0.0,2.4649,2.4898,2.6013,2.9185,3.0034,3.1515,3.5612,3.5906,3.6054,3.7364,3.7402,3.7476,0.0,3.8009,3.8155,3.8574,3.8302,0.0,0.0,3.9101,3.9297,3.9746,4.0176,4.0605,4.1055,4.1133,4.1172,4.1172,4.1172,4.1172,4.1172,4.1172,4.1172,4.1172,4.1172,4.1172,4.1172,4.1172,0.0,4.1172,4.1172,4.1172,4.1172,4.1172,4.1172,4.1172,4.1172,4.1172,4.1172,4.1172,4.1172,4.1172,4.1172,4.1113,4.1055,4.1055,4.1016,4.0879,4.0508,4.041,4.0332,3.998,3.9844,3.9766,3.9766,3.9434,3.9101,3.9101,3.8828,3.8574,3.8574,3.8574,3.8574,3.8574,3.8574,3.8574,3.8574,3.8574,3.8574,3.8574,3.8574,3.8574,3.8574,3.8574,3.8574,3.8574,3.8574,3.8574,3.8574,3.8865,3.8865,3.8647,3.8865,3.8846,3.8574,3.8574,3.872,3.8991,3.8991,3.9136,3.9405,4.0586,4.1297,2.6199,2.6066,2.5919,2.5785,2.5518,2.5224,2.493,0.0,0.0,2.4676,2.4636,2.5442,2.8086,2.8808,3.0274,3.4335,3.4863,3.5301,3.7125,3.7421,3.7568,3.7936,3.8155,3.8355,3.8574,3.8623,3.8763,3.918,3.9629,3.998,4.0215,4.0625,4.0957,4.1172,4.1172,4.1172,4.1172,4.1172,4.1172,4.1172,4.1172,4.1172,4.1172,4.1172,4.1172,4.1172,4.1172,4.1172,4.1172,4.1172,4.1172,4.1172,4.1172,4.1172,4.1172,4.1172,4.1172,4.1172,4.1172,4.1172,4.1172,4.1172,4.1172,4.1172,4.1172,4.1172,4.1133,4.0918,4.0859,4.082,4.0625,4.0391,4.0215,4.0215,3.9687,3.9199,3.9199,3.8867,3.8574,3.8574,3.8574,3.8574,3.8574,3.8574,3.8574,3.8574,3.8574,3.8574,3.8574,3.8574,3.8574,3.8574,3.8574,3.8574,3.8574,3.8574,3.8574,3.8574,3.9353,3.9405,3.8647,3.9353,3.9766,3.9766,3.9766,3.9766,3.9766,4.0535,4.0535,3.9766,4.1297,4.2403,2.6092,2.613,2.6039,2.605,2.5785,2.5518,2.5157,2.5077,0.0,2.4703,2.4636,2.516,2.7127,2.8012,2.9666,3.3271,3.4186,3.5119,3.7272,3.7568,3.7715,3.8082,3.8448,0.0,3.8574,3.8965,0.0,3.9336,4.0156,4.0664,4.0664,4.0996,4.1172,4.1172,4.1172,4.1172,4.1172,4.1172,4.1172,4.1172,4.1172,4.1172,4.1172,4.1172,4.1172,4.1172,4.1172,4.1172,4.1172,4.1172,4.1172,4.1172,4.1172,4.1172,4.1172,4.1172,4.1172,4.1172,4.1172,4.1172,4.1172,4.1172,4.1172,4.1172,4.1172,4.1172,4.1172,4.1172,4.1172,4.1172,4.1172,4.0918,4.0644,4.0547,3.998,3.9434,3.9238,3.8945,3.8691,3.8594,3.8574,3.8574,3.8574,3.8574,3.8574,3.8574,3.8574,3.8574,3.8574,3.8574,3.8574,3.8574,3.8574,3.8574,3.8574,3.8574,3.8574,3.8574,3.9694,3.9838,3.8647,3.9694,4.032,4.032,4.032,4.0463,4.08,4.1982,4.2123,4.1297,4.2473,4.3656,2.6279,2.6346,2.6279,2.6026,2.601,2.5772,2.5211,0.0,2.4997,2.4703,2.4636,2.516,2.7127,2.8676,3.0595,3.3457,3.5048,3.6421,3.7747,3.7936,3.8082,3.8501,0.0,0.0,3.8574,3.8965,3.9375,3.9805,4.0625,4.1113,4.1113,4.1152,4.1172,4.1172,4.1172,4.1172,4.1172,4.1172,4.1172,4.1172,4.1172,4.1172,4.1172,4.1172,4.1172,4.1172,4.1172,4.1172,0.0,4.1172,4.1172,4.1172,4.1172,4.1172,4.1172,4.1172,4.1172,4.1172,4.1172,4.1172,4.1172,4.1172,4.1172,4.1172,4.1172,4.1172,4.1172,4.1172,4.1172,4.1172,4.1172,4.1152,4.1016,4.0625,4.0469,4.0176,3.9375,3.918,3.9023,3.8652,3.8574,3.8574,3.8574,3.8574,3.8574,3.8574,3.8574,3.8574,3.8574,3.8574,3.8574,3.8574,3.8574,3.8574,3.8574,3.8574,3.8574,3.8574,3.872,3.872,3.8574,3.872,3.8793,3.8793,3.8793,3.9478,4.08,4.0942,4.163,4.2823,4.2962,4.3101,2.5879,2.6119,2.636,2.6239,2.6213,2.6066,2.5478,0.0,2.5211,2.473,2.4636,2.4811,2.5584,2.6442,2.8064,3.1291,3.2715,0.0,3.7238,3.7855,3.8155,3.8574,3.8574,3.8672,0.0,0.0,3.9902,4.0605,4.0976,4.1172,4.1172,4.1172,4.1172,4.1172,4.1172,4.1172,4.1172,4.1172,4.1172,4.1172,4.1172,4.1172,4.1172,4.1172,4.1172,4.1172,4.1172,4.1172,0.0,4.1172,4.1172,4.1172,4.1172,4.1172,4.1172,4.1172,4.1172,4.1172,4.1172,4.1172,4.1172,4.1172,4.1172,4.1172,4.1172,4.1172,4.1172,4.1172,4.1172,4.1172,4.1172,4.1172,4.1133,4.0957,4.0723,4.043,4.0078,3.957,3.9141,3.8984,3.875,3.8574,3.8574,3.8574,3.8574,3.8574,3.8574,3.8574,3.8574,3.8574,3.8574,3.8574,3.8574,3.8574,3.8574,3.8574,3.8574,3.8574,3.8574,3.8574,3.8574,3.8574,3.8991,3.991,3.989,4.0177,4.08,4.2613,4.3309,4.3032,4.4846,4.5685,2.5651,2.5945,2.6279,2.6373,2.6319,2.6132,0.0,0.0,2.5237,2.4743,2.4636,2.4636,2.4636,2.5286,2.691,2.9897,0.0,3.3634,3.6918,3.7885,3.8302,3.8574,0.0,3.875,3.916,3.9746,4.0391,4.1113,4.1172,4.1172,4.1172,4.1172,4.1172,4.1172,4.1172,4.1172,4.1172,4.1172,4.1172,4.1172,4.1172,4.1172,4.1172,4.1172,4.1172,4.1172,4.1172,4.1172,0.0,4.1172,4.1172,4.1172,4.1172,4.1172,4.1172,4.1172,4.1172,4.1172,4.1172,4.1172,4.1172,4.1172,4.1172,4.1172,4.1172,4.1172,4.1172,4.1172,4.1172,4.1172,4.1172,4.1172,4.1172,4.1172,4.0937,4.0684,4.0547,3.9941,3.9375,3.9238,3.8867,3.8574,3.8574,3.8574,3.8574,3.8574,3.8574,3.8574,3.8574,3.8574,3.8574,3.8574,3.8574,3.8574,3.8574,3.8574,3.8574,3.8574,3.8574,3.8574,3.8574,3.8574,3.9063,4.0105,4.0177,4.0392,4.08,4.3379,4.4298,4.3725,4.6315,4.7497,2.5798,2.6037,2.6104,2.6319,2.6172,2.5879,0.0,2.5291,2.4997,2.4703,2.4636,2.4636,2.4636,2.621,2.8118,3.0042,3.2708,0.0,3.7134,3.8083,3.8574,0.0,3.8574,3.875,3.916,4.0,4.0703,4.1133,4.1172,0.0,4.1172,4.1172,4.1172,4.1172,4.1172,4.1172,4.1172,4.1172,4.1172,4.1172,4.1172,4.1172,4.1172,4.1172,4.1172,4.1172,4.1172,4.1172,0.0,4.1172,4.1172,4.1172,4.1172,4.1172,4.1172,4.1172,4.1172,4.1172,4.1172,4.1172,4.1172,4.1172,4.1172,4.1172,4.1172,4.1172,4.1172,4.1172,4.1172,4.1172,4.1172,4.1172,4.1172,4.1172,4.1172,4.1055,4.0625,4.0195,3.9746,3.9297,3.8867,3.8574,3.8574,3.8574,3.8574,3.8574,3.8574,3.8574,3.8574,3.8574,3.8574,3.8574,3.8574,3.8574,3.8574,3.8574,3.8574,3.8574,3.8574,3.8574,3.8574,3.8574,3.8574,3.8647,3.8647,3.9333,4.08,4.2333,4.3794,4.5346,4.6808,4.7497,2.5304,2.5504,2.5678,2.5772,2.5718,2.5571,2.5277,2.5144,2.4997,2.4703,2.4636,2.4636,2.4636,2.5065,2.6604,2.9832,3.1599,0.0,0.0,0.0,0.0,3.8574,3.9101,3.9531,0.0,0.0,4.1035,4.1172,4.1172,4.1172,4.1172,4.1172,4.1172,4.1172,4.1172,4.1172,4.1172,4.1172,4.1172,4.1172,4.1172,4.1172,4.1172,4.1172,4.1172,4.1172,4.1172,4.1172,4.1172,4.1172,4.1172,4.1172,4.1172,4.1172,4.1172,4.1172,4.1172,4.1172,4.1172,4.1172,4.1172,4.1172,4.1172,4.1172,4.1172,4.1172,4.1172,4.1172,4.1172,4.1172,4.1172,4.1172,4.1172,4.1172,4.1172,4.1133,4.0996,4.0625,4.0195,3.9766,3.9316,3.8906,3.8633,3.8574,3.8574,3.8574,3.8574,3.8574,3.8574,3.8574,3.8574,3.8574,3.8574,3.8574,3.8574,3.8574,3.8574,3.8574,3.8574,3.8574,3.8574,3.8574,3.8574,3.8574,3.8574,3.8846,3.9261,4.08,4.2823,4.5346,4.5752,4.654,2.505,2.5211,2.5371,2.5478,2.5424,0.0,2.5117,2.4997,2.4863,2.4676,2.4636,2.4636,2.4636,2.471,2.5991,2.967,3.1154,3.3113,0.0,0.0,3.8574,3.8574,3.9355,0.0,0.0,4.0664,4.1172,4.1172,4.1172,4.1172,4.1172,4.1172,4.1172,4.1172,4.1172,4.1172,4.1172,4.1172,4.1172,4.1172,4.1172,4.1172,4.1172,4.1172,4.1172,4.1172,4.1172,4.1172,0.0,4.1172,4.1172,4.1172,4.1172,4.1172,4.1172,4.1172,4.1172,4.1172,4.1172,4.1172,4.1172,4.1172,4.1172,4.1172,4.1172,4.1172,4.1172,4.1172,4.1172,4.1172,4.1172,4.1172,4.1172,4.1172,4.1172,4.1172,4.1172,4.084,4.0391,3.998,3.9512,3.9062,3.8652,3.8574,3.8574,3.8574,3.8574,3.8574,3.8574,3.8574,3.8574,3.8574,3.8574,3.8574,3.8574,3.8574,3.8574,3.8574,3.8574,3.8574,3.8574,3.8574,3.8574,3.8574,3.8574,3.8574,3.8574,4.0105,4.2333,4.5278,4.5278,4.6113,0.0,2.505,2.5117,2.5384,2.5251,2.505,2.505,2.4836,0.0,2.4636,2.4636,2.4636,2.4636,2.4931,2.6357,2.9741,3.137,3.3404,3.6862,3.8027,3.8574,3.8574,3.9355,3.9902,3.9902,4.0664,4.1172,4.1172,4.1172,4.1172,4.1172,4.1172,4.1172,4.1172,4.1172,4.1172,4.1172,4.1172,4.1172,4.1172,4.1172,4.1172,4.1172,4.1172,4.1172,0.0,4.1172,4.1172,4.1172,4.1172,4.1172,4.1172,4.1172,4.1172,4.1172,4.1172,4.1172,4.1172,4.1172,4.1172,4.1172,4.1172,4.1172,4.1172,4.1172,4.1172,4.1172,4.1172,4.1172,4.1172,4.1172,4.1172,4.1172,4.1172,4.1172,4.1172,4.1172,4.0859,4.0449,4.0019,3.957,3.9121,3.8691,3.8594,3.8574,3.8574,3.8574,3.8574,3.8574,3.8574,3.8574,3.8574,3.8574,3.8574,3.8574,3.8574,3.8574,3.8574,3.8574,3.8574,3.8574,3.8574,3.8574,3.8574,3.8574,3.8574,3.8574,3.9962,4.2123,4.4983,4.5074,4.5911,2.4716,0.0,2.4756,2.4823,2.4783,2.4743,0.0,2.469,2.4636,2.4636,2.4857,2.4931,2.4636,2.5139,2.6648,2.9812,3.137,3.3404,3.6862,3.8027,3.8574,3.8574,3.9355,3.9902,3.9902,4.0664,4.1172,4.1172,4.1172,4.1172,4.1172,4.1172,4.1172,4.1172,4.1172,4.1172,4.1172,4.1172,4.1172,4.1172,4.1172,4.1172,4.1172,4.1172,4.1172,4.1172,4.1172,4.1172,4.1172,4.1172,4.1172,4.1172,4.1172,4.1172,4.1172,4.1172,4.1172,4.1172,4.1172,4.1172,4.1172,4.1172,4.1172,4.1172,4.1172,4.1172,4.1172,4.1172,4.1172,4.1172,4.1172,4.1172,4.1172,4.1172,4.1172,4.1172,4.1172,4.1094,4.0898,4.0449,4.0019,3.959,3.9141,3.8789,3.8574,3.8574,3.8574,3.8574,3.8574,3.8574,3.8574,3.8574,3.8574,3.8574,3.8574,3.8574,3.8574,3.8574,3.8574,3.8574,3.8574,3.8574,3.8574,3.8574,3.8574,3.8574,3.8574,3.8918,4.0033,4.1841,4.3032,4.4367,2.4636,2.4636,2.4636,2.4636,2.4636,2.4636,2.4636,2.4636,2.4636,2.4636,2.4931,2.5079,2.4636,2.6005,2.7913,3.0255,3.221,3.4559,3.7455,3.8281,3.8574,3.8574,3.9355,3.9902,0.0,4.0664,4.1172,4.1172,4.1172,4.1172,4.1172,4.1172,4.1172,4.1172,4.1172,4.1172,4.1172,4.1172,4.1172,4.1172,4.1172,4.1172,4.1172,4.1172,4.1172,4.1172,4.1172,4.1172,4.1172,4.1172,4.1172,4.1172,4.1172,4.1172,4.1172,4.1172,4.1172,4.1172,4.1172,4.1172,4.1172,4.1172,4.1172,4.1172,4.1172,4.1172,4.1172,4.1172,4.1172,4.1172,4.1172,4.1172,4.1172,4.1172,4.1172,4.1172,4.1172,4.1172,4.1035,4.0605,4.0176,3.9746,3.9277,3.8848,3.8574,3.8574,3.8574,3.8574,3.8574,3.8574,3.8574,3.8574,3.8574,3.8574,3.8574,3.8574,3.8574,3.8574,3.8574,3.8574,3.8574,3.8574,3.8574,3.8574,3.8574,3.8574,3.8574,3.8574,3.9333,4.08,4.2333,4.3794,2.4636,2.4636,2.4636,2.4636,2.4636,2.4636,2.4636,2.4636,2.4636,2.471,2.5005,2.5166,2.4911,2.6867,2.9136,3.0887,3.3588,3.6187,3.8312,3.8574,3.8574,3.8574,3.9355,0.0,3.9902,4.0664,4.1172,4.1172,4.1172,4.1172,4.1172,4.1172,4.1172,4.1172,4.1172,4.1172,4.1172,4.1172,4.1172,4.1172,4.1172,4.1172,4.1172,4.1172,4.1172,4.1172,4.1172,0.0,4.1172,4.1172,4.1172,4.1172,4.1172,4.1172,4.1172,4.1172,4.1172,4.1172,4.1172,4.1172,4.1172,4.1172,4.1172,4.1172,4.1172,4.1172,4.1172,4.1172,4.1172,4.1172,4.1172,4.1172,4.1172,4.1172,4.1172,4.1172,4.1172,4.1172,4.1074,4.0684,4.0234,3.9766,3.9375,3.8906,3.8574,3.8574,3.8574,3.8574,3.8574,3.8574,3.8574,3.8574,3.8574,3.8574,3.8574,3.8574,3.8574,3.8574,3.8574,3.8574,3.8574,3.8574,3.8574,3.8574,3.8574,3.8574,3.8574,3.8574,3.9281,4.0514,4.1982,4.3448,2.4636,2.4636,2.4636,2.4636,2.4636,2.4636,2.4636,2.4636,2.471,2.5005,2.5446,2.581,2.6001,2.6934,2.8575,3.1357,3.5029,3.7701,3.8496,3.8574,3.8574,3.8574,0.0,3.9902,3.9902,4.0664,4.1172,4.1172,4.1172,4.1172,4.1172,4.1172,4.1172,4.1172,4.1172,4.1172,4.1172,4.1172,4.1172,4.1172,4.1172,4.1172,4.1172,4.1172,4.1172,4.1172,0.0,4.1172,4.1172,4.1172,4.1172,4.1172,4.1172,4.1172,4.1172,4.1172,4.1172,4.1172,4.1172,4.1172,4.1172,4.1172,4.1172,4.1172,4.1172,4.1172,4.1172,4.1172,4.1172,4.1172,4.1172,4.1172,4.1172,4.1172,4.1172,4.1172,4.1172,4.1172,4.1152,4.1094,4.043,3.9883,3.9805,3.9121,3.8574,3.8574,3.8574,3.8574,3.8574,3.8574,3.8574,3.8574,3.8574,3.8574,3.8574,3.8574,3.8574,3.8574,3.8574,3.8574,3.8574,3.8574,3.8574,3.8574,3.8574,3.8574,3.8574,3.8574,3.872,3.8991,4.0463,4.1912,2.4636,2.4636,2.4676,2.4836,2.4756,2.4636,2.4857,2.4931,2.5005,2.5446,2.58,2.6192,2.628,2.8308,3.1102,3.4649,3.6941,3.834,3.8555,3.8574,3.8574,0.0,0.0,3.9902,3.9902,4.0664,4.1172,4.1172,4.1172,4.1172,4.1172,4.1172,4.1172,4.1172,4.1172,4.1172,4.1172,4.1172,4.1172,4.1172,4.1172,4.1172,4.1172,4.1172,4.1172,4.1172,0.0,4.1172,4.1172,4.1172,4.1172,4.1172,4.1172,4.1172,4.1172,4.1172,4.1172,4.1172,4.1172,4.1172,4.1172,4.1172,4.1172,4.1172,4.1172,4.1172,4.1172,4.1172,4.1172,4.1172,4.1172,4.1172,4.1172,4.1172,4.1172,4.1172,4.1172,4.1172,4.1172,4.1172,4.0488,3.9902,3.9902,3.916,3.8574,3.8574,3.8574,3.8574,3.8574,3.8574,3.8574,3.8574,3.8574,3.8574,3.8574,3.8574,3.8574,3.8574,3.8574,3.8574,3.8574,3.8574,3.8574,3.8574,3.8574,3.8574,3.8574,3.8574,3.8574,3.8647,4.0105,4.1559,2.4636,2.4636,2.4764,2.5066,2.4938,2.4831,2.5283,2.537,2.5431,2.6024,2.6319,2.6566,2.673,2.9913,3.3439,3.6415,3.7832,3.8574,3.8574,3.8574,3.8574,3.8574,3.9355,3.9902,3.9902,4.0664,4.1172,4.1172,4.1172,4.1172,4.1172,4.1172,4.1172,4.1172,4.1172,4.1172,4.1172,4.1172,4.1172,4.1172,4.1172,4.1172,4.1172,4.1172,4.1172,4.1172,4.1172,4.1172,4.1172,4.1172,4.1172,4.1172,4.1172,4.1172,4.1172,4.1172,4.1172,4.1172,4.1172,4.1172,4.1172,4.1172,4.1172,4.1172,4.1172,4.1172,4.1172,4.1172,4.1172,4.1172,4.1172,4.1172,4.1172,4.1172,4.1172,4.1172,4.1172,4.1172,4.1172,4.1172,4.0566,4.0019,3.9922,3.9238,3.8691,3.8594,3.8574,3.8574,3.8574,3.8574,3.8574,3.8574,3.8574,3.8574,3.8574,3.8574,3.8574,3.8574,3.8574,3.8574,3.8574,3.8574,3.8574,3.8574,3.8574,3.8574,3.8574,3.8574,3.8793,3.9136,3.989,4.1297,2.4636,2.4857,2.5166,2.5193,2.5161,2.5192,2.593,2.5756,2.5832,2.7046,2.6956,2.6979,2.8071,3.115,3.3706,3.4001,3.659,3.8574,3.8574,0.0,3.8574,3.8574,3.9355,3.9902,3.9902,4.0664,4.1172,4.1172,4.1172,4.1172,4.1172,4.1172,4.1172,4.1172,4.1172,4.1172,4.1172,4.1172,4.1172,4.1172,4.1172,4.1172,4.1172,4.1172,4.1172,4.1172,4.1172,4.1172,4.1172,4.1172,4.1172,4.1172,4.1172,4.1172,4.1172,4.1172,4.1172,4.1172,4.1172,4.1172,4.1172,4.1172,4.1172,4.1172,4.1172,4.1172,4.1172,4.1172,4.1172,4.1172,4.1172,4.1172,4.1172,4.1172,4.1172,4.1172,4.1172,4.1172,4.1172,4.1172,4.0801,4.0351,3.9961,3.9492,3.9023,3.8633,3.8574,3.8574,3.8574,3.8574,3.8574,3.8574,3.8574,3.8574,3.8574,3.8574,3.8574,3.8574,3.8574,3.8574,3.8574,3.8574,3.8574,3.8574,3.8574,3.8574,3.8574,3.8574,3.9261,4.0586,3.9333,4.032,2.4636,2.5066,2.5466,2.5431,2.5718,2.6075,2.6143,2.6205,2.642,2.7179,2.7406,2.7961,2.9564,3.1988,3.4053,3.5103,3.7144,3.8574,3.8574,3.8574,3.8574,3.8574,3.9101,3.957,3.9863,4.043,4.0879,4.1152,4.1172,4.1172,4.1172,4.1172,4.1172,4.1172,4.1172,4.1172,4.1172,4.1172,4.1172,4.1172,4.1172,4.1172,4.1172,4.1172,4.1172,4.1172,4.1172,4.1172,4.1172,4.1172,4.1172,4.1172,4.1172,4.1172,4.1172,4.1172,4.1172,4.1172,4.1172,4.1172,4.1172,4.1172,4.1172,4.1172,4.1172,4.1172,4.1172,4.1172,4.1172,4.1172,4.1172,4.1172,4.1172,4.1172,4.1172,4.1172,4.1172,4.1172,4.1172,4.1172,4.082,4.0391,3.9961,3.9512,3.9062,3.8633,3.8574,3.8574,3.8574,3.8574,3.8574,3.8574,3.8574,3.8574,3.8574,3.8574,3.8574,3.8574,3.8574,3.8574,3.8574,3.8574,3.8574,3.8574,3.8574,3.8574,3.8574,3.8574,3.9333,4.08,4.0249,4.158,2.4857,2.5222,2.5718,2.5923,2.6267,2.6655,2.6673,2.6715,2.6904,2.7535,2.7955,2.8758,3.0631,3.2449,3.4278,0.0,3.7511,3.8574,3.8574,3.8574,3.8574,3.8574,3.8945,3.9394,3.9844,4.0273,4.0703,4.1133,4.1172,4.1172,4.1172,4.1172,4.1172,4.1172,4.1172,4.1172,4.1172,4.1172,4.1172,4.1172,4.1172,4.1172,4.1172,4.1172,4.1172,4.1172,4.1172,4.1172,4.1172,4.1172,4.1172,4.1172,4.1172,4.1172,4.1172,4.1172,4.1172,4.1172,4.1172,4.1172,4.1172,4.1172,4.1172,4.1172,4.1172,4.1172,4.1172,4.1172,4.1172,4.1172,4.1172,4.1172,4.1172,4.1172,4.1172,4.1172,4.1172,4.1172,4.1172,4.1172,4.0937,4.0547,4.0,3.9629,3.9219,3.8652,3.8574,3.8574,3.8574,3.8574,3.8574,3.8574,3.8574,3.8574,3.8574,3.8574,3.8574,3.8574,3.8574,3.8574,3.8574,3.8574,3.8574,3.8574,3.8574,3.8574,3.8574,3.8574,3.9622,4.1488,4.1013,4.2403,2.5092,2.5458,2.5916,2.6737,2.6738,2.6721,2.7571,2.7254,2.7036,2.8143,2.8681,2.9431,3.0963,3.2614,3.4278,3.5941,3.7511,3.8574,3.8574,3.8574,3.8574,3.8574,3.8945,3.9375,3.9844,4.0273,4.0703,4.1133,4.1172,4.1172,4.1172,4.1172,4.1172,4.1172,4.1172,4.1172,4.1172,4.1172,4.1172,4.1172,4.1172,4.1172,4.1172,4.1172,4.1172,4.1172,4.1172,4.1172,4.1172,4.1172,4.1172,4.1172,4.1172,4.1172,4.1172,4.1172,4.1172,4.1172,4.1172,4.1172,4.1172,4.1172,4.1172,4.1172,4.1172,4.1172,4.1172,4.1172,4.1172,4.1172,4.1172,4.1172,4.1172,4.1172,4.1172,4.1172,4.1172,4.1172,4.1172,4.1172,4.1172,4.0898,4.0039,3.9902,3.959,3.8711,3.8574,3.8574,3.8574,3.8574,3.8574,3.8574,3.8574,3.8574,3.8574,3.8574,3.8574,3.8574,3.8574,3.8574,3.8574,3.8574,3.8574,3.8574,3.8574,3.8574,3.8647,3.8574,4.0105,4.3032,4.1488,4.2403,2.5601,2.6363,2.7149,2.7149,2.752,2.7817,2.7817,2.7423,2.7304,2.8187,2.8681,2.9042,2.9493,3.1852,3.3885,3.4354,3.6756,3.8574,3.8574,3.8574,3.8574,3.8574,3.8691,3.9062,3.9824,4.0019,4.0391,4.1113,4.1172,4.1172,4.1172,4.1172,4.1172,4.1172,4.1172,4.1172,4.1172,4.1172,4.1172,4.1172,4.1172,4.1172,4.1172,4.1172,4.1172,4.1172,4.1172,4.1172,4.1172,4.1172,4.1172,4.1172,4.1172,4.1172,4.1172,4.1172,4.1172,4.1172,4.1172,4.1172,4.1172,4.1172,4.1172,4.1172,4.1172,4.1172,4.1172,4.1172,4.1172,4.1172,4.1172,4.1172,4.1172,4.1172,4.1172,4.1172,4.1172,4.1172,4.1172,4.1172,4.1172,4.0996,4.043,4.0098,3.9687,3.9101,3.8769,3.8574,3.8574,3.8574,3.8574,3.8574,3.8574,3.8574,3.8574,3.8574,3.8574,3.8574,3.8574,3.8574,3.8574,3.8574,3.8574,3.8574,3.8574,3.9136,4.0177,3.9136,4.0678,4.4573,4.3032,4.3932,2.5963,2.671,2.7571,2.7648,2.7903,2.8037,2.7831,2.7725,2.7817,2.8278,2.8681,2.9119,2.9726,3.1928,0.0,3.4579,3.6904,3.8574,3.8574,3.8574,3.8574,3.8574,3.8574,3.8848,3.9551,3.9785,4.0176,4.0859,4.1074,4.1172,4.1172,4.1172,4.1172,4.1172,4.1172,4.1172,4.1172,4.1172,4.1172,4.1172,4.1172,4.1172,4.1172,4.1172,4.1172,4.1172,4.1172,4.1172,4.1172,4.1172,4.1172,4.1172,4.1172,4.1172,4.1172,4.1172,4.1172,4.1172,4.1172,4.1172,4.1172,4.1172,4.1172,4.1172,4.1172,4.1172,4.1172,4.1172,4.1172,4.1172,4.1172,4.1172,4.1172,4.1172,4.1172,4.1172,4.1172,4.1172,4.1172,4.1172,4.1172,4.1035,4.0605,4.0176,3.9746,3.9277,3.8848,3.8574,3.8574,3.8574,3.8574,3.8574,3.8574,3.8574,3.8574,3.8574,3.8574,3.8574,3.8574,3.8574,3.8574,3.8574,3.8574,3.8574,3.8574,3.9063,3.991,3.9622,4.1155,4.4367,4.407,4.5187,2.629,2.6814,2.7431,2.8231,2.806,2.772,2.784,2.8168,2.8476,2.8447,2.8681,2.9353,3.0793,3.2538,3.4203,3.5718,3.7438,3.8574,3.8574,3.8574,3.8574,3.8574,3.8574,3.875,3.916,3.9629,4.0078,4.0488,4.0918,4.1172,4.1172,4.1172,4.1172,4.1172,4.1172,4.1172,4.1172,4.1172,4.1172,4.1172,4.1172,4.1172,4.1172,4.1172,4.1172,4.1172,4.1172,4.1172,4.1172,4.1172,4.1172,4.1172,4.1172,4.1172,4.1172,4.1172,4.1172,4.1172,4.1172,4.1172,4.1172,4.1172,4.1172,4.1172,4.1172,4.1172,4.1172,4.1172,4.1172,4.1172,4.1172,4.1172,4.1172,4.1172,4.1172,4.1172,4.1172,4.1172,4.1172,4.1172,4.1172,4.1055,4.0644,4.0195,3.9726,3.9219,3.8828,3.8574,3.8574,3.8574,3.8574,3.8574,3.8574,3.8574,3.8574,3.8574,3.8574,3.8574,3.8574,3.8574,3.8574,3.8574,3.8574,3.8574,3.8574,3.8647,3.8793,4.0177,4.163,4.324,4.4641,4.6113,2.7097,2.744,2.786,2.8569,2.8686,2.8637,2.8642,2.8705,2.8725,2.8491,2.8681,2.9042,2.9353,3.1775,3.3809,3.4203,3.6682,3.8574,3.8574,3.8574,3.8574,3.8574,3.8574,3.875,3.916,3.9629,4.0078,4.0488,4.0918,4.1172,4.1172,4.1172,4.1172,4.1172,4.1172,4.1172,4.1172,4.1172,4.1172,4.1172,4.1172,4.1172,4.1172,4.1172,4.1172,4.1172,4.1172,4.1172,4.1172,4.1172,4.1172,4.1172,4.1172,4.1172,4.1172,4.1172,4.1172,4.1172,4.1172,4.1172,4.1172,4.1172,4.1172,4.1172,4.1172,4.1172,4.1172,4.1172,4.1172,4.1172,4.1172,4.1172,4.1172,4.1172,4.1172,4.1172,4.1172,4.1172,4.1172,4.1172,4.1172,4.1152,4.1055,4.041,3.9629,3.8828,3.8633,3.8574,3.8574,3.8574,3.8574,3.8574,3.8574,3.8574,3.8574,3.8574,3.8574,3.8574,3.8574,3.8574,3.8574,3.8574,3.8574,3.8574,3.8574,3.9208,4.032,4.0678,4.2193,4.4778,4.5142,4.6113,2.7258,2.7573,2.7951,2.8735,0.0,2.8886,2.8886,2.8886,2.8842,2.8695,2.8783,2.8886,2.8886,3.1545,3.3658,3.3658,3.646,3.8574,3.8574,3.8574,3.8574,3.8574,3.8574,3.8652,3.8887,3.9512,3.998,4.0195,4.082,4.1172,4.1172,4.1172,4.1172,4.1172,4.1172,4.1172,4.1172,4.1172,4.1172,4.1172,4.1172,4.1172,4.1172,4.1172,4.1172,4.1172,4.1172,4.1172,4.1172,4.1172,4.1172,4.1172,4.1172,4.1172,4.1172,4.1172,4.1172,4.1172,4.1172,4.1172,4.1172,4.1172,4.1172,4.1172,4.1172,4.1172,4.1172,4.1172,4.1172,4.1172,4.1172,4.1172,4.1172,4.1172,4.1172,4.1172,4.1172,4.1172,4.1172,4.1172,4.1172,4.1172,4.1172,4.0469,3.959,3.8711,3.8574,3.8574,3.8574,3.8574,3.8574,3.8574,3.8574,3.8574,3.8574,3.8574,3.8574,3.8574,3.8574,3.8574,3.8574,3.8574,3.8574,3.8574,3.8574,3.8991,3.9766,4.0463,4.1982,4.423,4.4983,4.6113,2.7248,2.7683,2.8043,2.8657,2.8808,0.0,2.8886,2.8886,2.8886,2.8886,2.8886,2.8886,2.8886,3.1545,3.3658,3.3658,3.646,3.8574,3.8574,3.8574,3.8574,3.8574,3.8574,3.8574,3.8574,3.9375,3.9902,3.9902,4.0684,4.1172,4.1172,4.1172,4.1172,4.1172,4.1172,4.1172,4.1172,4.1172,4.1172,4.1172,4.1172,4.1172,4.1172,4.1172,4.1172,4.1172,4.1172,4.1172,4.1172,4.1172,4.1172,4.1172,4.1172,4.1172,4.1172,4.1172,4.1172,4.1172,4.1172,4.1172,4.1172,4.1172,4.1172,4.1172,4.1172,4.1172,4.1172,4.1172,4.1172,4.1172,4.1172,4.1172,4.1172,4.1172,4.1172,4.1172,4.1172,4.1172,4.1172,4.1172,4.1172,4.1152,4.1074,4.041,3.9629,3.8809,3.8613,3.8574,3.8574,3.8574,3.8574,3.8574,3.8574,3.8574,3.8574,3.8574,3.8574,3.8574,3.8574,3.8574,3.8574,3.8574,3.8574,3.8574,3.8574,3.8574,3.8574,4.0105,4.1559,4.3032,4.4573,4.6113,2.7377,0.0,2.8351,0.0,2.8666,2.8886,0.0,0.0,2.8886,0.0,2.8886,2.8886,2.8886,3.1545,3.3658,3.3658,3.646,3.8574,3.8574,3.8574,3.8574,3.8574,3.8574,3.8574,3.8574,3.9375,3.9902,3.9902,4.0684,4.1172,4.1172,4.1172,4.1172,4.1172,4.1172,4.1172,4.1172,4.1172,4.1172,4.1172,4.1172,4.1172,4.1172,4.1172,4.1172,4.1172,4.1172,4.1172,4.1172,4.1172,4.1172,4.1172,4.1172,4.1172,4.1172,4.1172,4.1172,4.1172,4.1172,4.1172,4.1172,4.1172,4.1172,4.1172,4.1172,4.1172,4.1172,4.1172,4.1172,4.1172,4.1172,4.1172,4.1172,4.1172,4.1172,4.1172,4.1172,4.1172,4.1172,4.1172,4.1172,4.1055,4.0684,4.0215,3.9726,3.9199,3.8809,3.8574,3.8574,3.8574,3.8574,3.8574,3.8574,3.8574,3.8574,3.8574,3.8574,3.8574,3.8574,3.8574,3.8574,3.8574,3.8574,3.8574,3.8574,3.8574,3.8574,4.0105,4.1559,4.3032,4.4573,4.6113,2.7082,2.7798,2.8399,0.0,2.8613,2.8886,2.8886,2.8886,2.8886,2.8886,2.8886,2.8886,2.8886,3.1545,3.3658,3.3658,3.646,3.8574,3.8574,3.8574,3.8574,3.8574,3.8574,3.8574,3.8574,3.9141,3.9609,3.9883,4.0469,4.0918,4.1172,4.1172,4.1172,4.1172,4.1172,4.1172,4.1172,4.1172,4.1172,4.1172,4.1172,4.1172,4.1172,4.1172,4.1172,4.1172,4.1172,4.1172,4.1172,4.1172,4.1172,4.1172,4.1172,4.1172,4.1172,4.1172,4.1172,4.1172,4.1172,4.1172,4.1172,4.1172,4.1172,4.1172,4.1172,4.1172,4.1172,4.1172,4.1172,4.1172,4.1172,4.1172,4.1172,4.1172,4.1172,4.1172,4.1172,4.1172,4.1172,4.1172,4.1172,4.1035,4.0605,4.0176,3.9746,3.9277,3.8848,3.8574,3.8574,3.8574,3.8574,3.8574,3.8574,3.8574,3.8574,3.8574,3.8574,3.8574,3.8574,3.8574,3.8574,3.8574,3.8574,3.8574,3.8574,3.8574,3.8574,3.9281,4.0728,4.3032,4.3725,4.5255,0.0,0.0,2.8227,2.8403,2.8608,2.8798,0.0,0.0,2.8886,0.0,2.8886,2.8886,2.8886,3.1545,3.3658,3.3658,3.646,3.8574,3.8574,3.8574,3.8574,3.8574,3.8574,3.8574,3.8574,3.8965,3.9394,3.9863,4.0273,4.0703,4.1152,4.1172,4.1172,4.1172,4.1172,4.1172,4.1172,4.1172,4.1172,4.1172,4.1172,4.1172,4.1172,4.1172,4.1172,4.1172,4.1172,4.1172,4.1172,4.1172,4.1172,4.1172,4.1172,4.1172,4.1172,4.1172,4.1172,4.1172,4.1172,4.1172,4.1172,4.1172,4.1172,4.1172,4.1172,4.1172,4.1172,4.1172,4.1172,4.1172,4.1172,4.1172,4.1172,4.1172,4.1172,4.1172,4.1172,4.1172,4.1172,4.1172,4.1172,4.1074,4.0742,4.0254,3.9785,3.9434,3.8926,3.8574,3.8574,3.8574,3.8574,3.8574,3.8574,3.8574,3.8574,3.8574,3.8574,3.8574,3.8574,3.8574,3.8574,3.8574,3.8574,3.8574,3.8574,3.8574,3.8574,3.8574,4.0105,4.3032,4.3032,4.4618,0.0,2.751,0.0,2.8286,2.837,2.8534,0.0,0.0,2.8886,2.8886,2.8886,2.8886,2.8886,3.1545,3.3658,3.3658,3.646,3.8574,3.8574,3.8574,3.8574,3.8574,3.8574,3.8574,3.8574,3.8965,3.9394,3.9863,4.0273,4.0703,4.1152,4.1172,4.1172,4.1172,4.1172,4.1172,4.1172,4.1172,4.1172,4.1172,4.1172,4.1172,4.1172,4.1172,4.1172,4.1172,4.1172,4.1172,4.1172,4.1172,4.1172,4.1172,4.1172,4.1172,4.1172,4.1172,4.1172,4.1172,4.1172,4.1172,4.1172,4.1172,4.1172,4.1172,4.1172,4.1172,4.1172,4.1172,4.1172,4.1172,4.1172,4.1172,4.1172,4.1172,4.1172,4.1172,4.1172,4.1172,4.1172,4.1172,4.1172,4.1172,4.1152,4.0449,3.9883,3.9863,3.9121,3.8574,3.8574,3.8574,3.8574,3.8574,3.8574,3.8574,3.8574,3.8574,3.8574,3.8574,3.8574,3.8574,3.8574,3.8574,3.8574,3.8574,3.8574,3.8574,3.8574,3.8574,4.0105,4.3032,4.3032,4.4618,0.0,0.0,0.0,2.7759,2.7978,2.8078,2.8256,2.8447,2.8593,2.8593,2.8754,2.9197,3.0268,3.2233,3.3658,3.3658,3.646,3.8574,3.8574,3.8574,3.8574,3.8574,3.8574,3.8574,3.8574,3.8711,3.9101,3.9844,4.0039,4.043,4.1133,4.1172,4.1172,4.1172,4.1172,4.1172,4.1172,4.1172,4.1172,4.1172,4.1172,4.1172,4.1172,4.1172,4.1172,4.1172,4.1172,4.1172,4.1172,4.1172,4.1172,4.1172,4.1172,4.1172,4.1172,4.1172,4.1172,4.1172,4.1172,4.1172,4.1172,4.1172,4.1172,4.1172,4.1172,4.1172,4.1172,4.1172,4.1172,4.1172,4.1172,4.1172,4.1172,4.1172,4.1172,4.1172,4.1172,4.1172,4.1172,4.1172,4.1172,4.1172,4.1172,4.0684,4.0215,3.9941,3.9375,3.8887,3.8613,3.8574,3.8574,3.8574,3.8574,3.8574,3.8574,3.8574,3.8574,3.8574,3.8574,3.8991,3.9962,4.0033,4.0463,4.1439,4.1418,4.0535,3.8574,3.955,4.1013,4.301,4.4001,4.5549,2.6983,0.0,0.0,0.0,2.7642,2.7817,2.7844,0.0,2.8432,2.8432,2.8681,2.9431,3.104,3.2614,3.3885,3.4429,3.6386,3.797,3.8501,3.8574,3.8574,3.8574,3.8574,3.8574,3.8574,3.8574,3.8887,3.9609,3.9805,0.0,4.0918,4.1094,4.1172,4.1172,4.1172,4.1172,4.1172,4.1172,4.1172,4.1172,4.1172,4.1172,4.1172,4.1172,4.1172,4.1172,4.1172,4.1172,4.1172,4.1172,4.1172,4.1172,4.1172,4.1172,4.1172,4.1172,4.1172,4.1172,4.1172,4.1172,4.1172,4.1172,4.1172,4.1172,4.1172,4.1172,4.1172,4.1172,4.1172,4.1172,4.1172,4.1172,4.1172,4.1172,4.1172,4.1172,4.1172,4.1172,4.1172,4.1172,4.1172,4.1172,4.1172,4.082,4.0371,3.9961,3.9492,3.9043,3.8633,3.8574,3.8574,3.8574,3.8574,3.8574,3.8574,3.8574,3.8574,3.8574,3.9063,3.9766,4.0728,4.1297,4.1982,4.2962,4.3032,4.2052,4.0105,4.1084,4.2333,4.3794,4.4846,4.6113,0.0,0.0,0.0,0.0,0.0,0.0,2.7861,0.0,2.8417,2.8432,2.8666,2.9416,3.1101,3.2614,3.4278,3.6015,3.6238,3.6849,3.8355,3.8574,3.8574,3.8574,3.8574,3.8574,3.8574,3.8574,3.875,3.916,3.9629,4.0078,4.0508,4.0937,4.1172,4.1172,4.1172,4.1172,4.1172,4.1172,4.1172,4.1172,4.1172,4.1172,4.1172,4.1172,4.1172,4.1172,4.1172,4.1172,4.1172,4.1172,4.1172,4.1172,4.1172,4.1172,4.1172,4.1172,4.1172,4.1172,4.1172,4.1172,4.1172,4.1172,4.1172,4.1172,4.1172,4.1172,4.1172,4.1172,4.1172,4.1172,4.1172,4.1172,4.1172,4.1172,4.1172,4.1172,4.1172,4.1172,4.1172,4.1172,4.1172,4.1172,4.1172,4.082,4.0391,3.9961,3.9512,3.9062,3.8633,3.8574,3.8574,3.8574,3.8574,3.8574,3.8574,3.8574,3.8647,3.8647,4.0033,4.0871,4.0942,4.2333,4.3101,4.3171,4.3171,4.3171,4.3171,4.3101,4.3863,4.5278,4.5346,4.6113,2.6983,0.0,0.0,0.0,0.0,0.0,0.0,0.0,2.7876,2.8344,2.9396,3.0877,3.2717,3.3373,3.4654,3.7438,3.797,3.8117,3.8574,3.8574,3.8574,3.8574,3.8574,3.8574,3.8574,3.8574,3.875,0.0,3.9629,4.0078,4.0508,4.0937,4.1172,4.1172,4.1172,4.1172,4.1172,4.1172,4.1172,4.1172,4.1172,4.1172,4.1172,4.1172,4.1172,4.1172,4.1172,4.1172,4.1172,4.1172,4.1172,4.1172,4.1172,4.1172,4.1172,4.1172,4.1172,4.1172,4.1172,4.1172,4.1172,4.1172,4.1172,4.1172,4.1172,4.1172,4.1172,4.1172,4.1172,4.1172,4.1172,4.1172,4.1172,4.1172,4.1172,4.1172,4.1172,4.1172,4.1172,4.1172,4.1172,4.1172,4.1172,4.1074,4.0742,4.0,3.9785,3.9434,3.8672,3.8574,3.8574,3.8574,3.8574,3.8574,3.8574,3.8574,3.9063,4.0105,4.0586,4.1792,4.3954,4.4436,4.5187,4.6224,4.6248,4.6248,4.6248,4.5187,4.4846,4.5346,4.6382,4.7098,2.8891,2.8891,2.8891,2.8891,0.0,0.0,2.9013,2.8819,2.8786,0.0,3.1012,3.2409,3.4359,3.4729,3.5551,3.819,3.8574,3.8574,3.8574,3.8574,3.8574,3.8574,3.8574,3.8574,3.8574,3.8574,3.8672,3.8926,3.9355,3.9883,4.0488,4.0937,4.1172,4.1172,4.1172,4.1172,4.1172,4.1172,4.1172,4.1172,4.1172,4.1172,4.1172,4.1172,4.1172,4.1172,4.1172,4.1172,4.1172,4.1172,4.1172,4.1172,4.1172,4.1172,4.1172,4.1172,4.1172,4.1172,4.1172,4.1172,4.1172,4.1172,4.1172,4.1172,4.1172,4.1172,4.1172,4.1172,4.1172,4.1172,4.1172,4.1172,4.1172,4.1172,4.1172,4.1172,4.1172,4.1172,4.1172,4.1172,4.1172,4.1172,4.1172,4.1172,4.0937,4.0254,4.0019,3.9648,3.8926,3.8691,3.8574,3.8574,3.8574,3.8865,3.9478,3.955,4.0177,4.163,4.2333,4.3448,4.521,4.5911,4.6607,4.7497,4.7497,4.7497,4.7497,4.6674,4.6248,4.6248,4.7074,4.7497,3.1576,3.1559,3.1559,3.1508,3.0447,0.0,3.1206,3.0728,3.0405,0.0,3.2934,3.387,3.5795,3.6239,3.6866,3.8336,3.8574,3.8574,3.8574,3.8574,3.8574,3.8574,3.8574,3.8574,3.8574,3.8574,3.8574,3.8574,3.9004,3.9648,4.0469,4.0937,4.1172,4.1172,4.1172,4.1172,4.1172,4.1172,4.1172,4.1172,4.1172,4.1172,4.1172,4.1172,4.1172,4.1172,4.1172,4.1172,4.1172,4.1172,4.1172,4.1172,4.1172,4.1172,4.1172,4.1172,4.1172,4.1172,4.1172,4.1172,4.1172,4.1172,4.1172,4.1172,4.1172,4.1172,4.1172,4.1172,4.1172,4.1172,4.1172,4.1172,4.1172,4.1172,4.1172,4.1172,4.1172,4.1172,4.1172,4.1172,4.1172,4.1172,4.1172,4.1172,4.1035,4.0586,4.0156,3.9726,3.9258,3.8828,3.8574,3.8574,3.872,3.9405,4.0657,4.0942,4.17,4.3171,4.4573,4.5346,4.5549,4.6808,4.7497,4.7497,4.7497,4.7497,4.7497,4.7497,4.7497,4.7497,4.7497,4.7497,3.211,3.1953,3.1885,3.1576,3.1296,0.0,3.1742,3.1497,3.1388,0.0,3.339,3.4449,3.5467,3.6708,3.7784,3.8516,3.8574,3.8574,3.8574,3.8574,3.8574,3.8574,3.8574,3.8574,3.8574,3.8574,3.8574,3.8574,3.9316,3.998,4.0488,4.0937,4.1172,4.1172,4.1172,4.1172,4.1172,4.1172,4.1172,4.1172,4.1172,4.1172,4.1172,4.1172,4.1172,4.1172,4.1172,4.1172,4.1172,4.1172,4.1172,4.1172,4.1172,4.1172,4.1172,4.1172,4.1172,4.1172,4.1172,4.1172,4.1172,4.1172,4.1172,4.1172,4.1172,4.1172,4.1172,4.1172,4.1172,4.1172,4.1172,4.1172,4.1172,4.1172,4.1172,4.1172,4.1172,4.1172,4.1172,4.1172,4.1172,4.1172,4.1172,4.1172,4.1035,4.0586,4.0156,3.9726,3.9258,3.8828,3.8574,3.8574,3.9694,4.0535,4.08,4.1912,4.324,4.4778,4.5142,4.5843,4.7008,4.7364,4.7497,4.7497,4.7497,4.7497,4.7497,4.7497,4.7497,4.7497,4.7497,4.7497,3.4786,3.4731,3.4676,3.4403,3.3783,0.0,0.0,3.3928,3.3589,3.492,3.5675,3.6304,3.6929,3.7735,3.832,3.8535,3.8574,3.8574,3.8574,3.8574,3.8574,3.8574,3.8574,3.8574,3.8574,3.8574,3.8574,3.8574,3.918,3.9746,4.0195,4.0605,4.0957,4.1172,4.1172,4.1172,4.1172,4.1172,4.1172,4.1172,4.1172,4.1172,4.1172,4.1172,4.1172,4.1172,4.1172,4.1172,4.1172,4.1172,4.1172,4.1172,4.1172,4.1172,4.1172,4.1172,4.1172,4.1172,4.1172,4.1172,4.1172,4.1172,4.1172,4.1172,4.1172,4.1172,4.1172,4.1172,4.1172,4.1172,4.1172,4.1172,4.1172,4.1172,4.1172,4.1172,4.1172,4.1172,4.1172,4.1172,4.1172,4.1172,4.1172,4.1172,4.1094,4.0879,4.0312,3.9805,3.957,3.8984,3.8846,3.9622,4.0392,4.1439,4.2892,4.3725,4.4778,4.6315,4.6382,4.6741,4.7497,4.7497,4.7497,4.7497,4.7497,4.7497,4.7497,4.7497,4.7497,4.7497,4.7497,4.7497,3.7441,3.7422,3.7402,3.7324,3.6347,3.5759,0.0,0.0,0.0,0.0,0.0,0.0,0.0,0.0,0.0,0.0,0.0,0.0,0.0,3.8476,0.0,3.8574,3.8574,3.8574,3.8574,3.8574,3.8574,3.8574,3.8965,3.9394,3.9863,4.0293,4.0723,4.1172,4.1172,4.1172,4.1172,4.1172,4.1172,4.1172,4.1172,4.1172,4.1172,4.1172,4.1172,4.1172,4.1172,4.1172,4.1172,4.1172,4.1172,4.1172,4.1172,4.1172,4.1172,4.1172,4.1172,4.1172,4.1172,4.1172,4.1172,4.1172,4.1172,4.1172,4.1172,4.1172,4.1172,4.1172,4.1172,4.1172,4.1172,4.1172,4.1172,4.1172,4.1172,4.1172,4.1172,4.1172,4.1172,4.1172,4.1172,4.1172,4.1172,4.1172,4.1172,4.1172,4.0449,3.9958,4.0259,3.9544,3.9622,4.1084,4.1509,4.2613,4.5074,4.5549,4.6248,4.7431,4.7497,4.7497,4.7497,4.7497,4.7497,4.7497,4.7497,4.7497,4.7497,4.7497,4.7497,4.7497,4.7497,4.7497,3.7949,3.7851,3.7773,3.7383,3.7144,3.7074,3.7234,0.0,3.7093,3.7363,0.0,0.0,0.0,0.0,0.0,0.0,0.0,0.0,3.7539,3.8105,3.8574,3.8574,3.8574,3.8574,3.8574,3.8574,3.8574,3.8574,3.8965,3.9394,3.9863,4.0293,4.0723,4.1172,4.1172,4.1172,4.1172,4.1172,4.1172,4.1172,4.1172,4.1172,4.1172,4.1172,4.1172,4.1172,4.1172,4.1172,4.1172,4.1172,4.1172,4.1172,4.1172,4.1172,4.1172,4.1172,4.1172,4.1172,4.1172,4.1172,4.1172,4.1172,4.1172,4.1172,4.1172,4.1172,4.1172,4.1172,4.1172,4.1172,4.1172,4.1172,4.1172,4.1172,4.1172,4.1172,4.1172,4.1172,4.1172,4.1172,4.1172,4.1172,4.1172,4.1172,4.1172,4.1172,4.0449,4.0409,4.169,4.109,4.1155,4.2613,4.3932,4.4937,4.5278,4.6516,4.7298,4.7497,4.7497,4.7497,4.7497,4.7497,4.7497,4.7497,4.7497,4.7497,4.7497,4.7497,4.7497,4.7497,4.7497,4.7497,0.0,0.0,3.8262,3.8086,3.8047,3.8047,3.8047,3.8047,3.8047,0.0,0.0,0.0,0.0,0.0,0.0,0.0,3.834,0.0,0.0,0.0,3.8574,0.0,0.0,0.0,3.8574,3.8574,3.8574,3.8574,3.875,3.9023,3.9473,3.9922,4.0351,4.0781,4.1035,4.1172,4.1172,4.1172,4.1172,4.1172,4.1172,4.1172,4.1172,4.1172,4.1172,4.1172,4.1172,4.1172,4.1172,4.1172,4.1172,4.1172,4.1172,4.1172,4.1172,4.1172,4.1172,4.1172,4.1172,4.1172,4.1172,4.1172,4.1172,4.1172,4.1172,4.1172,4.1172,4.1172,4.1172,4.1172,4.1172,4.1172,4.1172,4.1172,4.1172,4.1172,4.1172,4.1172,4.1172,4.1172,4.1172,4.1172,4.1172,4.1172,4.1172,4.1172,4.1171,4.1414,4.206,4.2078,4.2683,4.4161,4.4914,4.5617,4.6516,4.7141,4.7497,4.7497,4.7497,4.7497,4.7497,4.7497,4.7497,4.7497,4.7497,4.7497,4.7497,4.7497,4.7497,4.7497,4.7497,4.7497,3.8574,0.0,0.0,0.0,0.0,0.0,0.0,0.0,0.0,0.0,0.0,0.0,0.0,0.0,0.0,0.0,0.0,3.8496,0.0,3.8437,0.0,0.0,0.0,0.0,0.0,3.8574,3.8574,3.8574,3.8574,3.875,3.918,3.9648,4.0098,4.0508,4.0957,4.1172,4.1172,4.1172,4.1172,4.1172,4.1172,4.1172,4.1172,4.1172,4.1172,4.1172,4.1172,4.1172,4.1172,4.1172,4.1172,4.1172,4.1172,4.1172,4.1172,4.1172,4.1172,4.1172,4.1172,4.1172,4.1172,4.1172,4.1172,4.1172,4.1172,4.1172,4.1172,4.1172,4.1172,4.1172,4.1172,4.1172,4.1172,4.1172,4.1172,4.1172,4.1172,4.1172,4.1172,4.1172,4.1172,4.1172,4.1172,4.1172,4.1327,4.1773,4.2084,4.2553,4.3285,4.3682,4.4364,4.5775,4.5911,4.6315,4.7431,4.7497,4.7497,4.7497,4.7497,4.7497,4.7497,4.7497,4.7497,4.7497,4.7497,4.7497,4.7497,4.7497,4.7497,4.7497,4.7497,4.7497,0.0,0.0,0.0,3.8574,0.0,0.0,0.0,0.0,3.8574,0.0,0.0,0.0,0.0,0.0,0.0,0.0,0.0,0.0,0.0,0.0,0.0,0.0,0.0,0.0,0.0,3.8574,3.8574,3.8574,3.8574,3.875,3.918,3.9648,4.0098,4.0508,4.0957,4.1172,4.1172,4.1172,4.1172,4.1172,4.1172,4.1172,4.1172,4.1172,4.1172,4.1172,4.1172,4.1172,4.1172,4.1172,4.1172,4.1172,4.1172,4.1172,4.1172,4.1172,4.1172,4.1172,4.1172,4.1172,4.1172,4.1172,4.1172,4.1172,4.1172,4.1172,4.1172,4.1172,4.1172,4.1172,4.1172,4.1172,4.1172,4.1172,4.1172,4.1172,4.1172,4.1172,4.1172,4.1172,4.1172,4.1172,4.1172,4.1172,4.1695,4.3172,4.3084,4.3774,4.6252,4.6241,4.6377,4.7346,4.7431,4.7431,4.7497,4.7497,4.7497,4.7497,4.7497,4.7497,4.7497,4.7497,4.7497,4.7497,4.7497,4.7497,4.7497,4.7497,4.7497,4.7497,4.7497,4.7497,0.0,0.0,3.8574,3.8574,0.0,0.0,0.0,0.0,0.0,0.0,0.0,0.0,0.0,0.0,0.0,0.0,0.0,0.0,0.0,0.0,0.0,0.0,0.0,0.0,0.0,0.0,3.8574,3.8574,3.8574,3.8633,3.8789,3.9492,3.9961,4.0098,4.0801,4.1172,4.1172,4.1172,4.1172,4.1172,4.1172,4.1172,4.1172,4.1172,4.1172,4.1172,4.1172,4.1172,4.1172,4.1172,4.1172,4.1172,4.1172,4.1172,4.1172,4.1172,4.1172,4.1172,4.1172,4.1172,4.1172,4.1172,4.1172,4.1172,4.1172,4.1172,4.1172,4.1172,4.1172,4.1172,4.1172,4.1172,4.1172,4.1172,4.1172,4.1172,4.1172,4.1172,4.1172,4.1172,4.1172,4.154,4.258,4.2734,4.2866,4.338,4.4931,4.6128,4.6605,4.7188,4.7512,4.7479,4.7497,4.7497,4.7497,4.7497,4.7497,4.7497,4.7497,4.7497,4.7497,4.7497,4.7497,4.7497,4.7497,4.7497,4.7497,4.7497,4.7497,4.7497,4.7497,4.7497,3.8574,3.8574,0.0,3.8574,3.8574,0.0,3.8574,0.0,3.8574,0.0,0.0,0.0,0.0,0.0,0.0,0.0,0.0,0.0,0.0,3.8574,0.0,0.0,0.0,0.0,0.0,3.8574,3.8574,3.8574,3.8574,3.8574,3.8574,3.9258,3.9726,3.9883,4.0586,4.1016,4.1172,4.1172,4.1172,4.1172,4.1172,4.1172,4.1172,4.1172,4.1172,4.1172,4.1172,4.1172,4.1172,4.1172,4.1172,4.1172,4.1172,4.1172,4.1172,4.1172,4.1172,4.1172,4.1172,4.1172,4.1172,4.1172,4.1172,4.1172,4.1172,4.1172,4.1152,4.0976,4.1055,4.1133,4.0976,4.1055,4.1172,4.1172,4.1172,4.1172,4.1172,4.1172,4.1172,4.1172,4.1172,4.154,4.2503,4.3172,4.3911,4.502,4.6547,4.7509,4.7539,4.7967,4.8074,4.7569,4.7497,4.7497,4.7497,4.7497,4.7497,4.7497,4.7497,4.7497,4.7497,4.7497,4.7666,4.805,4.769,4.769,4.805,4.769,4.7497,4.7497,4.7497,4.7497]}]]